﻿<?xml version="1.0" encoding="utf-8"?><gpx creator="Garmin Desktop App" version="1.1" xsi:schemaLocation="http://www.topografix.com/GPX/1/1 http://www.topografix.com/GPX/1/1/gpx.xsd http://www.garmin.com/xmlschemas/WaypointExtension/v1 http://www8.garmin.com/xmlschemas/WaypointExtensionv1.xsd http://www.garmin.com/xmlschemas/TrackPointExtension/v1 http://www.garmin.com/xmlschemas/TrackPointExtensionv1.xsd http://www.garmin.com/xmlschemas/GpxExtensions/v3 http://www8.garmin.com/xmlschemas/GpxExtensionsv3.xsd http://www.garmin.com/xmlschemas/ActivityExtension/v1 http://www8.garmin.com/xmlschemas/ActivityExtensionv1.xsd http://www.garmin.com/xmlschemas/AdventuresExtensions/v1 http://www8.garmin.com/xmlschemas/AdventuresExtensionv1.xsd http://www.garmin.com/xmlschemas/PressureExtension/v1 http://www.garmin.com/xmlschemas/PressureExtensionv1.xsd http://www.garmin.com/xmlschemas/TripExtensions/v1 http://www.garmin.com/xmlschemas/TripExtensionsv1.xsd http://www.garmin.com/xmlschemas/TripMetaDataExtensions/v1 http://www.garmin.com/xmlschemas/TripMetaDataExtensionsv1.xsd http://www.garmin.com/xmlschemas/ViaPointTransportationModeExtensions/v1 http://www.garmin.com/xmlschemas/ViaPointTransportationModeExtensionsv1.xsd http://www.garmin.com/xmlschemas/CreationTimeExtension/v1 http://www.garmin.com/xmlschemas/CreationTimeExtensionsv1.xsd http://www.garmin.com/xmlschemas/AccelerationExtension/v1 http://www.garmin.com/xmlschemas/AccelerationExtensionv1.xsd http://www.garmin.com/xmlschemas/PowerExtension/v1 http://www.garmin.com/xmlschemas/PowerExtensionv1.xsd http://www.garmin.com/xmlschemas/VideoExtension/v1 http://www.garmin.com/xmlschemas/VideoExtensionv1.xsd" xmlns="http://www.topografix.com/GPX/1/1" xmlns:xsi="http://www.w3.org/2001/XMLSchema-instance" xmlns:wptx1="http://www.garmin.com/xmlschemas/WaypointExtension/v1" xmlns:gpxtrx="http://www.garmin.com/xmlschemas/GpxExtensions/v3" xmlns:gpxtpx="http://www.garmin.com/xmlschemas/TrackPointExtension/v1" xmlns:gpxx="http://www.garmin.com/xmlschemas/GpxExtensions/v3" xmlns:trp="http://www.garmin.com/xmlschemas/TripExtensions/v1" xmlns:adv="http://www.garmin.com/xmlschemas/AdventuresExtensions/v1" xmlns:prs="http://www.garmin.com/xmlschemas/PressureExtension/v1" xmlns:tmd="http://www.garmin.com/xmlschemas/TripMetaDataExtensions/v1" xmlns:vptm="http://www.garmin.com/xmlschemas/ViaPointTransportationModeExtensions/v1" xmlns:ctx="http://www.garmin.com/xmlschemas/CreationTimeExtension/v1" xmlns:gpxacc="http://www.garmin.com/xmlschemas/AccelerationExtension/v1" xmlns:gpxpx="http://www.garmin.com/xmlschemas/PowerExtension/v1" xmlns:vidx1="http://www.garmin.com/xmlschemas/VideoExtension/v1">

  <metadata>
    <link href="http://www.garmin.com">
      <text>Garmin International</text>
    </link>
    <time>2015-09-13T14:51:41Z</time>
    <bounds maxlat="51.251279041171074" maxlon="8.871834967285395" minlat="50.752261010929942" minlon="8.494482021778822" />
  </metadata>

  <trk>
    <name>Marburg_Kellerwald</name>
    <extensions>
      <gpxx:TrackExtension>
        <gpxx:DisplayColor>Green</gpxx:DisplayColor>
      </gpxx:TrackExtension>
    </extensions>
    <trkseg>
      <trkpt lat="50.752261010929942" lon="8.740245038643479">
        <ele>177.5</ele>
        <time>2015-09-13T09:57:39Z</time>
      </trkpt>
      <trkpt lat="50.752870040014386" lon="8.739928035065532">
        <ele>177.02000000000001</ele>
        <time>2015-09-13T09:57:43Z</time>
      </trkpt>
      <trkpt lat="50.75316097587347" lon="8.739649001508951">
        <ele>176.53999999999999</ele>
        <time>2015-09-13T09:57:45Z</time>
      </trkpt>
      <trkpt lat="50.753704961389303" lon="8.73868097551167">
        <ele>176.53999999999999</ele>
        <time>2015-09-13T09:57:50Z</time>
      </trkpt>
      <trkpt lat="50.754001010209322" lon="8.737746980041266">
        <ele>177.02000000000001</ele>
        <time>2015-09-13T09:57:55Z</time>
      </trkpt>
      <trkpt lat="50.75408298522234" lon="8.736455999314785">
        <ele>177.02000000000001</ele>
        <time>2015-09-13T09:58:02Z</time>
      </trkpt>
      <trkpt lat="50.75431801378727" lon="8.736059032380581">
        <ele>175.58000000000001</ele>
        <time>2015-09-13T09:58:06Z</time>
      </trkpt>
      <trkpt lat="50.754392025992274" lon="8.736040005460382">
        <ele>175.58000000000001</ele>
        <time>2015-09-13T09:58:07Z</time>
      </trkpt>
      <trkpt lat="50.754547007381916" lon="8.736321972683072">
        <ele>176.06</ele>
        <time>2015-09-13T09:58:10Z</time>
      </trkpt>
      <trkpt lat="50.754860993474722" lon="8.736155005171895">
        <ele>176.53999999999999</ele>
        <time>2015-09-13T09:58:14Z</time>
      </trkpt>
      <trkpt lat="50.755076995119452" lon="8.736127009615302">
        <ele>176.53999999999999</ele>
        <time>2015-09-13T09:58:16Z</time>
      </trkpt>
      <trkpt lat="50.755262989550829" lon="8.735681008547545">
        <ele>176.53999999999999</ele>
        <time>2015-09-13T09:58:19Z</time>
      </trkpt>
      <trkpt lat="50.755863972008228" lon="8.734096996486187">
        <ele>180.38</ele>
        <time>2015-09-13T09:58:27Z</time>
      </trkpt>
      <trkpt lat="50.757053028792143" lon="8.732021972537041">
        <ele>181.34999999999999</ele>
        <time>2015-09-13T09:58:39Z</time>
      </trkpt>
      <trkpt lat="50.757296020165086" lon="8.731870008632541">
        <ele>179.90000000000001</ele>
        <time>2015-09-13T09:58:41Z</time>
      </trkpt>
      <trkpt lat="50.758829992264509" lon="8.73174000531435">
        <ele>175.58000000000001</ele>
        <time>2015-09-13T09:58:55Z</time>
      </trkpt>
      <trkpt lat="50.759128974750638" lon="8.731728019192815">
        <ele>175.58000000000001</ele>
        <time>2015-09-13T09:59:02Z</time>
      </trkpt>
      <trkpt lat="50.759178008884192" lon="8.731339015066624">
        <ele>175.58000000000001</ele>
        <time>2015-09-13T09:59:06Z</time>
      </trkpt>
      <trkpt lat="50.75951898470521" lon="8.727455008774996">
        <ele>178.46000000000001</ele>
        <time>2015-09-13T09:59:25Z</time>
      </trkpt>
      <trkpt lat="50.759426029399037" lon="8.726388998329639">
        <ele>178.94</ele>
        <time>2015-09-13T09:59:30Z</time>
      </trkpt>
      <trkpt lat="50.759660974144936" lon="8.726051039993763">
        <ele>178.94</ele>
        <time>2015-09-13T09:59:32Z</time>
      </trkpt>
      <trkpt lat="50.76097902841866" lon="8.724811021238565">
        <ele>180.87</ele>
        <time>2015-09-13T09:59:40Z</time>
      </trkpt>
      <trkpt lat="50.762194991111755" lon="8.723514005541802">
        <ele>181.83000000000001</ele>
        <time>2015-09-13T09:59:46Z</time>
      </trkpt>
      <trkpt lat="50.765201998874545" lon="8.720327960327268">
        <ele>184.71000000000001</ele>
        <time>2015-09-13T10:00:00Z</time>
      </trkpt>
      <trkpt lat="50.766052007675171" lon="8.719569984823465">
        <ele>185.66999999999999</ele>
        <time>2015-09-13T10:00:04Z</time>
      </trkpt>
      <trkpt lat="50.767572987824678" lon="8.71865401044488">
        <ele>186.63</ele>
        <time>2015-09-13T10:00:10Z</time>
      </trkpt>
      <trkpt lat="50.769614987075329" lon="8.716933960095048">
        <ele>187.59</ele>
        <time>2015-09-13T10:00:19Z</time>
      </trkpt>
      <trkpt lat="50.769985970109701" lon="8.716413024812937">
        <ele>187.59</ele>
        <time>2015-09-13T10:00:21Z</time>
      </trkpt>
      <trkpt lat="50.771300001069903" lon="8.714630026370287">
        <ele>188.56</ele>
        <time>2015-09-13T10:00:28Z</time>
      </trkpt>
      <trkpt lat="50.772014977410436" lon="8.714148988947272">
        <ele>189.52000000000001</ele>
        <time>2015-09-13T10:00:31Z</time>
      </trkpt>
      <trkpt lat="50.77223801985383" lon="8.713947990909219">
        <ele>189.52000000000001</ele>
        <time>2015-09-13T10:00:32Z</time>
      </trkpt>
      <trkpt lat="50.773122981190681" lon="8.713153973221779">
        <ele>190</ele>
        <time>2015-09-13T10:00:36Z</time>
      </trkpt>
      <trkpt lat="50.77430097386241" lon="8.712446037679911">
        <ele>189.52000000000001</ele>
        <time>2015-09-13T10:00:41Z</time>
      </trkpt>
      <trkpt lat="50.774956019595265" lon="8.711863998323679">
        <ele>187.59</ele>
        <time>2015-09-13T10:00:44Z</time>
      </trkpt>
      <trkpt lat="50.775186019018292" lon="8.711711028590798">
        <ele>187.59</ele>
        <time>2015-09-13T10:00:45Z</time>
      </trkpt>
      <trkpt lat="50.776070980355144" lon="8.711097976192832">
        <ele>188.56</ele>
        <time>2015-09-13T10:00:49Z</time>
      </trkpt>
      <trkpt lat="50.776775982230902" lon="8.710117964074016">
        <ele>189.52000000000001</ele>
        <time>2015-09-13T10:00:53Z</time>
      </trkpt>
      <trkpt lat="50.776984021067619" lon="8.709508012980223">
        <ele>190</ele>
        <time>2015-09-13T10:00:55Z</time>
      </trkpt>
      <trkpt lat="50.777546027675271" lon="8.707035016268492">
        <ele>189.52000000000001</ele>
        <time>2015-09-13T10:01:05Z</time>
      </trkpt>
      <trkpt lat="50.778156984597445" lon="8.705063005909324">
        <ele>191.91999999999999</ele>
        <time>2015-09-13T10:01:17Z</time>
      </trkpt>
      <trkpt lat="50.778248012065887" lon="8.704722030088306">
        <ele>191.91999999999999</ele>
        <time>2015-09-13T10:01:19Z</time>
      </trkpt>
      <trkpt lat="50.778473988175392" lon="8.703135000541806">
        <ele>193.36000000000001</ele>
        <time>2015-09-13T10:01:28Z</time>
      </trkpt>
      <trkpt lat="50.778617989271879" lon="8.701440012082458">
        <ele>191.91999999999999</ele>
        <time>2015-09-13T10:01:37Z</time>
      </trkpt>
      <trkpt lat="50.778680015355349" lon="8.700875993818045">
        <ele>191.91999999999999</ele>
        <time>2015-09-13T10:01:40Z</time>
      </trkpt>
      <trkpt lat="50.778988972306252" lon="8.700073007494211">
        <ele>191.44</ele>
        <time>2015-09-13T10:01:45Z</time>
      </trkpt>
      <trkpt lat="50.779403038322926" lon="8.699564980342984">
        <ele>191.44</ele>
        <time>2015-09-13T10:01:49Z</time>
      </trkpt>
      <trkpt lat="50.780003014951944" lon="8.699086038395762">
        <ele>192.40000000000001</ele>
        <time>2015-09-13T10:01:54Z</time>
      </trkpt>
      <trkpt lat="50.781351998448372" lon="8.696886040270329">
        <ele>197.69</ele>
        <time>2015-09-13T10:02:09Z</time>
      </trkpt>
      <trkpt lat="50.781997991725802" lon="8.695532027631998">
        <ele>199.13</ele>
        <time>2015-09-13T10:02:16Z</time>
      </trkpt>
      <trkpt lat="50.782918995246291" lon="8.693651966750622">
        <ele>202.49000000000001</ele>
        <time>2015-09-13T10:02:24Z</time>
      </trkpt>
      <trkpt lat="50.785042969509959" lon="8.690270036458969">
        <ele>201.53</ele>
        <time>2015-09-13T10:02:43Z</time>
      </trkpt>
      <trkpt lat="50.785998003557324" lon="8.689001016318798">
        <ele>198.16999999999999</ele>
        <time>2015-09-13T10:02:52Z</time>
      </trkpt>
      <trkpt lat="50.786320036277175" lon="8.688500029966235">
        <ele>198.65000000000001</ele>
        <time>2015-09-13T10:02:57Z</time>
      </trkpt>
      <trkpt lat="50.78648398630321" lon="8.688233988359571">
        <ele>199.61000000000001</ele>
        <time>2015-09-13T10:03:04Z</time>
      </trkpt>
      <trkpt lat="50.787023026496172" lon="8.687116010114551">
        <ele>198.16999999999999</ele>
        <time>2015-09-13T10:03:15Z</time>
      </trkpt>
      <trkpt lat="50.787204997614026" lon="8.686790037900209">
        <ele>198.16999999999999</ele>
        <time>2015-09-13T10:03:18Z</time>
      </trkpt>
      <trkpt lat="50.787653010338545" lon="8.686430035158992">
        <ele>197.69</ele>
        <time>2015-09-13T10:03:26Z</time>
      </trkpt>
      <trkpt lat="50.787768010050058" lon="8.686486026272178">
        <ele>197.69</ele>
        <time>2015-09-13T10:03:28Z</time>
      </trkpt>
      <trkpt lat="50.787955010309815" lon="8.687146017327905">
        <ele>198.65000000000001</ele>
        <time>2015-09-13T10:03:35Z</time>
      </trkpt>
      <trkpt lat="50.787972025573254" lon="8.687246013432741">
        <ele>199.13</ele>
        <time>2015-09-13T10:03:36Z</time>
      </trkpt>
      <trkpt lat="50.788046959787607" lon="8.68739596568048">
        <ele>200.09</ele>
        <time>2015-09-13T10:03:38Z</time>
      </trkpt>
      <trkpt lat="50.788189033046365" lon="8.687536027282476">
        <ele>200.56999999999999</ele>
        <time>2015-09-13T10:03:41Z</time>
      </trkpt>
      <trkpt lat="50.788522968068719" lon="8.687764015048742">
        <ele>203.46000000000001</ele>
        <time>2015-09-13T10:03:46Z</time>
      </trkpt>
      <trkpt lat="50.788818011060357" lon="8.687722021713853">
        <ele>205.38</ele>
        <time>2015-09-13T10:03:50Z</time>
      </trkpt>
      <trkpt lat="50.789082963019609" lon="8.687485987320542">
        <ele>209.69999999999999</ele>
        <time>2015-09-13T10:03:54Z</time>
      </trkpt>
      <trkpt lat="50.789347998797894" lon="8.687291024252772">
        <ele>214.03</ele>
        <time>2015-09-13T10:03:57Z</time>
      </trkpt>
      <trkpt lat="50.790477963164449" lon="8.686809986829758">
        <ele>228.93000000000001</ele>
        <time>2015-09-13T10:04:04Z</time>
      </trkpt>
      <trkpt lat="50.790881970897317" lon="8.686820967122912">
        <ele>233.25999999999999</ele>
        <time>2015-09-13T10:04:06Z</time>
      </trkpt>
      <trkpt lat="50.792514011263847" lon="8.687073010951281">
        <ele>245.75</ele>
        <time>2015-09-13T10:04:15Z</time>
      </trkpt>
      <trkpt lat="50.7931640278548" lon="8.686645030975342">
        <ele>246.72</ele>
        <time>2015-09-13T10:04:19Z</time>
      </trkpt>
      <trkpt lat="50.793431997299194" lon="8.68623498827219">
        <ele>246.22999999999999</ele>
        <time>2015-09-13T10:04:21Z</time>
      </trkpt>
      <trkpt lat="50.79456196166575" lon="8.683727961033583">
        <ele>235.66</ele>
        <time>2015-09-13T10:04:30Z</time>
      </trkpt>
      <trkpt lat="50.796301960945129" lon="8.679314972832799">
        <ele>226.05000000000001</ele>
        <time>2015-09-13T10:04:45Z</time>
      </trkpt>
      <trkpt lat="50.797390015795827" lon="8.67667400278151">
        <ele>222.68000000000001</ele>
        <time>2015-09-13T10:04:54Z</time>
      </trkpt>
      <trkpt lat="50.798075990751386" lon="8.675380004569888">
        <ele>221.72</ele>
        <time>2015-09-13T10:04:59Z</time>
      </trkpt>
      <trkpt lat="50.798628022894263" lon="8.673654003068805">
        <ele>222.68000000000001</ele>
        <time>2015-09-13T10:05:05Z</time>
      </trkpt>
      <trkpt lat="50.798673033714294" lon="8.67334202863276">
        <ele>223.16</ele>
        <time>2015-09-13T10:05:06Z</time>
      </trkpt>
      <trkpt lat="50.798942008987069" lon="8.6714749597013">
        <ele>226.53</ele>
        <time>2015-09-13T10:05:12Z</time>
      </trkpt>
      <trkpt lat="50.798978973180056" lon="8.67121696472168">
        <ele>227.00999999999999</ele>
        <time>2015-09-13T10:05:13Z</time>
      </trkpt>
      <trkpt lat="50.799196986481547" lon="8.670286992564797">
        <ele>228.44999999999999</ele>
        <time>2015-09-13T10:05:16Z</time>
      </trkpt>
      <trkpt lat="50.800322005525231" lon="8.667335975915194">
        <ele>227.97</ele>
        <time>2015-09-13T10:05:27Z</time>
      </trkpt>
      <trkpt lat="50.801429003477097" lon="8.665120974183083">
        <ele>231.33000000000001</ele>
        <time>2015-09-13T10:05:36Z</time>
      </trkpt>
      <trkpt lat="50.801509972661734" lon="8.66453398950398">
        <ele>233.25999999999999</ele>
        <time>2015-09-13T10:05:38Z</time>
      </trkpt>
      <trkpt lat="50.801540985703468" lon="8.663283996284008">
        <ele>236.62</ele>
        <time>2015-09-13T10:05:42Z</time>
      </trkpt>
      <trkpt lat="50.801667971536517" lon="8.66056096740067">
        <ele>239.99000000000001</ele>
        <time>2015-09-13T10:05:50Z</time>
      </trkpt>
      <trkpt lat="50.801771990954876" lon="8.659179965034127">
        <ele>243.34999999999999</ele>
        <time>2015-09-13T10:05:54Z</time>
      </trkpt>
      <trkpt lat="50.801680041477084" lon="8.657458992674947">
        <ele>246.72</ele>
        <time>2015-09-13T10:05:59Z</time>
      </trkpt>
      <trkpt lat="50.801631007343531" lon="8.649720987305045">
        <ele>242.38999999999999</ele>
        <time>2015-09-13T10:06:20Z</time>
      </trkpt>
      <trkpt lat="50.801717005670071" lon="8.649442959576845">
        <ele>242.38999999999999</ele>
        <time>2015-09-13T10:06:21Z</time>
      </trkpt>
      <trkpt lat="50.801827982068062" lon="8.649173984304071">
        <ele>242.38999999999999</ele>
        <time>2015-09-13T10:06:22Z</time>
      </trkpt>
      <trkpt lat="50.802292004227638" lon="8.648036979138851">
        <ele>244.31</ele>
        <time>2015-09-13T10:06:26Z</time>
      </trkpt>
      <trkpt lat="50.803793035447598" lon="8.643719041720033">
        <ele>243.34999999999999</ele>
        <time>2015-09-13T10:06:42Z</time>
      </trkpt>
      <trkpt lat="50.8041210193187" lon="8.642831984907389">
        <ele>243.34999999999999</ele>
        <time>2015-09-13T10:06:45Z</time>
      </trkpt>
      <trkpt lat="50.804905984550714" lon="8.638287987560034">
        <ele>253.44</ele>
        <time>2015-09-13T10:06:57Z</time>
      </trkpt>
      <trkpt lat="50.805864036083221" lon="8.636026969179511">
        <ele>257.76999999999998</ele>
        <time>2015-09-13T10:07:04Z</time>
      </trkpt>
      <trkpt lat="50.806651012971997" lon="8.633718006312847">
        <ele>257.76999999999998</ele>
        <time>2015-09-13T10:07:11Z</time>
      </trkpt>
      <trkpt lat="50.806963993236423" lon="8.632814018055797">
        <ele>257.76999999999998</ele>
        <time>2015-09-13T10:07:14Z</time>
      </trkpt>
      <trkpt lat="50.807831017300487" lon="8.631343999877572">
        <ele>260.64999999999998</ele>
        <time>2015-09-13T10:07:21Z</time>
      </trkpt>
      <trkpt lat="50.808675996959209" lon="8.629449019208551">
        <ele>261.62</ele>
        <time>2015-09-13T10:07:30Z</time>
      </trkpt>
      <trkpt lat="50.809167008846998" lon="8.628364987671375">
        <ele>259.69</ele>
        <time>2015-09-13T10:07:37Z</time>
      </trkpt>
      <trkpt lat="50.809421986341476" lon="8.627387993037701">
        <ele>257.29000000000002</ele>
        <time>2015-09-13T10:07:44Z</time>
      </trkpt>
      <trkpt lat="50.809445958584547" lon="8.627290008589625">
        <ele>256.81</ele>
        <time>2015-09-13T10:07:45Z</time>
      </trkpt>
      <trkpt lat="50.809628013521433" lon="8.627315992489457">
        <ele>256.32999999999998</ele>
        <time>2015-09-13T10:07:48Z</time>
      </trkpt>
      <trkpt lat="50.81016001291573" lon="8.627796024084091">
        <ele>255.37</ele>
        <time>2015-09-13T10:07:54Z</time>
      </trkpt>
      <trkpt lat="50.810385989025235" lon="8.628099029883742">
        <ele>254.88999999999999</ele>
        <time>2015-09-13T10:07:59Z</time>
      </trkpt>
      <trkpt lat="50.810949001461267" lon="8.627718994393945">
        <ele>254.88999999999999</ele>
        <time>2015-09-13T10:08:05Z</time>
      </trkpt>
      <trkpt lat="50.811070036143064" lon="8.627637019380927">
        <ele>255.37</ele>
        <time>2015-09-13T10:08:06Z</time>
      </trkpt>
      <trkpt lat="50.81269696354866" lon="8.62725798971951">
        <ele>261.13999999999999</ele>
        <time>2015-09-13T10:08:16Z</time>
      </trkpt>
      <trkpt lat="50.814233031123877" lon="8.6262880358845">
        <ele>264.5</ele>
        <time>2015-09-13T10:08:23Z</time>
      </trkpt>
      <trkpt lat="50.815271968021989" lon="8.625248009338975">
        <ele>267.38</ele>
        <time>2015-09-13T10:08:28Z</time>
      </trkpt>
      <trkpt lat="50.815439019352198" lon="8.624970987439156">
        <ele>267.86000000000001</ele>
        <time>2015-09-13T10:08:29Z</time>
      </trkpt>
      <trkpt lat="50.816084006801248" lon="8.622791022062302">
        <ele>268.35000000000002</ele>
        <time>2015-09-13T10:08:35Z</time>
      </trkpt>
      <trkpt lat="50.8170569781214" lon="8.619811004027724">
        <ele>270.75</ele>
        <time>2015-09-13T10:08:43Z</time>
      </trkpt>
      <trkpt lat="50.817517982795835" lon="8.617483014240861">
        <ele>273.63</ele>
        <time>2015-09-13T10:08:50Z</time>
      </trkpt>
      <trkpt lat="50.81828098744154" lon="8.61378500238061">
        <ele>277.48000000000002</ele>
        <time>2015-09-13T10:09:03Z</time>
      </trkpt>
      <trkpt lat="50.818638978525996" lon="8.612486980855465">
        <ele>277.48000000000002</ele>
        <time>2015-09-13T10:09:10Z</time>
      </trkpt>
      <trkpt lat="50.819268962368369" lon="8.611642001196742">
        <ele>277.95999999999998</ele>
        <time>2015-09-13T10:09:18Z</time>
      </trkpt>
      <trkpt lat="50.819307016208768" lon="8.61142298206687">
        <ele>278.44</ele>
        <time>2015-09-13T10:09:20Z</time>
      </trkpt>
      <trkpt lat="50.819316990673542" lon="8.611212009564042">
        <ele>278.44</ele>
        <time>2015-09-13T10:09:22Z</time>
      </trkpt>
      <trkpt lat="50.819553025066853" lon="8.611077982932329">
        <ele>278.92000000000002</ele>
        <time>2015-09-13T10:09:25Z</time>
      </trkpt>
      <trkpt lat="50.819779001176357" lon="8.611027020961046">
        <ele>279.88</ele>
        <time>2015-09-13T10:09:27Z</time>
      </trkpt>
      <trkpt lat="50.820059962570667" lon="8.610894000157714">
        <ele>280.83999999999997</ele>
        <time>2015-09-13T10:09:29Z</time>
      </trkpt>
      <trkpt lat="50.82053697668016" lon="8.610516982153058">
        <ele>282.76999999999998</ele>
        <time>2015-09-13T10:09:32Z</time>
      </trkpt>
      <trkpt lat="50.822425000369549" lon="8.608398037031293">
        <ele>288.52999999999997</ele>
        <time>2015-09-13T10:09:42Z</time>
      </trkpt>
      <trkpt lat="50.82403901964426" lon="8.607359016314149">
        <ele>293.33999999999997</ele>
        <time>2015-09-13T10:09:49Z</time>
      </trkpt>
      <trkpt lat="50.825084997341037" lon="8.60682399943471">
        <ele>297.18000000000001</ele>
        <time>2015-09-13T10:09:54Z</time>
      </trkpt>
      <trkpt lat="50.825504008680582" lon="8.606915026903153">
        <ele>298.63</ele>
        <time>2015-09-13T10:09:56Z</time>
      </trkpt>
      <trkpt lat="50.825725961476564" lon="8.606993984431028">
        <ele>299.11000000000001</ele>
        <time>2015-09-13T10:09:57Z</time>
      </trkpt>
      <trkpt lat="50.8262940030545" lon="8.607548028230667">
        <ele>302.47000000000003</ele>
        <time>2015-09-13T10:10:00Z</time>
      </trkpt>
      <trkpt lat="50.826453007757664" lon="8.607809962704778">
        <ele>303.43000000000001</ele>
        <time>2015-09-13T10:10:01Z</time>
      </trkpt>
      <trkpt lat="50.827350961044431" lon="8.609358016401529">
        <ele>311.60000000000002</ele>
        <time>2015-09-13T10:10:07Z</time>
      </trkpt>
      <trkpt lat="50.827710963785648" lon="8.609676025807858">
        <ele>314.00999999999999</ele>
        <time>2015-09-13T10:10:09Z</time>
      </trkpt>
      <trkpt lat="50.828114971518517" lon="8.609853973612189">
        <ele>315.44999999999999</ele>
        <time>2015-09-13T10:10:11Z</time>
      </trkpt>
      <trkpt lat="50.828687036409974" lon="8.610568027943373">
        <ele>318.32999999999998</ele>
        <time>2015-09-13T10:10:15Z</time>
      </trkpt>
      <trkpt lat="50.828956011682749" lon="8.611200023442507">
        <ele>318.32999999999998</ele>
        <time>2015-09-13T10:10:18Z</time>
      </trkpt>
      <trkpt lat="50.829363036900759" lon="8.611392974853516">
        <ele>317.85000000000002</ele>
        <time>2015-09-13T10:10:21Z</time>
      </trkpt>
      <trkpt lat="50.829681968316436" lon="8.610995002090931">
        <ele>316.88999999999999</ele>
        <time>2015-09-13T10:10:24Z</time>
      </trkpt>
      <trkpt lat="50.829531010240316" lon="8.610077016055584">
        <ele>315.44999999999999</ele>
        <time>2015-09-13T10:10:28Z</time>
      </trkpt>
      <trkpt lat="50.829234961420298" lon="8.609213009476662">
        <ele>314.97000000000003</ele>
        <time>2015-09-13T10:10:31Z</time>
      </trkpt>
      <trkpt lat="50.828931033611298" lon="8.607825972139835">
        <ele>315.93000000000001</ele>
        <time>2015-09-13T10:10:35Z</time>
      </trkpt>
      <trkpt lat="50.828842017799616" lon="8.607474016025662">
        <ele>316.41000000000003</ele>
        <time>2015-09-13T10:10:36Z</time>
      </trkpt>
      <trkpt lat="50.828302977606654" lon="8.603826966136694">
        <ele>320.25999999999999</ele>
        <time>2015-09-13T10:10:46Z</time>
      </trkpt>
      <trkpt lat="50.828414959833026" lon="8.603250961750746">
        <ele>321.22000000000003</ele>
        <time>2015-09-13T10:10:48Z</time>
      </trkpt>
      <trkpt lat="50.829430008307099" lon="8.600371023640037">
        <ele>330.35000000000002</ele>
        <time>2015-09-13T10:10:57Z</time>
      </trkpt>
      <trkpt lat="50.829804008826613" lon="8.599233012646437">
        <ele>336.12</ele>
        <time>2015-09-13T10:11:01Z</time>
      </trkpt>
      <trkpt lat="50.829938035458326" lon="8.598993038758636">
        <ele>337.56</ele>
        <time>2015-09-13T10:11:02Z</time>
      </trkpt>
      <trkpt lat="50.830197036266327" lon="8.598500015214086">
        <ele>339.95999999999998</ele>
        <time>2015-09-13T10:11:04Z</time>
      </trkpt>
      <trkpt lat="50.830682013183832" lon="8.597322022542357">
        <ele>344.29000000000002</ele>
        <time>2015-09-13T10:11:09Z</time>
      </trkpt>
      <trkpt lat="50.831367988139391" lon="8.596404036507011">
        <ele>346.20999999999998</ele>
        <time>2015-09-13T10:11:14Z</time>
      </trkpt>
      <trkpt lat="50.831444012001157" lon="8.595544975250959">
        <ele>347.64999999999998</ele>
        <time>2015-09-13T10:11:17Z</time>
      </trkpt>
      <trkpt lat="50.831479970365763" lon="8.594823963940144">
        <ele>348.62</ele>
        <time>2015-09-13T10:11:19Z</time>
      </trkpt>
      <trkpt lat="50.832279017195106" lon="8.591443039476872">
        <ele>351.98000000000002</ele>
        <time>2015-09-13T10:11:29Z</time>
      </trkpt>
      <trkpt lat="50.833131037652493" lon="8.589961035177112">
        <ele>357.26999999999998</ele>
        <time>2015-09-13T10:11:35Z</time>
      </trkpt>
      <trkpt lat="50.833433037623763" lon="8.589606983587146">
        <ele>360.63</ele>
        <time>2015-09-13T10:11:37Z</time>
      </trkpt>
      <trkpt lat="50.833605034276843" lon="8.58897197060287">
        <ele>364.95999999999998</ele>
        <time>2015-09-13T10:11:40Z</time>
      </trkpt>
      <trkpt lat="50.833594975993037" lon="8.588619008660317">
        <ele>368.80000000000001</ele>
        <time>2015-09-13T10:11:42Z</time>
      </trkpt>
      <trkpt lat="50.833587013185024" lon="8.588526975363493">
        <ele>370.24000000000001</ele>
        <time>2015-09-13T10:11:43Z</time>
      </trkpt>
      <trkpt lat="50.833463966846466" lon="8.588060019537807">
        <ele>374.56999999999999</ele>
        <time>2015-09-13T10:11:45Z</time>
      </trkpt>
      <trkpt lat="50.833304040133953" lon="8.587449984624982">
        <ele>378.42000000000002</ele>
        <time>2015-09-13T10:11:47Z</time>
      </trkpt>
      <trkpt lat="50.83319197408855" lon="8.586588995531201">
        <ele>382.25999999999999</ele>
        <time>2015-09-13T10:11:49Z</time>
      </trkpt>
      <trkpt lat="50.833103964105248" lon="8.584957038983703">
        <ele>388.99000000000001</ele>
        <time>2015-09-13T10:11:53Z</time>
      </trkpt>
      <trkpt lat="50.83317001350224" lon="8.584142988547683">
        <ele>393.80000000000001</ele>
        <time>2015-09-13T10:11:55Z</time>
      </trkpt>
      <trkpt lat="50.833238996565342" lon="8.583808969706297">
        <ele>395.72000000000003</ele>
        <time>2015-09-13T10:11:56Z</time>
      </trkpt>
      <trkpt lat="50.833306973800063" lon="8.583476040512323">
        <ele>397.63999999999999</ele>
        <time>2015-09-13T10:11:57Z</time>
      </trkpt>
      <trkpt lat="50.833672005683184" lon="8.582411035895348">
        <ele>404.37</ele>
        <time>2015-09-13T10:12:01Z</time>
      </trkpt>
      <trkpt lat="50.833764038980007" lon="8.582184975966811">
        <ele>406.29000000000002</ele>
        <time>2015-09-13T10:12:02Z</time>
      </trkpt>
      <trkpt lat="50.83405002951622" lon="8.581830002367497">
        <ele>409.66000000000003</ele>
        <time>2015-09-13T10:12:04Z</time>
      </trkpt>
      <trkpt lat="50.835432959720492" lon="8.58082601800561">
        <ele>413.01999999999998</ele>
        <time>2015-09-13T10:12:12Z</time>
      </trkpt>
      <trkpt lat="50.83559799939394" lon="8.580709006637335">
        <ele>413.01999999999998</ele>
        <time>2015-09-13T10:12:13Z</time>
      </trkpt>
      <trkpt lat="50.836112983524799" lon="8.579893028363586">
        <ele>412.06</ele>
        <time>2015-09-13T10:12:17Z</time>
      </trkpt>
      <trkpt lat="50.83637299016118" lon="8.57968800701201">
        <ele>411.10000000000002</ele>
        <time>2015-09-13T10:12:19Z</time>
      </trkpt>
      <trkpt lat="50.836540041491389" lon="8.579590022563934">
        <ele>410.62</ele>
        <time>2015-09-13T10:12:20Z</time>
      </trkpt>
      <trkpt lat="50.837391978129745" lon="8.579708961769939">
        <ele>407.74000000000001</ele>
        <time>2015-09-13T10:12:24Z</time>
      </trkpt>
      <trkpt lat="50.837968988344073" lon="8.580106012523174">
        <ele>405.32999999999998</ele>
        <time>2015-09-13T10:12:27Z</time>
      </trkpt>
      <trkpt lat="50.83914102986455" lon="8.580513959750533">
        <ele>400.52999999999997</ele>
        <time>2015-09-13T10:12:33Z</time>
      </trkpt>
      <trkpt lat="50.83985198289156" lon="8.580279015004635">
        <ele>396.68000000000001</ele>
        <time>2015-09-13T10:12:37Z</time>
      </trkpt>
      <trkpt lat="50.839993972331285" lon="8.580120010301471">
        <ele>395.72000000000003</ele>
        <time>2015-09-13T10:12:38Z</time>
      </trkpt>
      <trkpt lat="50.840416001155972" lon="8.579649031162262">
        <ele>392.36000000000001</ele>
        <time>2015-09-13T10:12:41Z</time>
      </trkpt>
      <trkpt lat="50.840544998645782" lon="8.579505030065775">
        <ele>390.91000000000003</ele>
        <time>2015-09-13T10:12:42Z</time>
      </trkpt>
      <trkpt lat="50.841015977784991" lon="8.57917201705277">
        <ele>387.06999999999999</ele>
        <time>2015-09-13T10:12:45Z</time>
      </trkpt>
      <trkpt lat="50.841640010476112" lon="8.578729033470154">
        <ele>381.77999999999997</ele>
        <time>2015-09-13T10:12:49Z</time>
      </trkpt>
      <trkpt lat="50.841795997694135" lon="8.578617973253131">
        <ele>380.33999999999997</ele>
        <time>2015-09-13T10:12:50Z</time>
      </trkpt>
      <trkpt lat="50.84270803257823" lon="8.578124027699232">
        <ele>370.73000000000002</ele>
        <time>2015-09-13T10:12:56Z</time>
      </trkpt>
      <trkpt lat="50.843067029491067" lon="8.577676014974713">
        <ele>366.88</ele>
        <time>2015-09-13T10:12:59Z</time>
      </trkpt>
      <trkpt lat="50.843586036935449" lon="8.576717963442206">
        <ele>359.19</ele>
        <time>2015-09-13T10:13:05Z</time>
      </trkpt>
      <trkpt lat="50.843830034136772" lon="8.576437002047896">
        <ele>356.31</ele>
        <time>2015-09-13T10:13:07Z</time>
      </trkpt>
      <trkpt lat="50.84432196803391" lon="8.576301969587803">
        <ele>352.45999999999998</ele>
        <time>2015-09-13T10:13:10Z</time>
      </trkpt>
      <trkpt lat="50.845197960734367" lon="8.576371958479285">
        <ele>344.76999999999998</ele>
        <time>2015-09-13T10:13:16Z</time>
      </trkpt>
      <trkpt lat="50.845536002889276" lon="8.576168026775122">
        <ele>341.41000000000003</ele>
        <time>2015-09-13T10:13:19Z</time>
      </trkpt>
      <trkpt lat="50.845669023692608" lon="8.575820010155439">
        <ele>339</ele>
        <time>2015-09-13T10:13:21Z</time>
      </trkpt>
      <trkpt lat="50.845699030905962" lon="8.575643990188837">
        <ele>338.04000000000002</ele>
        <time>2015-09-13T10:13:22Z</time>
      </trkpt>
      <trkpt lat="50.845714034512639" lon="8.57521902769804">
        <ele>336.12</ele>
        <time>2015-09-13T10:13:24Z</time>
      </trkpt>
      <trkpt lat="50.845714034512639" lon="8.574372036382556">
        <ele>332.26999999999998</ele>
        <time>2015-09-13T10:13:28Z</time>
      </trkpt>
      <trkpt lat="50.845855018123984" lon="8.573766024783254">
        <ele>328.43000000000001</ele>
        <time>2015-09-13T10:13:31Z</time>
      </trkpt>
      <trkpt lat="50.846135979518294" lon="8.57275097630918">
        <ele>323.62</ele>
        <time>2015-09-13T10:13:36Z</time>
      </trkpt>
      <trkpt lat="50.84623103030026" lon="8.571710027754307">
        <ele>315.93000000000001</ele>
        <time>2015-09-13T10:13:41Z</time>
      </trkpt>
      <trkpt lat="50.846322979778051" lon="8.571327980607748">
        <ele>311.60000000000002</ele>
        <time>2015-09-13T10:13:43Z</time>
      </trkpt>
      <trkpt lat="50.846370002254844" lon="8.571135029196739">
        <ele>309.19999999999999</ele>
        <time>2015-09-13T10:13:44Z</time>
      </trkpt>
      <trkpt lat="50.846660016104579" lon="8.570690033957362">
        <ele>305.83999999999997</ele>
        <time>2015-09-13T10:13:47Z</time>
      </trkpt>
      <trkpt lat="50.846762023866177" lon="8.570544021204114">
        <ele>304.88</ele>
        <time>2015-09-13T10:13:48Z</time>
      </trkpt>
      <trkpt lat="50.84687702357769" lon="8.570417035371065">
        <ele>303.91000000000003</ele>
        <time>2015-09-13T10:13:49Z</time>
      </trkpt>
      <trkpt lat="50.848538987338543" lon="8.568462962284684">
        <ele>289.00999999999999</ele>
        <time>2015-09-13T10:14:05Z</time>
      </trkpt>
      <trkpt lat="50.84887501783669" lon="8.567975973710418">
        <ele>287.08999999999997</ele>
        <time>2015-09-13T10:14:10Z</time>
      </trkpt>
      <trkpt lat="50.848962021991611" lon="8.567848987877369">
        <ele>286.13</ele>
        <time>2015-09-13T10:14:54Z</time>
      </trkpt>
      <trkpt lat="50.849746987223625" lon="8.566880961880088">
        <ele>285.64999999999998</ele>
        <time>2015-09-13T10:18:28Z</time>
      </trkpt>
      <trkpt lat="50.85044402629137" lon="8.565990971401334">
        <ele>280.36000000000001</ele>
        <time>2015-09-13T10:18:37Z</time>
      </trkpt>
      <trkpt lat="50.850844010710716" lon="8.565458972007036">
        <ele>277</ele>
        <time>2015-09-13T10:18:43Z</time>
      </trkpt>
      <trkpt lat="50.851142993196845" lon="8.565185973420739">
        <ele>277</ele>
        <time>2015-09-13T10:18:47Z</time>
      </trkpt>
      <trkpt lat="50.851384978741407" lon="8.564998973160982">
        <ele>275.56</ele>
        <time>2015-09-13T10:18:50Z</time>
      </trkpt>
      <trkpt lat="50.851467959582806" lon="8.564956979826093">
        <ele>275.06999999999999</ele>
        <time>2015-09-13T10:18:51Z</time>
      </trkpt>
      <trkpt lat="50.851927036419511" lon="8.564690016210079">
        <ele>270.75</ele>
        <time>2015-09-13T10:18:56Z</time>
      </trkpt>
      <trkpt lat="50.853112991899252" lon="8.563664993271232">
        <ele>263.06</ele>
        <time>2015-09-13T10:19:09Z</time>
      </trkpt>
      <trkpt lat="50.853955037891865" lon="8.562950016930699">
        <ele>258.25</ele>
        <time>2015-09-13T10:19:19Z</time>
      </trkpt>
      <trkpt lat="50.854871012270451" lon="8.562483983114362">
        <ele>253.44</ele>
        <time>2015-09-13T10:19:28Z</time>
      </trkpt>
      <trkpt lat="50.856404984369874" lon="8.561553005129099">
        <ele>250.08000000000001</ele>
        <time>2015-09-13T10:19:45Z</time>
      </trkpt>
      <trkpt lat="50.85648100823164" lon="8.561527021229267">
        <ele>249.59999999999999</ele>
        <time>2015-09-13T10:19:47Z</time>
      </trkpt>
      <trkpt lat="50.856630960479379" lon="8.561649983748794">
        <ele>248.63999999999999</ele>
        <time>2015-09-13T10:19:50Z</time>
      </trkpt>
      <trkpt lat="50.857087019830942" lon="8.562234034761787">
        <ele>247.68000000000001</ele>
        <time>2015-09-13T10:19:56Z</time>
      </trkpt>
      <trkpt lat="50.857711974531412" lon="8.562856977805495">
        <ele>247.68000000000001</ele>
        <time>2015-09-13T10:20:01Z</time>
      </trkpt>
      <trkpt lat="50.857972986996174" lon="8.563716961070895">
        <ele>248.16</ele>
        <time>2015-09-13T10:20:05Z</time>
      </trkpt>
      <trkpt lat="50.858591990545392" lon="8.567235013470054">
        <ele>248.16</ele>
        <time>2015-09-13T10:20:20Z</time>
      </trkpt>
      <trkpt lat="50.859073027968407" lon="8.568479977548122">
        <ele>248.16</ele>
        <time>2015-09-13T10:20:30Z</time>
      </trkpt>
      <trkpt lat="50.859133964404464" lon="8.568575028330088">
        <ele>248.16</ele>
        <time>2015-09-13T10:20:33Z</time>
      </trkpt>
      <trkpt lat="50.859478963539004" lon="8.568190969526768">
        <ele>248.16</ele>
        <time>2015-09-13T10:20:37Z</time>
      </trkpt>
      <trkpt lat="50.859632017090917" lon="8.56810798868537">
        <ele>248.16</ele>
        <time>2015-09-13T10:20:38Z</time>
      </trkpt>
      <trkpt lat="50.86105995811522" lon="8.567453026771545">
        <ele>250.56</ele>
        <time>2015-09-13T10:20:45Z</time>
      </trkpt>
      <trkpt lat="50.86589396931231" lon="8.563213963061571">
        <ele>252.47999999999999</ele>
        <time>2015-09-13T10:21:09Z</time>
      </trkpt>
      <trkpt lat="50.872524976730347" lon="8.556558983400464">
        <ele>255.37</ele>
        <time>2015-09-13T10:21:41Z</time>
      </trkpt>
      <trkpt lat="50.874769985675812" lon="8.55433501303196">
        <ele>255.84999999999999</ele>
        <time>2015-09-13T10:21:55Z</time>
      </trkpt>
      <trkpt lat="50.879959976300597" lon="8.549110991880298">
        <ele>258.73000000000002</ele>
        <time>2015-09-13T10:22:22Z</time>
      </trkpt>
      <trkpt lat="50.882352003827691" lon="8.546689040958881">
        <ele>260.17000000000002</ele>
        <time>2015-09-13T10:22:39Z</time>
      </trkpt>
      <trkpt lat="50.885249963030219" lon="8.543838020414114">
        <ele>261.13999999999999</ele>
        <time>2015-09-13T10:23:05Z</time>
      </trkpt>
      <trkpt lat="50.885813981294632" lon="8.543668035417795">
        <ele>260.64999999999998</ele>
        <time>2015-09-13T10:23:10Z</time>
      </trkpt>
      <trkpt lat="50.887320963665843" lon="8.544144965708256">
        <ele>258.73000000000002</ele>
        <time>2015-09-13T10:23:23Z</time>
      </trkpt>
      <trkpt lat="50.890052039176226" lon="8.544437997043133">
        <ele>262.57999999999998</ele>
        <time>2015-09-13T10:23:44Z</time>
      </trkpt>
      <trkpt lat="50.890223030000925" lon="8.544500023126602">
        <ele>262.57999999999998</ele>
        <time>2015-09-13T10:23:45Z</time>
      </trkpt>
      <trkpt lat="50.890408018603921" lon="8.544589038938284">
        <ele>262.57999999999998</ele>
        <time>2015-09-13T10:23:46Z</time>
      </trkpt>
      <trkpt lat="50.891723977401853" lon="8.545137969776988">
        <ele>264.01999999999998</ele>
        <time>2015-09-13T10:23:52Z</time>
      </trkpt>
      <trkpt lat="50.895406985655427" lon="8.545762002468109">
        <ele>264.98000000000002</ele>
        <time>2015-09-13T10:24:08Z</time>
      </trkpt>
      <trkpt lat="50.896082986146212" lon="8.545439969748259">
        <ele>264.98000000000002</ele>
        <time>2015-09-13T10:24:11Z</time>
      </trkpt>
      <trkpt lat="50.896715987473726" lon="8.544908976182342">
        <ele>265.45999999999998</ele>
        <time>2015-09-13T10:24:14Z</time>
      </trkpt>
      <trkpt lat="50.898337969556451" lon="8.543181968852878">
        <ele>266.42000000000002</ele>
        <time>2015-09-13T10:24:23Z</time>
      </trkpt>
      <trkpt lat="50.900503015145659" lon="8.541131000965834">
        <ele>266.89999999999998</ele>
        <time>2015-09-13T10:24:40Z</time>
      </trkpt>
      <trkpt lat="50.900799985975027" lon="8.540965039283037">
        <ele>267.38</ele>
        <time>2015-09-13T10:24:43Z</time>
      </trkpt>
      <trkpt lat="50.900895958766341" lon="8.54093000292778">
        <ele>266.89999999999998</ele>
        <time>2015-09-13T10:24:44Z</time>
      </trkpt>
      <trkpt lat="50.901060998439789" lon="8.541249018162489">
        <ele>267.38</ele>
        <time>2015-09-13T10:24:46Z</time>
      </trkpt>
      <trkpt lat="50.901092011481524" lon="8.541586976498365">
        <ele>267.86000000000001</ele>
        <time>2015-09-13T10:24:48Z</time>
      </trkpt>
      <trkpt lat="50.900793028995395" lon="8.541984027251601">
        <ele>269.79000000000002</ele>
        <time>2015-09-13T10:24:52Z</time>
      </trkpt>
      <trkpt lat="50.900697978213429" lon="8.541927030310035">
        <ele>270.26999999999998</ele>
        <time>2015-09-13T10:24:53Z</time>
      </trkpt>
      <trkpt lat="50.900490023195744" lon="8.541798032820225">
        <ele>271.23000000000002</ele>
        <time>2015-09-13T10:24:55Z</time>
      </trkpt>
      <trkpt lat="50.900226999074221" lon="8.5414660256356">
        <ele>272.19</ele>
        <time>2015-09-13T10:24:58Z</time>
      </trkpt>
      <trkpt lat="50.899976966902614" lon="8.540905024856329">
        <ele>273.63</ele>
        <time>2015-09-13T10:25:02Z</time>
      </trkpt>
      <trkpt lat="50.899932039901614" lon="8.540749037638307">
        <ele>273.63</ele>
        <time>2015-09-13T10:25:03Z</time>
      </trkpt>
      <trkpt lat="50.899865990504622" lon="8.540418958291411">
        <ele>273.63</ele>
        <time>2015-09-13T10:25:05Z</time>
      </trkpt>
      <trkpt lat="50.899876970797777" lon="8.538249973207712">
        <ele>271.70999999999998</ele>
        <time>2015-09-13T10:25:16Z</time>
      </trkpt>
      <trkpt lat="50.900059025734663" lon="8.537047002464533">
        <ele>271.70999999999998</ele>
        <time>2015-09-13T10:25:24Z</time>
      </trkpt>
      <trkpt lat="50.901055969297886" lon="8.534352974966168">
        <ele>270.75</ele>
        <time>2015-09-13T10:25:39Z</time>
      </trkpt>
      <trkpt lat="50.902337981387973" lon="8.532646000385284">
        <ele>271.23000000000002</ele>
        <time>2015-09-13T10:25:48Z</time>
      </trkpt>
      <trkpt lat="50.904299011453986" lon="8.531030975282192">
        <ele>275.56</ele>
        <time>2015-09-13T10:25:59Z</time>
      </trkpt>
      <trkpt lat="50.905829966068268" lon="8.529286030679941">
        <ele>279.88</ele>
        <time>2015-09-13T10:26:08Z</time>
      </trkpt>
      <trkpt lat="50.906815007328987" lon="8.527708975598216">
        <ele>279.88</ele>
        <time>2015-09-13T10:26:16Z</time>
      </trkpt>
      <trkpt lat="50.909259002655745" lon="8.522202987223864">
        <ele>284.20999999999998</ele>
        <time>2015-09-13T10:26:37Z</time>
      </trkpt>
      <trkpt lat="50.909828972071409" lon="8.519192039966583">
        <ele>289.97000000000003</ele>
        <time>2015-09-13T10:26:46Z</time>
      </trkpt>
      <trkpt lat="50.910541014745831" lon="8.512946013361216">
        <ele>287.08999999999997</ele>
        <time>2015-09-13T10:27:04Z</time>
      </trkpt>
      <trkpt lat="50.91146201826632" lon="8.510923963040113">
        <ele>283.73000000000002</ele>
        <time>2015-09-13T10:27:11Z</time>
      </trkpt>
      <trkpt lat="50.912714023143053" lon="8.509499961510301">
        <ele>283.25</ele>
        <time>2015-09-13T10:27:18Z</time>
      </trkpt>
      <trkpt lat="50.91498501598835" lon="8.507721992209554">
        <ele>288.05000000000001</ele>
        <time>2015-09-13T10:27:30Z</time>
      </trkpt>
      <trkpt lat="50.916192010045052" lon="8.506787996739149">
        <ele>292.86000000000001</ele>
        <time>2015-09-13T10:27:38Z</time>
      </trkpt>
      <trkpt lat="50.918171983212233" lon="8.505277996882796">
        <ele>296.69999999999999</ele>
        <time>2015-09-13T10:27:54Z</time>
      </trkpt>
      <trkpt lat="50.918456967920065" lon="8.50541696883738">
        <ele>297.18000000000001</ele>
        <time>2015-09-13T10:27:56Z</time>
      </trkpt>
      <trkpt lat="50.918714962899685" lon="8.505859030410647">
        <ele>297.18000000000001</ele>
        <time>2015-09-13T10:27:59Z</time>
      </trkpt>
      <trkpt lat="50.91923899948597" lon="8.506086012348533">
        <ele>294.30000000000001</ele>
        <time>2015-09-13T10:28:03Z</time>
      </trkpt>
      <trkpt lat="50.920609021559358" lon="8.506616000086069">
        <ele>286.13</ele>
        <time>2015-09-13T10:28:14Z</time>
      </trkpt>
      <trkpt lat="50.920783029869199" lon="8.506729993969202">
        <ele>285.17000000000002</ele>
        <time>2015-09-13T10:28:16Z</time>
      </trkpt>
      <trkpt lat="50.920970030128956" lon="8.506949013099074">
        <ele>284.69</ele>
        <time>2015-09-13T10:28:20Z</time>
      </trkpt>
      <trkpt lat="50.921005988493562" lon="8.506580041721463">
        <ele>284.20999999999998</ele>
        <time>2015-09-13T10:28:24Z</time>
      </trkpt>
      <trkpt lat="50.92106600292027" lon="8.506335038691759">
        <ele>283.73000000000002</ele>
        <time>2015-09-13T10:28:26Z</time>
      </trkpt>
      <trkpt lat="50.921200029551983" lon="8.505920972675085">
        <ele>283.25</ele>
        <time>2015-09-13T10:28:29Z</time>
      </trkpt>
      <trkpt lat="50.922380033880472" lon="8.503924990072846">
        <ele>280.83999999999997</ele>
        <time>2015-09-13T10:28:45Z</time>
      </trkpt>
      <trkpt lat="50.923129040747881" lon="8.503080010414124">
        <ele>280.83999999999997</ele>
        <time>2015-09-13T10:28:51Z</time>
      </trkpt>
      <trkpt lat="50.924754962325096" lon="8.501457022503018">
        <ele>283.25</ele>
        <time>2015-09-13T10:29:00Z</time>
      </trkpt>
      <trkpt lat="50.927803963422775" lon="8.496787967160344">
        <ele>291.42000000000002</ele>
        <time>2015-09-13T10:29:19Z</time>
      </trkpt>
      <trkpt lat="50.928218029439449" lon="8.495455998927355">
        <ele>292.38</ele>
        <time>2015-09-13T10:29:25Z</time>
      </trkpt>
      <trkpt lat="50.92852296307683" lon="8.495411993935704">
        <ele>293.33999999999997</ele>
        <time>2015-09-13T10:29:27Z</time>
      </trkpt>
      <trkpt lat="50.930135976523161" lon="8.496041977778077">
        <ele>303.43000000000001</ele>
        <time>2015-09-13T10:29:36Z</time>
      </trkpt>
      <trkpt lat="50.930817006155849" lon="8.4961530379951">
        <ele>306.80000000000001</ele>
        <time>2015-09-13T10:29:39Z</time>
      </trkpt>
      <trkpt lat="50.93105798587203" lon="8.496178016066551">
        <ele>307.75999999999999</ele>
        <time>2015-09-13T10:29:40Z</time>
      </trkpt>
      <trkpt lat="50.931961974129081" lon="8.495647022500634">
        <ele>311.60000000000002</ele>
        <time>2015-09-13T10:29:44Z</time>
      </trkpt>
      <trkpt lat="50.932962018996477" lon="8.494664998725057">
        <ele>314.49000000000001</ele>
        <time>2015-09-13T10:29:49Z</time>
      </trkpt>
      <trkpt lat="50.933622010052204" lon="8.494482021778822">
        <ele>315.44999999999999</ele>
        <time>2015-09-13T10:29:52Z</time>
      </trkpt>
      <trkpt lat="50.934501020237803" lon="8.494871025905013">
        <ele>315.93000000000001</ele>
        <time>2015-09-13T10:29:56Z</time>
      </trkpt>
      <trkpt lat="50.93496898189187" lon="8.495314009487629">
        <ele>316.41000000000003</ele>
        <time>2015-09-13T10:29:58Z</time>
      </trkpt>
      <trkpt lat="50.936797996982932" lon="8.498000996187329">
        <ele>318.32999999999998</ele>
        <time>2015-09-13T10:30:07Z</time>
      </trkpt>
      <trkpt lat="50.937039982527494" lon="8.498210040852428">
        <ele>318.32999999999998</ele>
        <time>2015-09-13T10:30:08Z</time>
      </trkpt>
      <trkpt lat="50.938188973814249" lon="8.499347968026996">
        <ele>322.18000000000001</ele>
        <time>2015-09-13T10:30:14Z</time>
      </trkpt>
      <trkpt lat="50.939104026183486" lon="8.500270983204246">
        <ele>326.01999999999998</ele>
        <time>2015-09-13T10:30:21Z</time>
      </trkpt>
      <trkpt lat="50.939969038590789" lon="8.500776998698711">
        <ele>328.91000000000003</ele>
        <time>2015-09-13T10:30:30Z</time>
      </trkpt>
      <trkpt lat="50.940895993262529" lon="8.501240015029907">
        <ele>330.82999999999998</ele>
        <time>2015-09-13T10:30:39Z</time>
      </trkpt>
      <trkpt lat="50.941994022578001" lon="8.501464985311031">
        <ele>333.70999999999998</ele>
        <time>2015-09-13T10:30:49Z</time>
      </trkpt>
      <trkpt lat="50.942863980308175" lon="8.501619966700673">
        <ele>335.16000000000003</ele>
        <time>2015-09-13T10:30:57Z</time>
      </trkpt>
      <trkpt lat="50.942974034696817" lon="8.501609992235899">
        <ele>335.16000000000003</ele>
        <time>2015-09-13T10:30:58Z</time>
      </trkpt>
      <trkpt lat="50.943267988041043" lon="8.501435983926058">
        <ele>335.16000000000003</ele>
        <time>2015-09-13T10:31:01Z</time>
      </trkpt>
      <trkpt lat="50.94347502104938" lon="8.501358032226563">
        <ele>335.63999999999999</ele>
        <time>2015-09-13T10:31:03Z</time>
      </trkpt>
      <trkpt lat="50.943674007430673" lon="8.501318972557783">
        <ele>337.07999999999998</ele>
        <time>2015-09-13T10:31:06Z</time>
      </trkpt>
      <trkpt lat="50.943780038505793" lon="8.501213025301695">
        <ele>338.04000000000002</ele>
        <time>2015-09-13T10:31:08Z</time>
      </trkpt>
      <trkpt lat="50.944283036515117" lon="8.50053702481091">
        <ele>341.41000000000003</ele>
        <time>2015-09-13T10:31:17Z</time>
      </trkpt>
      <trkpt lat="50.944853005930781" lon="8.499867981299758">
        <ele>344.29000000000002</ele>
        <time>2015-09-13T10:31:26Z</time>
      </trkpt>
      <trkpt lat="50.945588015019894" lon="8.49937898106873">
        <ele>344.76999999999998</ele>
        <time>2015-09-13T10:31:36Z</time>
      </trkpt>
      <trkpt lat="50.945909963920712" lon="8.499514013528824">
        <ele>344.76999999999998</ele>
        <time>2015-09-13T10:31:40Z</time>
      </trkpt>
      <trkpt lat="50.946001997217536" lon="8.499531028792262">
        <ele>344.76999999999998</ele>
        <time>2015-09-13T10:31:41Z</time>
      </trkpt>
      <trkpt lat="50.946876984089613" lon="8.49967997521162">
        <ele>345.73000000000002</ele>
        <time>2015-09-13T10:31:47Z</time>
      </trkpt>
      <trkpt lat="50.948379021137953" lon="8.50006596185267">
        <ele>350.54000000000002</ele>
        <time>2015-09-13T10:31:56Z</time>
      </trkpt>
      <trkpt lat="50.948828039690852" lon="8.500024974346161">
        <ele>353.89999999999998</ele>
        <time>2015-09-13T10:31:59Z</time>
      </trkpt>
      <trkpt lat="50.949215032160282" lon="8.500014999881387">
        <ele>357.75</ele>
        <time>2015-09-13T10:32:02Z</time>
      </trkpt>
      <trkpt lat="50.949433967471123" lon="8.500025980174542">
        <ele>359.67000000000002</ele>
        <time>2015-09-13T10:32:04Z</time>
      </trkpt>
      <trkpt lat="50.949709983542562" lon="8.499900000169873">
        <ele>363.51999999999998</ele>
        <time>2015-09-13T10:32:07Z</time>
      </trkpt>
      <trkpt lat="50.950734000653028" lon="8.49937504157424">
        <ele>374.08999999999997</ele>
        <time>2015-09-13T10:32:16Z</time>
      </trkpt>
      <trkpt lat="50.951603036373854" lon="8.498989976942539">
        <ele>383.22000000000003</ele>
        <time>2015-09-13T10:32:24Z</time>
      </trkpt>
      <trkpt lat="50.951718036085367" lon="8.498932980000973">
        <ele>384.18000000000001</ele>
        <time>2015-09-13T10:32:25Z</time>
      </trkpt>
      <trkpt lat="50.95202598720789" lon="8.498658975586295">
        <ele>388.02999999999997</ele>
        <time>2015-09-13T10:32:28Z</time>
      </trkpt>
      <trkpt lat="50.95232698135078" lon="8.49841296672821">
        <ele>391.38999999999999</ele>
        <time>2015-09-13T10:32:31Z</time>
      </trkpt>
      <trkpt lat="50.952635016292334" lon="8.498362004756928">
        <ele>394.75999999999999</ele>
        <time>2015-09-13T10:32:34Z</time>
      </trkpt>
      <trkpt lat="50.953057967126369" lon="8.498378014191985">
        <ele>397.16000000000003</ele>
        <time>2015-09-13T10:32:38Z</time>
      </trkpt>
      <trkpt lat="50.953911999240518" lon="8.49858202971518">
        <ele>402.93000000000001</ele>
        <time>2015-09-13T10:32:45Z</time>
      </trkpt>
      <trkpt lat="50.954831996932626" lon="8.499302035197616">
        <ele>412.06</ele>
        <time>2015-09-13T10:32:53Z</time>
      </trkpt>
      <trkpt lat="50.955733973532915" lon="8.500052969902754">
        <ele>421.19</ele>
        <time>2015-09-13T10:33:01Z</time>
      </trkpt>
      <trkpt lat="50.955960033461452" lon="8.50042998790741">
        <ele>425.51999999999998</ele>
        <time>2015-09-13T10:33:04Z</time>
      </trkpt>
      <trkpt lat="50.956100011244416" lon="8.500661998987198">
        <ele>428.39999999999998</ele>
        <time>2015-09-13T10:33:06Z</time>
      </trkpt>
      <trkpt lat="50.956208975985646" lon="8.500968022271991">
        <ele>431.76999999999998</ele>
        <time>2015-09-13T10:33:08Z</time>
      </trkpt>
      <trkpt lat="50.956164970993996" lon="8.501585014164448">
        <ele>436.10000000000002</ele>
        <time>2015-09-13T10:33:11Z</time>
      </trkpt>
      <trkpt lat="50.956118032336235" lon="8.501738989725709">
        <ele>437.54000000000002</ele>
        <time>2015-09-13T10:33:12Z</time>
      </trkpt>
      <trkpt lat="50.955929020419717" lon="8.502360004931688">
        <ele>441.86000000000001</ele>
        <time>2015-09-13T10:33:16Z</time>
      </trkpt>
      <trkpt lat="50.955858025699854" lon="8.502688994631171">
        <ele>444.75</ele>
        <time>2015-09-13T10:33:19Z</time>
      </trkpt>
      <trkpt lat="50.95595701597631" lon="8.502964004874229">
        <ele>448.11000000000001</ele>
        <time>2015-09-13T10:33:23Z</time>
      </trkpt>
      <trkpt lat="50.956111997365952" lon="8.502898039296269">
        <ele>449.55000000000001</ele>
        <time>2015-09-13T10:33:25Z</time>
      </trkpt>
      <trkpt lat="50.956724965944886" lon="8.502635015174747">
        <ele>451.48000000000002</ele>
        <time>2015-09-13T10:33:30Z</time>
      </trkpt>
      <trkpt lat="50.957273980602622" lon="8.502590004354715">
        <ele>456.75999999999999</ele>
        <time>2015-09-13T10:33:34Z</time>
      </trkpt>
      <trkpt lat="50.957477996125817" lon="8.502583969384432">
        <ele>460.61000000000001</ele>
        <time>2015-09-13T10:33:36Z</time>
      </trkpt>
      <trkpt lat="50.957731967791915" lon="8.502266965806484">
        <ele>463.97000000000003</ele>
        <time>2015-09-13T10:33:38Z</time>
      </trkpt>
      <trkpt lat="50.957803968340158" lon="8.501878967508674">
        <ele>467.81999999999999</ele>
        <time>2015-09-13T10:33:41Z</time>
      </trkpt>
      <trkpt lat="50.957974037155509" lon="8.501632958650589">
        <ele>472.63</ele>
        <time>2015-09-13T10:33:44Z</time>
      </trkpt>
      <trkpt lat="50.958315012976527" lon="8.501747036352754">
        <ele>478.38999999999999</ele>
        <time>2015-09-13T10:33:47Z</time>
      </trkpt>
      <trkpt lat="50.958692030981183" lon="8.501574033871293">
        <ele>483.68000000000001</ele>
        <time>2015-09-13T10:33:50Z</time>
      </trkpt>
      <trkpt lat="50.959038035944104" lon="8.501106994226575">
        <ele>490.41000000000003</ele>
        <time>2015-09-13T10:33:54Z</time>
      </trkpt>
      <trkpt lat="50.959337018430233" lon="8.500968022271991">
        <ele>494.25999999999999</ele>
        <time>2015-09-13T10:33:57Z</time>
      </trkpt>
      <trkpt lat="50.959896007552743" lon="8.500782027840614">
        <ele>500.98000000000002</ele>
        <time>2015-09-13T10:34:02Z</time>
      </trkpt>
      <trkpt lat="50.960199013352394" lon="8.500947989523411">
        <ele>505.79000000000002</ele>
        <time>2015-09-13T10:34:05Z</time>
      </trkpt>
      <trkpt lat="50.960307978093624" lon="8.501008003950119">
        <ele>507.70999999999998</ele>
        <time>2015-09-13T10:34:06Z</time>
      </trkpt>
      <trkpt lat="50.960516016930342" lon="8.501211013644934">
        <ele>510.60000000000002</ele>
        <time>2015-09-13T10:34:08Z</time>
      </trkpt>
      <trkpt lat="50.960811981931329" lon="8.501819036900997">
        <ele>515.39999999999998</ele>
        <time>2015-09-13T10:34:12Z</time>
      </trkpt>
      <trkpt lat="50.960934022441506" lon="8.502090023830533">
        <ele>517.33000000000004</ele>
        <time>2015-09-13T10:34:14Z</time>
      </trkpt>
      <trkpt lat="50.961215989664197" lon="8.504793019965291">
        <ele>510.60000000000002</ele>
        <time>2015-09-13T10:34:30Z</time>
      </trkpt>
      <trkpt lat="50.961282039061189" lon="8.506154995411634">
        <ele>502.91000000000003</ele>
        <time>2015-09-13T10:34:39Z</time>
      </trkpt>
      <trkpt lat="50.961272986605763" lon="8.506294973194599">
        <ele>501.94999999999999</ele>
        <time>2015-09-13T10:34:40Z</time>
      </trkpt>
      <trkpt lat="50.96126502379775" lon="8.506432017311454">
        <ele>500.98000000000002</ele>
        <time>2015-09-13T10:34:41Z</time>
      </trkpt>
      <trkpt lat="50.961141977459192" lon="8.507337011396885">
        <ele>492.32999999999998</ele>
        <time>2015-09-13T10:34:47Z</time>
      </trkpt>
      <trkpt lat="50.961087998002768" lon="8.507732972502708">
        <ele>488.00999999999999</ele>
        <time>2015-09-13T10:34:50Z</time>
      </trkpt>
      <trkpt lat="50.961070982739329" lon="8.507859958335757">
        <ele>484.63999999999999</ele>
        <time>2015-09-13T10:34:53Z</time>
      </trkpt>
      <trkpt lat="50.960740987211466" lon="8.508740980178118">
        <ele>478.38999999999999</ele>
        <time>2015-09-13T10:34:58Z</time>
      </trkpt>
      <trkpt lat="50.961572974920273" lon="8.510538982227445">
        <ele>468.30000000000001</ele>
        <time>2015-09-13T10:35:12Z</time>
      </trkpt>
      <trkpt lat="50.962370010092854" lon="8.511079028248787">
        <ele>463.97000000000003</ele>
        <time>2015-09-13T10:35:20Z</time>
      </trkpt>
      <trkpt lat="50.96306998282671" lon="8.510821033269167">
        <ele>458.20999999999998</ele>
        <time>2015-09-13T10:35:27Z</time>
      </trkpt>
      <trkpt lat="50.963698038831353" lon="8.511004010215402">
        <ele>452.92000000000002</ele>
        <time>2015-09-13T10:35:34Z</time>
      </trkpt>
      <trkpt lat="50.964763965457678" lon="8.512389035895467">
        <ele>450.02999999999997</ele>
        <time>2015-09-13T10:35:46Z</time>
      </trkpt>
      <trkpt lat="50.965501992031932" lon="8.513232003897429">
        <ele>445.70999999999998</ele>
        <time>2015-09-13T10:35:56Z</time>
      </trkpt>
      <trkpt lat="50.965774990618229" lon="8.513464014977217">
        <ele>444.26999999999998</ele>
        <time>2015-09-13T10:35:59Z</time>
      </trkpt>
      <trkpt lat="50.967343999072909" lon="8.514124006032944">
        <ele>441.38</ele>
        <time>2015-09-13T10:36:12Z</time>
      </trkpt>
      <trkpt lat="50.968491984531283" lon="8.514097016304731">
        <ele>441.86000000000001</ele>
        <time>2015-09-13T10:36:21Z</time>
      </trkpt>
      <trkpt lat="50.968734975904226" lon="8.514101961627603">
        <ele>440.89999999999998</ele>
        <time>2015-09-13T10:36:23Z</time>
      </trkpt>
      <trkpt lat="50.970422001555562" lon="8.515587989240885">
        <ele>437.06</ele>
        <time>2015-09-13T10:36:39Z</time>
      </trkpt>
      <trkpt lat="50.970704974606633" lon="8.516314029693604">
        <ele>433.69</ele>
        <time>2015-09-13T10:36:42Z</time>
      </trkpt>
      <trkpt lat="50.970704974606633" lon="8.516314029693604">
        <ele>431.76999999999998</ele>
        <time>2015-09-13T10:36:43Z</time>
      </trkpt>
      <trkpt lat="50.970612019300461" lon="8.516558026894927">
        <ele>427.92000000000002</ele>
        <time>2015-09-13T10:36:46Z</time>
      </trkpt>
      <trkpt lat="50.97007499076426" lon="8.517264034599066">
        <ele>422.63999999999999</ele>
        <time>2015-09-13T10:36:54Z</time>
      </trkpt>
      <trkpt lat="50.969632007181644" lon="8.51789703592658">
        <ele>417.35000000000002</ele>
        <time>2015-09-13T10:37:01Z</time>
      </trkpt>
      <trkpt lat="50.969743989408016" lon="8.518084958195686">
        <ele>414.94999999999999</ele>
        <time>2015-09-13T10:37:05Z</time>
      </trkpt>
      <trkpt lat="50.969796041026711" lon="8.518051011487842">
        <ele>414.47000000000003</ele>
        <time>2015-09-13T10:37:06Z</time>
      </trkpt>
      <trkpt lat="50.970154032111168" lon="8.517682962119579">
        <ele>412.54000000000002</ele>
        <time>2015-09-13T10:37:11Z</time>
      </trkpt>
      <trkpt lat="50.970818968489766" lon="8.517322959378362">
        <ele>409.66000000000003</ele>
        <time>2015-09-13T10:37:18Z</time>
      </trkpt>
      <trkpt lat="50.970930028706789" lon="8.517266968265176">
        <ele>409.18000000000001</ele>
        <time>2015-09-13T10:37:19Z</time>
      </trkpt>
      <trkpt lat="50.972425024956465" lon="8.516914006322622">
        <ele>406.29000000000002</ele>
        <time>2015-09-13T10:37:31Z</time>
      </trkpt>
      <trkpt lat="50.973058026283979" lon="8.516723988577724">
        <ele>405.32999999999998</ele>
        <time>2015-09-13T10:37:39Z</time>
      </trkpt>
      <trkpt lat="50.973327001556754" lon="8.516635978594422">
        <ele>404.85000000000002</ele>
        <time>2015-09-13T10:37:42Z</time>
      </trkpt>
      <trkpt lat="50.973426997661591" lon="8.516627009958029">
        <ele>404.37</ele>
        <time>2015-09-13T10:37:43Z</time>
      </trkpt>
      <trkpt lat="50.974044995382428" lon="8.516572024673224">
        <ele>401.97000000000003</ele>
        <time>2015-09-13T10:37:49Z</time>
      </trkpt>
      <trkpt lat="50.97482199780643" lon="8.516219984740019">
        <ele>396.19999999999999</ele>
        <time>2015-09-13T10:37:56Z</time>
      </trkpt>
      <trkpt lat="50.974936997517943" lon="8.516155024990439">
        <ele>395.72000000000003</ele>
        <time>2015-09-13T10:37:57Z</time>
      </trkpt>
      <trkpt lat="50.975310998037457" lon="8.516207998618484">
        <ele>393.80000000000001</ele>
        <time>2015-09-13T10:38:00Z</time>
      </trkpt>
      <trkpt lat="50.975450975820422" lon="8.516272958368063">
        <ele>393.80000000000001</ele>
        <time>2015-09-13T10:38:01Z</time>
      </trkpt>
      <trkpt lat="50.975604029372334" lon="8.51637102663517">
        <ele>393.31999999999999</ele>
        <time>2015-09-13T10:38:02Z</time>
      </trkpt>
      <trkpt lat="50.977059965953231" lon="8.517282977700234">
        <ele>395.72000000000003</ele>
        <time>2015-09-13T10:38:10Z</time>
      </trkpt>
      <trkpt lat="50.977590037509799" lon="8.518214039504528">
        <ele>396.68000000000001</ele>
        <time>2015-09-13T10:38:14Z</time>
      </trkpt>
      <trkpt lat="50.977685004472733" lon="8.518500030040741">
        <ele>396.68000000000001</ele>
        <time>2015-09-13T10:38:15Z</time>
      </trkpt>
      <trkpt lat="50.978141985833645" lon="8.519871979951859">
        <ele>396.19999999999999</ele>
        <time>2015-09-13T10:38:20Z</time>
      </trkpt>
      <trkpt lat="50.978823015466332" lon="8.520554015412927">
        <ele>392.83999999999997</ele>
        <time>2015-09-13T10:38:24Z</time>
      </trkpt>
      <trkpt lat="50.979434978216887" lon="8.520932961255312">
        <ele>388.50999999999999</ele>
        <time>2015-09-13T10:38:27Z</time>
      </trkpt>
      <trkpt lat="50.97963597625494" lon="8.521057013422251">
        <ele>387.06999999999999</ele>
        <time>2015-09-13T10:38:28Z</time>
      </trkpt>
      <trkpt lat="50.979997990652919" lon="8.521540984511375">
        <ele>384.18000000000001</ele>
        <time>2015-09-13T10:38:30Z</time>
      </trkpt>
      <trkpt lat="50.980568965896964" lon="8.522157976403832">
        <ele>380.81999999999999</ele>
        <time>2015-09-13T10:38:33Z</time>
      </trkpt>
      <trkpt lat="50.980939026921988" lon="8.522557038813829">
        <ele>378.89999999999998</ele>
        <time>2015-09-13T10:38:35Z</time>
      </trkpt>
      <trkpt lat="50.98150203935802" lon="8.523474019020796">
        <ele>376.97000000000003</ele>
        <time>2015-09-13T10:38:39Z</time>
      </trkpt>
      <trkpt lat="50.982249034568667" lon="8.523952038958669">
        <ele>377.44999999999999</ele>
        <time>2015-09-13T10:38:43Z</time>
      </trkpt>
      <trkpt lat="50.982437040656805" lon="8.524047005921602">
        <ele>377.94</ele>
        <time>2015-09-13T10:38:44Z</time>
      </trkpt>
      <trkpt lat="50.982798971235752" lon="8.524712026119232">
        <ele>380.81999999999999</ele>
        <time>2015-09-13T10:38:47Z</time>
      </trkpt>
      <trkpt lat="50.982899973168969" lon="8.524930039420724">
        <ele>381.77999999999997</ele>
        <time>2015-09-13T10:38:48Z</time>
      </trkpt>
      <trkpt lat="50.983090996742249" lon="8.525753980502486">
        <ele>386.11000000000001</ele>
        <time>2015-09-13T10:38:51Z</time>
      </trkpt>
      <trkpt lat="50.983154028654099" lon="8.526039971038699">
        <ele>387.55000000000001</ele>
        <time>2015-09-13T10:38:52Z</time>
      </trkpt>
      <trkpt lat="50.984277036041021" lon="8.528370978310704">
        <ele>408.22000000000003</ele>
        <time>2015-09-13T10:39:01Z</time>
      </trkpt>
      <trkpt lat="50.984679032117128" lon="8.52915502153337">
        <ele>414.47000000000003</ele>
        <time>2015-09-13T10:39:04Z</time>
      </trkpt>
      <trkpt lat="50.984801994636655" lon="8.529432965442538">
        <ele>415.91000000000003</ele>
        <time>2015-09-13T10:39:05Z</time>
      </trkpt>
      <trkpt lat="50.985010033473372" lon="8.530387999489904">
        <ele>419.26999999999998</ele>
        <time>2015-09-13T10:39:08Z</time>
      </trkpt>
      <trkpt lat="50.985074993222952" lon="8.530722018331289">
        <ele>419.75</ele>
        <time>2015-09-13T10:39:09Z</time>
      </trkpt>
      <trkpt lat="50.98571696318686" lon="8.534023985266686">
        <ele>418.31</ele>
        <time>2015-09-13T10:39:19Z</time>
      </trkpt>
      <trkpt lat="50.985878985375166" lon="8.534262031316757">
        <ele>417.82999999999998</ele>
        <time>2015-09-13T10:39:20Z</time>
      </trkpt>
      <trkpt lat="50.986043019220233" lon="8.534485995769501">
        <ele>416.87</ele>
        <time>2015-09-13T10:39:21Z</time>
      </trkpt>
      <trkpt lat="50.987224029377103" lon="8.536602007225156">
        <ele>404.37</ele>
        <time>2015-09-13T10:39:30Z</time>
      </trkpt>
      <trkpt lat="50.988031961023808" lon="8.538795970380306">
        <ele>387.55000000000001</ele>
        <time>2015-09-13T10:39:39Z</time>
      </trkpt>
      <trkpt lat="50.988218961283565" lon="8.539270972833037">
        <ele>383.22000000000003</ele>
        <time>2015-09-13T10:39:41Z</time>
      </trkpt>
      <trkpt lat="50.988302025943995" lon="8.539541037753224">
        <ele>381.30000000000001</ele>
        <time>2015-09-13T10:39:42Z</time>
      </trkpt>
      <trkpt lat="50.98840001039207" lon="8.540143026039004">
        <ele>376.97000000000003</ele>
        <time>2015-09-13T10:39:44Z</time>
      </trkpt>
      <trkpt lat="50.988924968987703" lon="8.542814003303647">
        <ele>362.55000000000001</ele>
        <time>2015-09-13T10:39:54Z</time>
      </trkpt>
      <trkpt lat="50.989234009757638" lon="8.543653031811118">
        <ele>357.75</ele>
        <time>2015-09-13T10:39:58Z</time>
      </trkpt>
      <trkpt lat="50.98949602805078" lon="8.544859020039439">
        <ele>350.54000000000002</ele>
        <time>2015-09-13T10:40:04Z</time>
      </trkpt>
      <trkpt lat="50.989743964746594" lon="8.546551996842027">
        <ele>339.95999999999998</ele>
        <time>2015-09-13T10:40:14Z</time>
      </trkpt>
      <trkpt lat="50.989927025511861" lon="8.547570984810591">
        <ele>335.16000000000003</ele>
        <time>2015-09-13T10:40:23Z</time>
      </trkpt>
      <trkpt lat="50.989953009411693" lon="8.547707023099065">
        <ele>335.16000000000003</ele>
        <time>2015-09-13T10:40:26Z</time>
      </trkpt>
      <trkpt lat="50.99044100381434" lon="8.547011995688081">
        <ele>333.70999999999998</ele>
        <time>2015-09-13T10:40:36Z</time>
      </trkpt>
      <trkpt lat="50.99052700214088" lon="8.54694502428174">
        <ele>333.70999999999998</ele>
        <time>2015-09-13T10:40:37Z</time>
      </trkpt>
      <trkpt lat="50.990704027935863" lon="8.546804962679744">
        <ele>334.19999999999999</ele>
        <time>2015-09-13T10:40:39Z</time>
      </trkpt>
      <trkpt lat="50.991256982088089" lon="8.546662973240018">
        <ele>337.07999999999998</ele>
        <time>2015-09-13T10:40:45Z</time>
      </trkpt>
      <trkpt lat="50.991460997611284" lon="8.546678982675076">
        <ele>338.04000000000002</ele>
        <time>2015-09-13T10:40:47Z</time>
      </trkpt>
      <trkpt lat="50.991664007306099" lon="8.54677202180028">
        <ele>339.95999999999998</ele>
        <time>2015-09-13T10:40:49Z</time>
      </trkpt>
      <trkpt lat="50.992733035236597" lon="8.547981027513742">
        <ele>345.73000000000002</ele>
        <time>2015-09-13T10:41:01Z</time>
      </trkpt>
      <trkpt lat="50.992840994149446" lon="8.548035006970167">
        <ele>345.73000000000002</ele>
        <time>2015-09-13T10:41:02Z</time>
      </trkpt>
      <trkpt lat="50.993152968585491" lon="8.547929981723428">
        <ele>346.69</ele>
        <time>2015-09-13T10:41:05Z</time>
      </trkpt>
      <trkpt lat="50.993252964690328" lon="8.547820011153817">
        <ele>346.69</ele>
        <time>2015-09-13T10:41:06Z</time>
      </trkpt>
      <trkpt lat="50.993568040430546" lon="8.547280970960856">
        <ele>348.62</ele>
        <time>2015-09-13T10:41:10Z</time>
      </trkpt>
      <trkpt lat="50.99409501068294" lon="8.545690001919866">
        <ele>352.45999999999998</ele>
        <time>2015-09-13T10:41:20Z</time>
      </trkpt>
      <trkpt lat="50.994449984282255" lon="8.54430103674531">
        <ele>351.5</ele>
        <time>2015-09-13T10:41:28Z</time>
      </trkpt>
      <trkpt lat="50.994852986186743" lon="8.541813958436251">
        <ele>347.64999999999998</ele>
        <time>2015-09-13T10:41:41Z</time>
      </trkpt>
      <trkpt lat="50.995141994208097" lon="8.539282958954573">
        <ele>344.76999999999998</ele>
        <time>2015-09-13T10:41:54Z</time>
      </trkpt>
      <trkpt lat="50.995385991409421" lon="8.537568021565676">
        <ele>345.73000000000002</ele>
        <time>2015-09-13T10:42:03Z</time>
      </trkpt>
      <trkpt lat="50.995954032987356" lon="8.534714989364147">
        <ele>348.62</ele>
        <time>2015-09-13T10:42:18Z</time>
      </trkpt>
      <trkpt lat="50.995710035786033" lon="8.533704970031977">
        <ele>349.57999999999998</ele>
        <time>2015-09-13T10:42:23Z</time>
      </trkpt>
      <trkpt lat="50.99555698223412" lon="8.533344967290759">
        <ele>349.57999999999998</ele>
        <time>2015-09-13T10:42:25Z</time>
      </trkpt>
      <trkpt lat="50.994447972625494" lon="8.530911030247808">
        <ele>351.01999999999998</ele>
        <time>2015-09-13T10:42:38Z</time>
      </trkpt>
      <trkpt lat="50.993927037343383" lon="8.527880972251296">
        <ele>353.42000000000002</ele>
        <time>2015-09-13T10:42:53Z</time>
      </trkpt>
      <trkpt lat="50.993907004594803" lon="8.527734037488699">
        <ele>353.42000000000002</ele>
        <time>2015-09-13T10:42:54Z</time>
      </trkpt>
      <trkpt lat="50.994123006239533" lon="8.527312008664012">
        <ele>353.42000000000002</ele>
        <time>2015-09-13T10:42:57Z</time>
      </trkpt>
      <trkpt lat="50.994407990947366" lon="8.526758970692754">
        <ele>352.94</ele>
        <time>2015-09-13T10:43:00Z</time>
      </trkpt>
      <trkpt lat="50.995530998334289" lon="8.525263974443078">
        <ele>351.98000000000002</ele>
        <time>2015-09-13T10:43:08Z</time>
      </trkpt>
      <trkpt lat="50.996214039623737" lon="8.52488100528717">
        <ele>352.94</ele>
        <time>2015-09-13T10:43:12Z</time>
      </trkpt>
      <trkpt lat="50.996804041787982" lon="8.524072989821434">
        <ele>353.89999999999998</ele>
        <time>2015-09-13T10:43:16Z</time>
      </trkpt>
      <trkpt lat="50.998060991987586" lon="8.522325027734041">
        <ele>358.23000000000002</ele>
        <time>2015-09-13T10:43:24Z</time>
      </trkpt>
      <trkpt lat="51.000070972368121" lon="8.520682007074356">
        <ele>364.95999999999998</ele>
        <time>2015-09-13T10:43:35Z</time>
      </trkpt>
      <trkpt lat="51.000234000384808" lon="8.520474974066019">
        <ele>365.44</ele>
        <time>2015-09-13T10:43:36Z</time>
      </trkpt>
      <trkpt lat="51.001457003876567" lon="8.518861038610339">
        <ele>368.80000000000001</ele>
        <time>2015-09-13T10:43:44Z</time>
      </trkpt>
      <trkpt lat="51.001576026901603" lon="8.518622992560267">
        <ele>368.80000000000001</ele>
        <time>2015-09-13T10:43:45Z</time>
      </trkpt>
      <trkpt lat="51.001909039914608" lon="8.517957972362638">
        <ele>368.80000000000001</ele>
        <time>2015-09-13T10:43:48Z</time>
      </trkpt>
      <trkpt lat="51.003017965704203" lon="8.516788026317954">
        <ele>368.31999999999999</ele>
        <time>2015-09-13T10:43:56Z</time>
      </trkpt>
      <trkpt lat="51.003102036193013" lon="8.516605971381068">
        <ele>368.31999999999999</ele>
        <time>2015-09-13T10:43:57Z</time>
      </trkpt>
      <trkpt lat="51.003663958981633" lon="8.515392020344734">
        <ele>366.39999999999998</ele>
        <time>2015-09-13T10:44:03Z</time>
      </trkpt>
      <trkpt lat="51.004132004454732" lon="8.514927998185158">
        <ele>365.44</ele>
        <time>2015-09-13T10:44:06Z</time>
      </trkpt>
      <trkpt lat="51.004871036857367" lon="8.514679977670312">
        <ele>364</ele>
        <time>2015-09-13T10:44:10Z</time>
      </trkpt>
      <trkpt lat="51.005362970754504" lon="8.514382001012564">
        <ele>363.51999999999998</ele>
        <time>2015-09-13T10:44:13Z</time>
      </trkpt>
      <trkpt lat="51.006075013428926" lon="8.514363979920745">
        <ele>364.48000000000002</ele>
        <time>2015-09-13T10:44:18Z</time>
      </trkpt>
      <trkpt lat="51.006197975948453" lon="8.514350987970829">
        <ele>364.48000000000002</ele>
        <time>2015-09-13T10:44:19Z</time>
      </trkpt>
      <trkpt lat="51.006324039772153" lon="8.514293991029263">
        <ele>364.48000000000002</ele>
        <time>2015-09-13T10:44:20Z</time>
      </trkpt>
      <trkpt lat="51.006856961175799" lon="8.514062985777855">
        <ele>364.95999999999998</ele>
        <time>2015-09-13T10:44:24Z</time>
      </trkpt>
      <trkpt lat="51.007792968302965" lon="8.513270979747176">
        <ele>365.92000000000002</ele>
        <time>2015-09-13T10:44:31Z</time>
      </trkpt>
      <trkpt lat="51.00947798229754" lon="8.512538988143206">
        <ele>367.36000000000001</ele>
        <time>2015-09-13T10:44:43Z</time>
      </trkpt>
      <trkpt lat="51.009609997272491" lon="8.51244100369513">
        <ele>367.36000000000001</ele>
        <time>2015-09-13T10:44:44Z</time>
      </trkpt>
      <trkpt lat="51.011040033772588" lon="8.511285977438092">
        <ele>368.80000000000001</ele>
        <time>2015-09-13T10:44:55Z</time>
      </trkpt>
      <trkpt lat="51.011168025434017" lon="8.511226968839765">
        <ele>368.80000000000001</ele>
        <time>2015-09-13T10:44:56Z</time>
      </trkpt>
      <trkpt lat="51.011871015653014" lon="8.510843999683857">
        <ele>370.73000000000002</ele>
        <time>2015-09-13T10:45:02Z</time>
      </trkpt>
      <trkpt lat="51.013181023299694" lon="8.509521000087261">
        <ele>373.13</ele>
        <time>2015-09-13T10:45:13Z</time>
      </trkpt>
      <trkpt lat="51.014576023444533" lon="8.508860003203154">
        <ele>373.61000000000001</ele>
        <time>2015-09-13T10:45:24Z</time>
      </trkpt>
      <trkpt lat="51.015969011932611" lon="8.508420959115028">
        <ele>373.13</ele>
        <time>2015-09-13T10:45:35Z</time>
      </trkpt>
      <trkpt lat="51.016461029648781" lon="8.508501006290317">
        <ele>373.61000000000001</ele>
        <time>2015-09-13T10:45:39Z</time>
      </trkpt>
      <trkpt lat="51.017886959016323" lon="8.509600963443518">
        <ele>375.05000000000001</ele>
        <time>2015-09-13T10:45:50Z</time>
      </trkpt>
      <trkpt lat="51.020613005384803" lon="8.511747987940908">
        <ele>378.42000000000002</ele>
        <time>2015-09-13T10:46:12Z</time>
      </trkpt>
      <trkpt lat="51.021665018051863" lon="8.512323992326856">
        <ele>379.38</ele>
        <time>2015-09-13T10:46:23Z</time>
      </trkpt>
      <trkpt lat="51.021941034123302" lon="8.512194994837046">
        <ele>379.86000000000001</ele>
        <time>2015-09-13T10:46:26Z</time>
      </trkpt>
      <trkpt lat="51.022700015455484" lon="8.51149502210319">
        <ele>380.81999999999999</ele>
        <time>2015-09-13T10:46:35Z</time>
      </trkpt>
      <trkpt lat="51.022961027920246" lon="8.510721959173679">
        <ele>380.33999999999997</ele>
        <time>2015-09-13T10:46:41Z</time>
      </trkpt>
      <trkpt lat="51.023161020129919" lon="8.510279981419444">
        <ele>380.81999999999999</ele>
        <time>2015-09-13T10:46:45Z</time>
      </trkpt>
      <trkpt lat="51.023547006770968" lon="8.509927019476891">
        <ele>382.74000000000001</ele>
        <time>2015-09-13T10:46:51Z</time>
      </trkpt>
      <trkpt lat="51.023717997595668" lon="8.509513959288597">
        <ele>384.66000000000003</ele>
        <time>2015-09-13T10:46:55Z</time>
      </trkpt>
      <trkpt lat="51.024059979245067" lon="8.509490992873907">
        <ele>386.11000000000001</ele>
        <time>2015-09-13T10:46:59Z</time>
      </trkpt>
      <trkpt lat="51.024213032796979" lon="8.509556958451867">
        <ele>388.50999999999999</ele>
        <time>2015-09-13T10:47:01Z</time>
      </trkpt>
      <trkpt lat="51.024616034701467" lon="8.509780000895262">
        <ele>392.83999999999997</ele>
        <time>2015-09-13T10:47:05Z</time>
      </trkpt>
      <trkpt lat="51.024715024977922" lon="8.509833980351687">
        <ele>393.31999999999999</ele>
        <time>2015-09-13T10:47:06Z</time>
      </trkpt>
      <trkpt lat="51.025838032364845" lon="8.510056016966701">
        <ele>394.27999999999997</ele>
        <time>2015-09-13T10:47:14Z</time>
      </trkpt>
      <trkpt lat="51.026986017823219" lon="8.510242011398077">
        <ele>394.27999999999997</ele>
        <time>2015-09-13T10:47:22Z</time>
      </trkpt>
      <trkpt lat="51.028417982161045" lon="8.510453989729285">
        <ele>395.24000000000001</ele>
        <time>2015-09-13T10:47:34Z</time>
      </trkpt>
      <trkpt lat="51.029233960434794" lon="8.511028988286853">
        <ele>396.19999999999999</ele>
        <time>2015-09-13T10:47:42Z</time>
      </trkpt>
      <trkpt lat="51.030053040012717" lon="8.510419959202409">
        <ele>398.12</ele>
        <time>2015-09-13T10:47:47Z</time>
      </trkpt>
      <trkpt lat="51.032408019527793" lon="8.509242972359061">
        <ele>403.41000000000003</ele>
        <time>2015-09-13T10:48:00Z</time>
      </trkpt>
      <trkpt lat="51.03493801318109" lon="8.509101988747716">
        <ele>407.25999999999999</ele>
        <time>2015-09-13T10:48:14Z</time>
      </trkpt>
      <trkpt lat="51.035099029541016" lon="8.509116992354393">
        <ele>407.25999999999999</ele>
        <time>2015-09-13T10:48:15Z</time>
      </trkpt>
      <trkpt lat="51.035413015633821" lon="8.509047003462911">
        <ele>408.22000000000003</ele>
        <time>2015-09-13T10:48:17Z</time>
      </trkpt>
      <trkpt lat="51.035844013094902" lon="8.5088109690696">
        <ele>408.69999999999999</ele>
        <time>2015-09-13T10:48:20Z</time>
      </trkpt>
      <trkpt lat="51.037169024348259" lon="8.507179012522101">
        <ele>408.22000000000003</ele>
        <time>2015-09-13T10:48:30Z</time>
      </trkpt>
      <trkpt lat="51.038682963699102" lon="8.505505984649062">
        <ele>413.01999999999998</ele>
        <time>2015-09-13T10:48:40Z</time>
      </trkpt>
      <trkpt lat="51.039259973913431" lon="8.505025031045079">
        <ele>413.98000000000002</ele>
        <time>2015-09-13T10:48:44Z</time>
      </trkpt>
      <trkpt lat="51.039977967739105" lon="8.504242999479175">
        <ele>413.98000000000002</ele>
        <time>2015-09-13T10:48:51Z</time>
      </trkpt>
      <trkpt lat="51.040447019040585" lon="8.503830023109913">
        <ele>413.5</ele>
        <time>2015-09-13T10:48:56Z</time>
      </trkpt>
      <trkpt lat="51.040537040680647" lon="8.503703037276864">
        <ele>413.5</ele>
        <time>2015-09-13T10:48:57Z</time>
      </trkpt>
      <trkpt lat="51.041184961795807" lon="8.503291988745332">
        <ele>411.10000000000002</ele>
        <time>2015-09-13T10:49:02Z</time>
      </trkpt>
      <trkpt lat="51.041826009750366" lon="8.503656014800072">
        <ele>411.57999999999998</ele>
        <time>2015-09-13T10:49:06Z</time>
      </trkpt>
      <trkpt lat="51.043151021003723" lon="8.505150005221367">
        <ele>419.26999999999998</ele>
        <time>2015-09-13T10:49:15Z</time>
      </trkpt>
      <trkpt lat="51.043839007616043" lon="8.506224984303117">
        <ele>422.63999999999999</ele>
        <time>2015-09-13T10:49:21Z</time>
      </trkpt>
      <trkpt lat="51.044089961796999" lon="8.506378959864378">
        <ele>423.60000000000002</ele>
        <time>2015-09-13T10:49:23Z</time>
      </trkpt>
      <trkpt lat="51.045010965317488" lon="8.506555985659361">
        <ele>424.56</ele>
        <time>2015-09-13T10:49:29Z</time>
      </trkpt>
      <trkpt lat="51.045857034623623" lon="8.506606025621295">
        <ele>424.56</ele>
        <time>2015-09-13T10:49:34Z</time>
      </trkpt>
      <trkpt lat="51.046387022361159" lon="8.50683300755918">
        <ele>425.51999999999998</ele>
        <time>2015-09-13T10:49:37Z</time>
      </trkpt>
      <trkpt lat="51.04701298289001" lon="8.507503978908062">
        <ele>426</ele>
        <time>2015-09-13T10:49:41Z</time>
      </trkpt>
      <trkpt lat="51.047690995037556" lon="8.508805017918348">
        <ele>427.44</ele>
        <time>2015-09-13T10:49:47Z</time>
      </trkpt>
      <trkpt lat="51.048228023573756" lon="8.509197039529681">
        <ele>426.95999999999998</ele>
        <time>2015-09-13T10:49:51Z</time>
      </trkpt>
      <trkpt lat="51.048444025218487" lon="8.509844960644841">
        <ele>424.56</ele>
        <time>2015-09-13T10:49:55Z</time>
      </trkpt>
      <trkpt lat="51.048542009666562" lon="8.510236982256174">
        <ele>423.12</ele>
        <time>2015-09-13T10:49:57Z</time>
      </trkpt>
      <trkpt lat="51.048900000751019" lon="8.510771999135613">
        <ele>421.68000000000001</ele>
        <time>2015-09-13T10:50:01Z</time>
      </trkpt>
      <trkpt lat="51.049022041261196" lon="8.510869983583689">
        <ele>421.19</ele>
        <time>2015-09-13T10:50:02Z</time>
      </trkpt>
      <trkpt lat="51.049842964857817" lon="8.511607004329562">
        <ele>422.16000000000003</ele>
        <time>2015-09-13T10:50:09Z</time>
      </trkpt>
      <trkpt lat="51.049946984276175" lon="8.511755028739572">
        <ele>422.16000000000003</ele>
        <time>2015-09-13T10:50:10Z</time>
      </trkpt>
      <trkpt lat="51.051121959462762" lon="8.513417998328805">
        <ele>425.04000000000002</ele>
        <time>2015-09-13T10:50:21Z</time>
      </trkpt>
      <trkpt lat="51.051797037944198" lon="8.513828041031957">
        <ele>426.48000000000002</ele>
        <time>2015-09-13T10:50:26Z</time>
      </trkpt>
      <trkpt lat="51.052259970456362" lon="8.514207992702723">
        <ele>427.92000000000002</ele>
        <time>2015-09-13T10:50:30Z</time>
      </trkpt>
      <trkpt lat="51.052361978217959" lon="8.514333972707391">
        <ele>427.92000000000002</ele>
        <time>2015-09-13T10:50:31Z</time>
      </trkpt>
      <trkpt lat="51.053614988923073" lon="8.516062991693616">
        <ele>429.85000000000002</ele>
        <time>2015-09-13T10:50:44Z</time>
      </trkpt>
      <trkpt lat="51.054303981363773" lon="8.517150962725282">
        <ele>429.85000000000002</ele>
        <time>2015-09-13T10:50:54Z</time>
      </trkpt>
      <trkpt lat="51.054671024903655" lon="8.517431002110243">
        <ele>430.32999999999998</ele>
        <time>2015-09-13T10:50:58Z</time>
      </trkpt>
      <trkpt lat="51.054770015180111" lon="8.517515994608402">
        <ele>429.85000000000002</ele>
        <time>2015-09-13T10:50:59Z</time>
      </trkpt>
      <trkpt lat="51.05674697086215" lon="8.520455025136471">
        <ele>430.81</ele>
        <time>2015-09-13T10:51:21Z</time>
      </trkpt>
      <trkpt lat="51.057177968323231" lon="8.521225992590189">
        <ele>430.81</ele>
        <time>2015-09-13T10:51:26Z</time>
      </trkpt>
      <trkpt lat="51.060444982722402" lon="8.524367026984692">
        <ele>438.01999999999998</ele>
        <time>2015-09-13T10:51:49Z</time>
      </trkpt>
      <trkpt lat="51.06147101148963" lon="8.525069011375308">
        <ele>440.89999999999998</ele>
        <time>2015-09-13T10:51:57Z</time>
      </trkpt>
      <trkpt lat="51.063130041584373" lon="8.525173030793667">
        <ele>444.26999999999998</ele>
        <time>2015-09-13T10:52:11Z</time>
      </trkpt>
      <trkpt lat="51.063531031832099" lon="8.525103041902185">
        <ele>445.23000000000002</ele>
        <time>2015-09-13T10:52:14Z</time>
      </trkpt>
      <trkpt lat="51.064816983416677" lon="8.523685997352004">
        <ele>445.23000000000002</ele>
        <time>2015-09-13T10:52:23Z</time>
      </trkpt>
      <trkpt lat="51.064970958977938" lon="8.52350402623415">
        <ele>445.70999999999998</ele>
        <time>2015-09-13T10:52:24Z</time>
      </trkpt>
      <trkpt lat="51.066581038758159" lon="8.522182032465935">
        <ele>447.14999999999998</ele>
        <time>2015-09-13T10:52:35Z</time>
      </trkpt>
      <trkpt lat="51.066832998767495" lon="8.522154958918691">
        <ele>447.63</ele>
        <time>2015-09-13T10:52:37Z</time>
      </trkpt>
      <trkpt lat="51.067284028977156" lon="8.521725973114371">
        <ele>448.11000000000001</ele>
        <time>2015-09-13T10:52:41Z</time>
      </trkpt>
      <trkpt lat="51.067750984802842" lon="8.520770017057657">
        <ele>448.11000000000001</ele>
        <time>2015-09-13T10:52:46Z</time>
      </trkpt>
      <trkpt lat="51.068681962788105" lon="8.519192039966583">
        <ele>449.55000000000001</ele>
        <time>2015-09-13T10:52:55Z</time>
      </trkpt>
      <trkpt lat="51.068753041327" lon="8.518986012786627">
        <ele>450.02999999999997</ele>
        <time>2015-09-13T10:52:56Z</time>
      </trkpt>
      <trkpt lat="51.069389982149005" lon="8.517048032954335">
        <ele>453.88</ele>
        <time>2015-09-13T10:53:04Z</time>
      </trkpt>
      <trkpt lat="51.070376029238105" lon="8.514727000147104">
        <ele>457.24000000000001</ele>
        <time>2015-09-13T10:53:14Z</time>
      </trkpt>
      <trkpt lat="51.070424979552627" lon="8.514478979632258">
        <ele>457.24000000000001</ele>
        <time>2015-09-13T10:53:15Z</time>
      </trkpt>
      <trkpt lat="51.070403018966317" lon="8.513706000521779">
        <ele>457.72000000000003</ele>
        <time>2015-09-13T10:53:18Z</time>
      </trkpt>
      <trkpt lat="51.070275027304888" lon="8.512962022796273">
        <ele>458.20999999999998</ele>
        <time>2015-09-13T10:53:21Z</time>
      </trkpt>
      <trkpt lat="51.070382986217737" lon="8.511885032057762">
        <ele>458.20999999999998</ele>
        <time>2015-09-13T10:53:25Z</time>
      </trkpt>
      <trkpt lat="51.070905011147261" lon="8.509172983467579">
        <ele>458.20999999999998</ele>
        <time>2015-09-13T10:53:33Z</time>
      </trkpt>
      <trkpt lat="51.071728030219674" lon="8.506250968202949">
        <ele>461.56999999999999</ele>
        <time>2015-09-13T10:53:42Z</time>
      </trkpt>
      <trkpt lat="51.072477959096432" lon="8.505068030208349">
        <ele>464.44999999999999</ele>
        <time>2015-09-13T10:53:47Z</time>
      </trkpt>
      <trkpt lat="51.073316987603903" lon="8.504071002826095">
        <ele>468.30000000000001</ele>
        <time>2015-09-13T10:53:54Z</time>
      </trkpt>
      <trkpt lat="51.074131038039923" lon="8.502730987966061">
        <ele>472.63</ele>
        <time>2015-09-13T10:54:04Z</time>
      </trkpt>
      <trkpt lat="51.074238996952772" lon="8.502683965489268">
        <ele>472.63</ele>
        <time>2015-09-13T10:54:05Z</time>
      </trkpt>
      <trkpt lat="51.075348006561399" lon="8.502180967479944">
        <ele>470.69999999999999</ele>
        <time>2015-09-13T10:54:15Z</time>
      </trkpt>
      <trkpt lat="51.075842035934329" lon="8.502115001901984">
        <ele>471.18000000000001</ele>
        <time>2015-09-13T10:54:19Z</time>
      </trkpt>
      <trkpt lat="51.076084021478891" lon="8.502088012173772">
        <ele>472.13999999999999</ele>
        <time>2015-09-13T10:54:21Z</time>
      </trkpt>
      <trkpt lat="51.076665977016091" lon="8.50176002830267">
        <ele>475.50999999999999</ele>
        <time>2015-09-13T10:54:26Z</time>
      </trkpt>
      <trkpt lat="51.076831016689539" lon="8.501498010009527">
        <ele>475.99000000000001</ele>
        <time>2015-09-13T10:54:28Z</time>
      </trkpt>
      <trkpt lat="51.07717702165246" lon="8.50092301145196">
        <ele>476.94999999999999</ele>
        <time>2015-09-13T10:54:32Z</time>
      </trkpt>
      <trkpt lat="51.077611958608031" lon="8.500772975385189">
        <ele>478.87</ele>
        <time>2015-09-13T10:54:36Z</time>
      </trkpt>
      <trkpt lat="51.078693978488445" lon="8.500359999015927">
        <ele>485.12</ele>
        <time>2015-09-13T10:54:44Z</time>
      </trkpt>
      <trkpt lat="51.079567959532142" lon="8.50032496266067">
        <ele>488.49000000000001</ele>
        <time>2015-09-13T10:54:50Z</time>
      </trkpt>
      <trkpt lat="51.080133989453316" lon="8.500576000660658">
        <ele>489.93000000000001</ele>
        <time>2015-09-13T10:54:53Z</time>
      </trkpt>
      <trkpt lat="51.080675041303039" lon="8.501153010874987">
        <ele>491.85000000000002</ele>
        <time>2015-09-13T10:54:56Z</time>
      </trkpt>
      <trkpt lat="51.081139985471964" lon="8.501816019415855">
        <ele>492.32999999999998</ele>
        <time>2015-09-13T10:54:59Z</time>
      </trkpt>
      <trkpt lat="51.08171196654439" lon="8.503271033987403">
        <ele>492.81</ele>
        <time>2015-09-13T10:55:04Z</time>
      </trkpt>
      <trkpt lat="51.082683010026813" lon="8.505320996046066">
        <ele>493.76999999999998</ele>
        <time>2015-09-13T10:55:11Z</time>
      </trkpt>
      <trkpt lat="51.083396980538964" lon="8.505892977118492">
        <ele>494.74000000000001</ele>
        <time>2015-09-13T10:55:15Z</time>
      </trkpt>
      <trkpt lat="51.084028976038098" lon="8.506047958508134">
        <ele>496.18000000000001</ele>
        <time>2015-09-13T10:55:18Z</time>
      </trkpt>
      <trkpt lat="51.085579041391611" lon="8.506922023370862">
        <ele>500.01999999999998</ele>
        <time>2015-09-13T10:55:25Z</time>
      </trkpt>
      <trkpt lat="51.086236014962196" lon="8.508023992180824">
        <ele>501.45999999999998</ele>
        <time>2015-09-13T10:55:29Z</time>
      </trkpt>
      <trkpt lat="51.086656032130122" lon="8.509831968694925">
        <ele>504.35000000000002</ele>
        <time>2015-09-13T10:55:34Z</time>
      </trkpt>
      <trkpt lat="51.086688973009586" lon="8.510221978649497">
        <ele>504.35000000000002</ele>
        <time>2015-09-13T10:55:35Z</time>
      </trkpt>
      <trkpt lat="51.086872033774853" lon="8.51207597181201">
        <ele>506.75</ele>
        <time>2015-09-13T10:55:40Z</time>
      </trkpt>
      <trkpt lat="51.086944034323096" lon="8.512427005916834">
        <ele>506.75</ele>
        <time>2015-09-13T10:55:41Z</time>
      </trkpt>
      <trkpt lat="51.087610982358456" lon="8.513938011601567">
        <ele>510.60000000000002</ele>
        <time>2015-09-13T10:55:46Z</time>
      </trkpt>
      <trkpt lat="51.087979031726718" lon="8.514304971322417">
        <ele>512.03999999999996</ele>
        <time>2015-09-13T10:55:48Z</time>
      </trkpt>
      <trkpt lat="51.089175967499614" lon="8.515256987884641">
        <ele>518.28999999999996</ele>
        <time>2015-09-13T10:55:55Z</time>
      </trkpt>
      <trkpt lat="51.08955298550427" lon="8.515453962609172">
        <ele>521.16999999999996</ele>
        <time>2015-09-13T10:55:58Z</time>
      </trkpt>
      <trkpt lat="51.089967973530293" lon="8.515309961512685">
        <ele>524.05999999999995</ele>
        <time>2015-09-13T10:56:02Z</time>
      </trkpt>
      <trkpt lat="51.090238960459828" lon="8.51499798707664">
        <ele>525.98000000000002</ele>
        <time>2015-09-13T10:56:05Z</time>
      </trkpt>
      <trkpt lat="51.090528974309564" lon="8.514736974611878">
        <ele>527.41999999999996</ele>
        <time>2015-09-13T10:56:08Z</time>
      </trkpt>
      <trkpt lat="51.090862993150949" lon="8.514602025970817">
        <ele>529.34000000000003</ele>
        <time>2015-09-13T10:56:11Z</time>
      </trkpt>
      <trkpt lat="51.092504002153873" lon="8.514732029289007">
        <ele>532.71000000000004</ele>
        <time>2015-09-13T10:56:25Z</time>
      </trkpt>
      <trkpt lat="51.092709023505449" lon="8.514579981565476">
        <ele>532.71000000000004</ele>
        <time>2015-09-13T10:56:27Z</time>
      </trkpt>
      <trkpt lat="51.09337898902595" lon="8.513997020199895">
        <ele>531.75</ele>
        <time>2015-09-13T10:56:34Z</time>
      </trkpt>
      <trkpt lat="51.093632038682699" lon="8.513932982459664">
        <ele>531.75</ele>
        <time>2015-09-13T10:56:36Z</time>
      </trkpt>
      <trkpt lat="51.094016013666987" lon="8.514121994376183">
        <ele>532.71000000000004</ele>
        <time>2015-09-13T10:56:40Z</time>
      </trkpt>
      <trkpt lat="51.095030978322029" lon="8.515549013391137">
        <ele>542.79999999999995</ele>
        <time>2015-09-13T10:56:52Z</time>
      </trkpt>
      <trkpt lat="51.095315041020513" lon="8.516334984451532">
        <ele>548.57000000000005</ele>
        <time>2015-09-13T10:56:57Z</time>
      </trkpt>
      <trkpt lat="51.095554009079933" lon="8.517248025164008">
        <ele>553.38</ele>
        <time>2015-09-13T10:57:01Z</time>
      </trkpt>
      <trkpt lat="51.095706978812814" lon="8.517764015123248">
        <ele>555.77999999999997</ele>
        <time>2015-09-13T10:57:03Z</time>
      </trkpt>
      <trkpt lat="51.097021009773016" lon="8.520243968814611">
        <ele>571.15999999999997</ele>
        <time>2015-09-13T10:57:12Z</time>
      </trkpt>
      <trkpt lat="51.097579998895526" lon="8.522328967228532">
        <ele>583.17999999999995</ele>
        <time>2015-09-13T10:57:18Z</time>
      </trkpt>
      <trkpt lat="51.098237978294492" lon="8.526582028716803">
        <ele>604.33000000000004</ele>
        <time>2015-09-13T10:57:30Z</time>
      </trkpt>
      <trkpt lat="51.098114009946585" lon="8.529705964028835">
        <ele>612.5</ele>
        <time>2015-09-13T10:57:38Z</time>
      </trkpt>
      <trkpt lat="51.097711008042097" lon="8.534388011321425">
        <ele>627.39999999999998</ele>
        <time>2015-09-13T10:57:50Z</time>
      </trkpt>
      <trkpt lat="51.097799018025398" lon="8.537076003849506">
        <ele>637.97000000000003</ele>
        <time>2015-09-13T10:57:57Z</time>
      </trkpt>
      <trkpt lat="51.097674965858459" lon="8.537801960483193">
        <ele>640.38</ele>
        <time>2015-09-13T10:57:59Z</time>
      </trkpt>
      <trkpt lat="51.097301971167326" lon="8.539220010861754">
        <ele>645.65999999999997</ele>
        <time>2015-09-13T10:58:03Z</time>
      </trkpt>
      <trkpt lat="51.097176996991038" lon="8.540373025462031">
        <ele>649.02999999999997</ele>
        <time>2015-09-13T10:58:06Z</time>
      </trkpt>
      <trkpt lat="51.097261989489198" lon="8.541545988991857">
        <ele>652.87</ele>
        <time>2015-09-13T10:58:09Z</time>
      </trkpt>
      <trkpt lat="51.097320998087525" lon="8.541920995339751">
        <ele>654.30999999999995</ele>
        <time>2015-09-13T10:58:10Z</time>
      </trkpt>
      <trkpt lat="51.097584022209048" lon="8.542981976643205">
        <ele>657.67999999999995</ele>
        <time>2015-09-13T10:58:13Z</time>
      </trkpt>
      <trkpt lat="51.097864983603358" lon="8.543569967150688">
        <ele>659.60000000000002</ele>
        <time>2015-09-13T10:58:15Z</time>
      </trkpt>
      <trkpt lat="51.09866201877594" lon="8.544354010373354">
        <ele>663.45000000000005</ele>
        <time>2015-09-13T10:58:19Z</time>
      </trkpt>
      <trkpt lat="51.101572969928384" lon="8.546497011557221">
        <ele>676.90999999999997</ele>
        <time>2015-09-13T10:58:32Z</time>
      </trkpt>
      <trkpt lat="51.101918974891305" lon="8.546741008758545">
        <ele>678.83000000000004</ele>
        <time>2015-09-13T10:58:34Z</time>
      </trkpt>
      <trkpt lat="51.102277971804142" lon="8.547400999814272">
        <ele>680.75</ele>
        <time>2015-09-13T10:58:36Z</time>
      </trkpt>
      <trkpt lat="51.102440999820828" lon="8.54765203781426">
        <ele>681.71000000000004</ele>
        <time>2015-09-13T10:58:37Z</time>
      </trkpt>
      <trkpt lat="51.102585000917315" lon="8.547926964238286">
        <ele>682.66999999999996</ele>
        <time>2015-09-13T10:58:38Z</time>
      </trkpt>
      <trkpt lat="51.103714965283871" lon="8.550127968192101">
        <ele>688.44000000000005</ele>
        <time>2015-09-13T10:58:46Z</time>
      </trkpt>
      <trkpt lat="51.103964997455478" lon="8.550537005066872">
        <ele>688.44000000000005</ele>
        <time>2015-09-13T10:58:48Z</time>
      </trkpt>
      <trkpt lat="51.104053007438779" lon="8.551278971135616">
        <ele>687</ele>
        <time>2015-09-13T10:58:51Z</time>
      </trkpt>
      <trkpt lat="51.104180999100208" lon="8.555596992373467">
        <ele>683.14999999999998</ele>
        <time>2015-09-13T10:59:05Z</time>
      </trkpt>
      <trkpt lat="51.104455003514886" lon="8.556640036404133">
        <ele>682.19000000000005</ele>
        <time>2015-09-13T10:59:09Z</time>
      </trkpt>
      <trkpt lat="51.104672010987997" lon="8.557048989459872">
        <ele>681.71000000000004</ele>
        <time>2015-09-13T10:59:11Z</time>
      </trkpt>
      <trkpt lat="51.104916008189321" lon="8.557368004694581">
        <ele>681.23000000000002</ele>
        <time>2015-09-13T10:59:13Z</time>
      </trkpt>
      <trkpt lat="51.105118012055755" lon="8.558286996558309">
        <ele>677.87</ele>
        <time>2015-09-13T10:59:18Z</time>
      </trkpt>
      <trkpt lat="51.105054980143905" lon="8.558501992374659">
        <ele>677.38999999999999</ele>
        <time>2015-09-13T10:59:19Z</time>
      </trkpt>
      <trkpt lat="51.104985997080803" lon="8.558738026767969">
        <ele>676.90999999999997</ele>
        <time>2015-09-13T10:59:20Z</time>
      </trkpt>
      <trkpt lat="51.104373028501868" lon="8.560295971110463">
        <ele>666.80999999999995</ele>
        <time>2015-09-13T10:59:27Z</time>
      </trkpt>
      <trkpt lat="51.104364981874824" lon="8.560773991048336">
        <ele>662.97000000000003</ele>
        <time>2015-09-13T10:59:29Z</time>
      </trkpt>
      <trkpt lat="51.104437988251448" lon="8.561028968542814">
        <ele>661.51999999999998</ele>
        <time>2015-09-13T10:59:30Z</time>
      </trkpt>
      <trkpt lat="51.104578971862793" lon="8.561524003744125">
        <ele>658.15999999999997</ele>
        <time>2015-09-13T10:59:32Z</time>
      </trkpt>
      <trkpt lat="51.105634002014995" lon="8.564236974343658">
        <ele>639.88999999999999</ele>
        <time>2015-09-13T10:59:43Z</time>
      </trkpt>
      <trkpt lat="51.106003979220986" lon="8.564789006486535">
        <ele>635.57000000000005</ele>
        <time>2015-09-13T10:59:46Z</time>
      </trkpt>
      <trkpt lat="51.106120990589261" lon="8.564952034503222">
        <ele>634.13</ele>
        <time>2015-09-13T10:59:47Z</time>
      </trkpt>
      <trkpt lat="51.106353001669049" lon="8.565863985568285">
        <ele>630.75999999999999</ele>
        <time>2015-09-13T10:59:51Z</time>
      </trkpt>
      <trkpt lat="51.106793973594904" lon="8.568721041083336">
        <ele>617.77999999999997</ele>
        <time>2015-09-13T11:00:01Z</time>
      </trkpt>
      <trkpt lat="51.107230000197887" lon="8.571852017194033">
        <ele>601.91999999999996</ele>
        <time>2015-09-13T11:00:12Z</time>
      </trkpt>
      <trkpt lat="51.107965009287" lon="8.574861958622932">
        <ele>587.5</ele>
        <time>2015-09-13T11:00:23Z</time>
      </trkpt>
      <trkpt lat="51.108678979799151" lon="8.577487003058195">
        <ele>574.03999999999996</ele>
        <time>2015-09-13T11:00:34Z</time>
      </trkpt>
      <trkpt lat="51.109092039987445" lon="8.578886026516557">
        <ele>567.32000000000005</ele>
        <time>2015-09-13T11:00:42Z</time>
      </trkpt>
      <trkpt lat="51.109260013327003" lon="8.578857025131583">
        <ele>562.50999999999999</ele>
        <time>2015-09-13T11:00:45Z</time>
      </trkpt>
      <trkpt lat="51.109359003603458" lon="8.578794999048114">
        <ele>560.59000000000003</ele>
        <time>2015-09-13T11:00:46Z</time>
      </trkpt>
      <trkpt lat="51.109521025791764" lon="8.578563993796706">
        <ele>556.74000000000001</ele>
        <time>2015-09-13T11:00:48Z</time>
      </trkpt>
      <trkpt lat="51.109713977202773" lon="8.578260987997055">
        <ele>552.40999999999997</ele>
        <time>2015-09-13T11:00:50Z</time>
      </trkpt>
      <trkpt lat="51.110343039035797" lon="8.577334033325315">
        <ele>540.88</ele>
        <time>2015-09-13T11:00:56Z</time>
      </trkpt>
      <trkpt lat="51.111542992293835" lon="8.576022014021874">
        <ele>526.94000000000005</ele>
        <time>2015-09-13T11:01:06Z</time>
      </trkpt>
      <trkpt lat="51.112462989985943" lon="8.574363989755511">
        <ele>514.91999999999996</ele>
        <time>2015-09-13T11:01:16Z</time>
      </trkpt>
      <trkpt lat="51.112806983292103" lon="8.574134996160865">
        <ele>511.56</ele>
        <time>2015-09-13T11:01:20Z</time>
      </trkpt>
      <trkpt lat="51.112877978011966" lon="8.574241027235985">
        <ele>511.07999999999998</ele>
        <time>2015-09-13T11:01:21Z</time>
      </trkpt>
      <trkpt lat="51.112945033237338" lon="8.574342029169202">
        <ele>511.56</ele>
        <time>2015-09-13T11:01:22Z</time>
      </trkpt>
      <trkpt lat="51.112927012145519" lon="8.574929013848305">
        <ele>512.51999999999998</ele>
        <time>2015-09-13T11:01:25Z</time>
      </trkpt>
      <trkpt lat="51.112203989177942" lon="8.577311988919973">
        <ele>509.16000000000003</ele>
        <time>2015-09-13T11:01:35Z</time>
      </trkpt>
      <trkpt lat="51.11185597255826" lon="8.578988034278154">
        <ele>502.91000000000003</ele>
        <time>2015-09-13T11:01:42Z</time>
      </trkpt>
      <trkpt lat="51.111592026427388" lon="8.579631010070443">
        <ele>499.06</ele>
        <time>2015-09-13T11:01:45Z</time>
      </trkpt>
      <trkpt lat="51.111292960122228" lon="8.580199973657727">
        <ele>495.22000000000003</ele>
        <time>2015-09-13T11:01:48Z</time>
      </trkpt>
      <trkpt lat="51.111159017309546" lon="8.580668019130826">
        <ele>491.85000000000002</ele>
        <time>2015-09-13T11:01:50Z</time>
      </trkpt>
      <trkpt lat="51.110828015953302" lon="8.581682983785868">
        <ele>486.07999999999998</ele>
        <time>2015-09-13T11:01:54Z</time>
      </trkpt>
      <trkpt lat="51.110711004585028" lon="8.581884987652302">
        <ele>484.63999999999999</ele>
        <time>2015-09-13T11:01:55Z</time>
      </trkpt>
      <trkpt lat="51.110488967970014" lon="8.582271980121732">
        <ele>481.75999999999999</ele>
        <time>2015-09-13T11:01:57Z</time>
      </trkpt>
      <trkpt lat="51.109704002737999" lon="8.584741037338972">
        <ele>467.81999999999999</ele>
        <time>2015-09-13T11:02:07Z</time>
      </trkpt>
      <trkpt lat="51.108956001698971" lon="8.586751017719507">
        <ele>458.20999999999998</ele>
        <time>2015-09-13T11:02:15Z</time>
      </trkpt>
      <trkpt lat="51.10841603949666" lon="8.589231977239251">
        <ele>450.02999999999997</ele>
        <time>2015-09-13T11:02:24Z</time>
      </trkpt>
      <trkpt lat="51.108084032312036" lon="8.592638969421387">
        <ele>440.42000000000002</ele>
        <time>2015-09-13T11:02:35Z</time>
      </trkpt>
      <trkpt lat="51.107975989580154" lon="8.593902038410306">
        <ele>437.06</ele>
        <time>2015-09-13T11:02:40Z</time>
      </trkpt>
      <trkpt lat="51.10706202685833" lon="8.596089966595173">
        <ele>430.81</ele>
        <time>2015-09-13T11:02:50Z</time>
      </trkpt>
      <trkpt lat="51.107002012431622" lon="8.596344022080302">
        <ele>430.32999999999998</ele>
        <time>2015-09-13T11:02:51Z</time>
      </trkpt>
      <trkpt lat="51.10657000914216" lon="8.598222993314266">
        <ele>427.92000000000002</ele>
        <time>2015-09-13T11:02:58Z</time>
      </trkpt>
      <trkpt lat="51.1065489705652" lon="8.598495991900563">
        <ele>427.92000000000002</ele>
        <time>2015-09-13T11:02:59Z</time>
      </trkpt>
      <trkpt lat="51.106535978615284" lon="8.598769996315241">
        <ele>427.92000000000002</ele>
        <time>2015-09-13T11:03:00Z</time>
      </trkpt>
      <trkpt lat="51.106750974431634" lon="8.60059498809278">
        <ele>425.04000000000002</ele>
        <time>2015-09-13T11:03:07Z</time>
      </trkpt>
      <trkpt lat="51.10732102766633" lon="8.602302968502045">
        <ele>421.19</ele>
        <time>2015-09-13T11:03:13Z</time>
      </trkpt>
      <trkpt lat="51.107468968257308" lon="8.602578984573484">
        <ele>420.23000000000002</ele>
        <time>2015-09-13T11:03:14Z</time>
      </trkpt>
      <trkpt lat="51.108801020309329" lon="8.60497897490859">
        <ele>415.43000000000001</ele>
        <time>2015-09-13T11:03:22Z</time>
      </trkpt>
      <trkpt lat="51.110267015174031" lon="8.60716799274087">
        <ele>415.43000000000001</ele>
        <time>2015-09-13T11:03:30Z</time>
      </trkpt>
      <trkpt lat="51.111209979280829" lon="8.610335011035204">
        <ele>414.94999999999999</ele>
        <time>2015-09-13T11:03:40Z</time>
      </trkpt>
      <trkpt lat="51.111476020887494" lon="8.611666979268193">
        <ele>414.94999999999999</ele>
        <time>2015-09-13T11:03:45Z</time>
      </trkpt>
      <trkpt lat="51.111463028937578" lon="8.612182969227433">
        <ele>414.47000000000003</ele>
        <time>2015-09-13T11:03:47Z</time>
      </trkpt>
      <trkpt lat="51.11123101785779" lon="8.615104984492064">
        <ele>419.75</ele>
        <time>2015-09-13T11:04:01Z</time>
      </trkpt>
      <trkpt lat="51.111315004527569" lon="8.615796994417906">
        <ele>422.16000000000003</ele>
        <time>2015-09-13T11:04:05Z</time>
      </trkpt>
      <trkpt lat="51.111409971490502" lon="8.616133024916053">
        <ele>422.16000000000003</ele>
        <time>2015-09-13T11:04:07Z</time>
      </trkpt>
      <trkpt lat="51.11189897172153" lon="8.618346014991403">
        <ele>416.87</ele>
        <time>2015-09-13T11:04:20Z</time>
      </trkpt>
      <trkpt lat="51.111954040825367" lon="8.620177963748574">
        <ele>411.57999999999998</ele>
        <time>2015-09-13T11:04:31Z</time>
      </trkpt>
      <trkpt lat="51.11189897172153" lon="8.62145503051579">
        <ele>406.76999999999998</ele>
        <time>2015-09-13T11:04:41Z</time>
      </trkpt>
      <trkpt lat="51.111885979771614" lon="8.621583022177219">
        <ele>404.37</ele>
        <time>2015-09-13T11:04:48Z</time>
      </trkpt>
      <trkpt lat="51.111882962286472" lon="8.621617974713445">
        <ele>404.37</ele>
        <time>2015-09-13T11:05:00Z</time>
      </trkpt>
      <trkpt lat="51.112022018060088" lon="8.621602971106768">
        <ele>402.44999999999999</ele>
        <time>2015-09-13T11:05:04Z</time>
      </trkpt>
      <trkpt lat="51.113784983754158" lon="8.620411986485124">
        <ele>395.24000000000001</ele>
        <time>2015-09-13T11:05:23Z</time>
      </trkpt>
      <trkpt lat="51.1144960206002" lon="8.619768004864454">
        <ele>392.83999999999997</ele>
        <time>2015-09-13T11:05:30Z</time>
      </trkpt>
      <trkpt lat="51.115060960873961" lon="8.619467010721564">
        <ele>395.72000000000003</ele>
        <time>2015-09-13T11:05:35Z</time>
      </trkpt>
      <trkpt lat="51.115165986120701" lon="8.619379000738263">
        <ele>395.72000000000003</ele>
        <time>2015-09-13T11:05:36Z</time>
      </trkpt>
      <trkpt lat="51.116571966558695" lon="8.61810402944684">
        <ele>401.00999999999999</ele>
        <time>2015-09-13T11:05:49Z</time>
      </trkpt>
      <trkpt lat="51.118059000000358" lon="8.616645997390151">
        <ele>405.81</ele>
        <time>2015-09-13T11:06:03Z</time>
      </trkpt>
      <trkpt lat="51.119500016793609" lon="8.615402039140463">
        <ele>406.29000000000002</ele>
        <time>2015-09-13T11:06:16Z</time>
      </trkpt>
      <trkpt lat="51.120644984766841" lon="8.614765014499426">
        <ele>407.74000000000001</ele>
        <time>2015-09-13T11:06:25Z</time>
      </trkpt>
      <trkpt lat="51.122283982113004" lon="8.613947024568915">
        <ele>410.13999999999999</ele>
        <time>2015-09-13T11:06:35Z</time>
      </trkpt>
      <trkpt lat="51.122432006523013" lon="8.61380503512919">
        <ele>410.13999999999999</ele>
        <time>2015-09-13T11:06:36Z</time>
      </trkpt>
      <trkpt lat="51.125169033184648" lon="8.611704027280211">
        <ele>411.10000000000002</ele>
        <time>2015-09-13T11:06:55Z</time>
      </trkpt>
      <trkpt lat="51.125308005139232" lon="8.611646024510264">
        <ele>411.10000000000002</ele>
        <time>2015-09-13T11:06:56Z</time>
      </trkpt>
      <trkpt lat="51.125697009265423" lon="8.611498000100255">
        <ele>411.57999999999998</ele>
        <time>2015-09-13T11:06:59Z</time>
      </trkpt>
      <trkpt lat="51.125922985374928" lon="8.611290967091918">
        <ele>411.57999999999998</ele>
        <time>2015-09-13T11:07:01Z</time>
      </trkpt>
      <trkpt lat="51.126220962032676" lon="8.610803978517652">
        <ele>411.57999999999998</ele>
        <time>2015-09-13T11:07:05Z</time>
      </trkpt>
      <trkpt lat="51.126536959782243" lon="8.61090699210763">
        <ele>412.06</ele>
        <time>2015-09-13T11:07:08Z</time>
      </trkpt>
      <trkpt lat="51.126653971150517" lon="8.610995002090931">
        <ele>412.06</ele>
        <time>2015-09-13T11:07:09Z</time>
      </trkpt>
      <trkpt lat="51.127873035147786" lon="8.611434968188405">
        <ele>417.82999999999998</ele>
        <time>2015-09-13T11:07:17Z</time>
      </trkpt>
      <trkpt lat="51.12816103734076" lon="8.611588021740317">
        <ele>419.75</ele>
        <time>2015-09-13T11:07:19Z</time>
      </trkpt>
      <trkpt lat="51.128583988174796" lon="8.611945006996393">
        <ele>423.60000000000002</ele>
        <time>2015-09-13T11:07:22Z</time>
      </trkpt>
      <trkpt lat="51.12872296012938" lon="8.612085990607739">
        <ele>424.07999999999998</ele>
        <time>2015-09-13T11:07:23Z</time>
      </trkpt>
      <trkpt lat="51.128952037543058" lon="8.612465020269156">
        <ele>425.51999999999998</ele>
        <time>2015-09-13T11:07:25Z</time>
      </trkpt>
      <trkpt lat="51.129734991118312" lon="8.614381961524487">
        <ele>429.85000000000002</ele>
        <time>2015-09-13T11:07:34Z</time>
      </trkpt>
      <trkpt lat="51.130299009382725" lon="8.616291023790836">
        <ele>433.20999999999998</ele>
        <time>2015-09-13T11:07:42Z</time>
      </trkpt>
      <trkpt lat="51.130543006584048" lon="8.616702994331718">
        <ele>434.17000000000002</ele>
        <time>2015-09-13T11:07:44Z</time>
      </trkpt>
      <trkpt lat="51.130977021530271" lon="8.617226025089622">
        <ele>435.13</ele>
        <time>2015-09-13T11:07:47Z</time>
      </trkpt>
      <trkpt lat="51.131609017029405" lon="8.617540011182427">
        <ele>435.61000000000001</ele>
        <time>2015-09-13T11:07:51Z</time>
      </trkpt>
      <trkpt lat="51.134455008432269" lon="8.617988023906946">
        <ele>436.57999999999998</ele>
        <time>2015-09-13T11:08:10Z</time>
      </trkpt>
      <trkpt lat="51.135850008577108" lon="8.617023015394807">
        <ele>439.45999999999998</ele>
        <time>2015-09-13T11:08:21Z</time>
      </trkpt>
      <trkpt lat="51.137106036767364" lon="8.615385023877025">
        <ele>445.23000000000002</ele>
        <time>2015-09-13T11:08:33Z</time>
      </trkpt>
      <trkpt lat="51.138237006962299" lon="8.613738985732198">
        <ele>451.95999999999998</ele>
        <time>2015-09-13T11:08:44Z</time>
      </trkpt>
      <trkpt lat="51.138503970578313" lon="8.613280998542905">
        <ele>453.39999999999998</ele>
        <time>2015-09-13T11:08:47Z</time>
      </trkpt>
      <trkpt lat="51.138766994699836" lon="8.61299098469317">
        <ele>454.36000000000001</ele>
        <time>2015-09-13T11:08:49Z</time>
      </trkpt>
      <trkpt lat="51.139253983274102" lon="8.612658977508545">
        <ele>455.31999999999999</ele>
        <time>2015-09-13T11:08:53Z</time>
      </trkpt>
      <trkpt lat="51.13959101960063" lon="8.612953014671803">
        <ele>457.24000000000001</ele>
        <time>2015-09-13T11:08:56Z</time>
      </trkpt>
      <trkpt lat="51.139667965471745" lon="8.613114031031728">
        <ele>457.72000000000003</ele>
        <time>2015-09-13T11:08:57Z</time>
      </trkpt>
      <trkpt lat="51.139577021822333" lon="8.613939983770251">
        <ele>460.13</ele>
        <time>2015-09-13T11:09:01Z</time>
      </trkpt>
      <trkpt lat="51.139364959672093" lon="8.614605003967881">
        <ele>462.05000000000001</ele>
        <time>2015-09-13T11:09:04Z</time>
      </trkpt>
      <trkpt lat="51.139345010742545" lon="8.615152006968856">
        <ele>463.00999999999999</ele>
        <time>2015-09-13T11:09:06Z</time>
      </trkpt>
      <trkpt lat="51.139529999345541" lon="8.616163032129407">
        <ele>466.38</ele>
        <time>2015-09-13T11:09:10Z</time>
      </trkpt>
      <trkpt lat="51.139997038990259" lon="8.618290023878217">
        <ele>476.94999999999999</ele>
        <time>2015-09-13T11:09:19Z</time>
      </trkpt>
      <trkpt lat="51.140370033681393" lon="8.620505025610328">
        <ele>487.05000000000001</ele>
        <time>2015-09-13T11:09:26Z</time>
      </trkpt>
      <trkpt lat="51.140476986765862" lon="8.621088992804289">
        <ele>488.97000000000003</ele>
        <time>2015-09-13T11:09:28Z</time>
      </trkpt>
      <trkpt lat="51.140963975340128" lon="8.621989963576198">
        <ele>491.85000000000002</ele>
        <time>2015-09-13T11:09:32Z</time>
      </trkpt>
      <trkpt lat="51.141132032498717" lon="8.622171012684703">
        <ele>492.32999999999998</ele>
        <time>2015-09-13T11:09:33Z</time>
      </trkpt>
      <trkpt lat="51.141478959470987" lon="8.622540989890695">
        <ele>493.29000000000002</ele>
        <time>2015-09-13T11:09:35Z</time>
      </trkpt>
      <trkpt lat="51.141856983304024" lon="8.623366020619869">
        <ele>493.29000000000002</ele>
        <time>2015-09-13T11:09:38Z</time>
      </trkpt>
      <trkpt lat="51.141951028257608" lon="8.623699033632875">
        <ele>493.29000000000002</ele>
        <time>2015-09-13T11:09:39Z</time>
      </trkpt>
      <trkpt lat="51.142929028719664" lon="8.627051040530205">
        <ele>492.81</ele>
        <time>2015-09-13T11:09:49Z</time>
      </trkpt>
      <trkpt lat="51.144474986940622" lon="8.629959980025888">
        <ele>491.85000000000002</ele>
        <time>2015-09-13T11:10:03Z</time>
      </trkpt>
      <trkpt lat="51.145616015419364" lon="8.630685014650226">
        <ele>489.93000000000001</ele>
        <time>2015-09-13T11:10:13Z</time>
      </trkpt>
      <trkpt lat="51.146118007600307" lon="8.630697000771761">
        <ele>488.49000000000001</ele>
        <time>2015-09-13T11:10:17Z</time>
      </trkpt>
      <trkpt lat="51.146243987604976" lon="8.630663976073265">
        <ele>487.52999999999997</ele>
        <time>2015-09-13T11:10:18Z</time>
      </trkpt>
      <trkpt lat="51.146483961492777" lon="8.630529027432203">
        <ele>486.56</ele>
        <time>2015-09-13T11:10:20Z</time>
      </trkpt>
      <trkpt lat="51.146799959242344" lon="8.630183022469282">
        <ele>484.63999999999999</ele>
        <time>2015-09-13T11:10:23Z</time>
      </trkpt>
      <trkpt lat="51.14706801250577" lon="8.629512973129749">
        <ele>483.19999999999999</ele>
        <time>2015-09-13T11:10:27Z</time>
      </trkpt>
      <trkpt lat="51.147675029933453" lon="8.627279028296471">
        <ele>478.87</ele>
        <time>2015-09-13T11:10:39Z</time>
      </trkpt>
      <trkpt lat="51.147695984691381" lon="8.62708599306643">
        <ele>478.87</ele>
        <time>2015-09-13T11:10:40Z</time>
      </trkpt>
      <trkpt lat="51.14781903102994" lon="8.625950999557972">
        <ele>477.91000000000003</ele>
        <time>2015-09-13T11:10:46Z</time>
      </trkpt>
      <trkpt lat="51.14803402684629" lon="8.625336019322276">
        <ele>476.94999999999999</ele>
        <time>2015-09-13T11:10:50Z</time>
      </trkpt>
      <trkpt lat="51.148320017382503" lon="8.625125968828797">
        <ele>476.94999999999999</ele>
        <time>2015-09-13T11:10:53Z</time>
      </trkpt>
      <trkpt lat="51.148869032040238" lon="8.625307017937303">
        <ele>476.94999999999999</ele>
        <time>2015-09-13T11:10:58Z</time>
      </trkpt>
      <trkpt lat="51.149482000619173" lon="8.626143028959632">
        <ele>475.99000000000001</ele>
        <time>2015-09-13T11:11:05Z</time>
      </trkpt>
      <trkpt lat="51.149506978690624" lon="8.626321982592344">
        <ele>475.99000000000001</ele>
        <time>2015-09-13T11:11:06Z</time>
      </trkpt>
      <trkpt lat="51.149774026125669" lon="8.628098024055362">
        <ele>475.99000000000001</ele>
        <time>2015-09-13T11:11:15Z</time>
      </trkpt>
      <trkpt lat="51.150236036628485" lon="8.629821008071303">
        <ele>476.94999999999999</ele>
        <time>2015-09-13T11:11:22Z</time>
      </trkpt>
      <trkpt lat="51.150235030800104" lon="8.630683002993465">
        <ele>478.87</ele>
        <time>2015-09-13T11:11:25Z</time>
      </trkpt>
      <trkpt lat="51.150138974189758" lon="8.632872020825744">
        <ele>485.60000000000002</ele>
        <time>2015-09-13T11:11:34Z</time>
      </trkpt>
      <trkpt lat="51.150155989453197" lon="8.633279968053103">
        <ele>487.05000000000001</ele>
        <time>2015-09-13T11:11:37Z</time>
      </trkpt>
      <trkpt lat="51.150264032185078" lon="8.633118029683828">
        <ele>487.52999999999997</ele>
        <time>2015-09-13T11:11:40Z</time>
      </trkpt>
      <trkpt lat="51.150148026645184" lon="8.633096991106868">
        <ele>488.49000000000001</ele>
        <time>2015-09-13T11:11:42Z</time>
      </trkpt>
      <trkpt lat="51.15024802275002" lon="8.633140996098518">
        <ele>488.49000000000001</ele>
        <time>2015-09-13T11:11:44Z</time>
      </trkpt>
      <trkpt lat="51.150142997503281" lon="8.6329710111022">
        <ele>488.49000000000001</ele>
        <time>2015-09-13T11:11:46Z</time>
      </trkpt>
      <trkpt lat="51.150130005553365" lon="8.632657025009394">
        <ele>488.97000000000003</ele>
        <time>2015-09-13T11:11:49Z</time>
      </trkpt>
      <trkpt lat="51.150164036080241" lon="8.631560001522303">
        <ele>484.63999999999999</ele>
        <time>2015-09-13T11:11:57Z</time>
      </trkpt>
      <trkpt lat="51.150340978056192" lon="8.631250960752368">
        <ele>481.75999999999999</ele>
        <time>2015-09-13T11:12:01Z</time>
      </trkpt>
      <trkpt lat="51.150374002754688" lon="8.631178038194776">
        <ele>480.80000000000001</ele>
        <time>2015-09-13T11:12:02Z</time>
      </trkpt>
      <trkpt lat="51.150406021624804" lon="8.631107965484262">
        <ele>480.31999999999999</ele>
        <time>2015-09-13T11:12:03Z</time>
      </trkpt>
      <trkpt lat="51.150522027164698" lon="8.630526009947062">
        <ele>475.99000000000001</ele>
        <time>2015-09-13T11:12:10Z</time>
      </trkpt>
      <trkpt lat="51.150556979700923" lon="8.630346972495318">
        <ele>475.02999999999997</ele>
        <time>2015-09-13T11:12:12Z</time>
      </trkpt>
      <trkpt lat="51.150878006592393" lon="8.629331002011895">
        <ele>468.30000000000001</ele>
        <time>2015-09-13T11:12:23Z</time>
      </trkpt>
      <trkpt lat="51.150998035445809" lon="8.629122963175178">
        <ele>465.89999999999998</ele>
        <time>2015-09-13T11:12:45Z</time>
      </trkpt>
      <trkpt lat="51.151271034032106" lon="8.628923976793885">
        <ele>467.81999999999999</ele>
        <time>2015-09-13T11:12:55Z</time>
      </trkpt>
      <trkpt lat="51.151275979354978" lon="8.628922970965505">
        <ele>468.77999999999997</ele>
        <time>2015-09-13T11:13:12Z</time>
      </trkpt>
      <trkpt lat="51.151275979354978" lon="8.628922970965505">
        <ele>470.22000000000003</ele>
        <time>2015-09-13T11:15:40Z</time>
      </trkpt>
      <trkpt lat="51.151356026530266" lon="8.628895981237292">
        <ele>473.11000000000001</ele>
        <time>2015-09-13T11:24:45Z</time>
      </trkpt>
      <trkpt lat="51.151359966024756" lon="8.628893969580531">
        <ele>473.11000000000001</ele>
        <time>2015-09-13T11:24:48Z</time>
      </trkpt>
      <trkpt lat="51.151271034032106" lon="8.628923976793885">
        <ele>473.11000000000001</ele>
        <time>2015-09-13T11:24:51Z</time>
      </trkpt>
      <trkpt lat="51.151139019057155" lon="8.629011986777186">
        <ele>473.11000000000001</ele>
        <time>2015-09-13T11:24:54Z</time>
      </trkpt>
      <trkpt lat="51.150624034926295" lon="8.629997028037906">
        <ele>475.02999999999997</ele>
        <time>2015-09-13T11:25:09Z</time>
      </trkpt>
      <trkpt lat="51.150600984692574" lon="8.630117978900671">
        <ele>475.02999999999997</ele>
        <time>2015-09-13T11:25:10Z</time>
      </trkpt>
      <trkpt lat="51.150392023846507" lon="8.631136966869235">
        <ele>474.55000000000001</ele>
        <time>2015-09-13T11:25:19Z</time>
      </trkpt>
      <trkpt lat="51.150306025519967" lon="8.631326984614134">
        <ele>475.50999999999999</ele>
        <time>2015-09-13T11:25:22Z</time>
      </trkpt>
      <trkpt lat="51.150319017469883" lon="8.631298989057541">
        <ele>475.99000000000001</ele>
        <time>2015-09-13T11:25:24Z</time>
      </trkpt>
      <trkpt lat="51.150177028030157" lon="8.631392028182745">
        <ele>476.47000000000003</ele>
        <time>2015-09-13T11:25:27Z</time>
      </trkpt>
      <trkpt lat="51.150127993896604" lon="8.632599022239447">
        <ele>481.27999999999997</ele>
        <time>2015-09-13T11:25:35Z</time>
      </trkpt>
      <trkpt lat="51.150277024134994" lon="8.634701035916805">
        <ele>488.49000000000001</ele>
        <time>2015-09-13T11:25:43Z</time>
      </trkpt>
      <trkpt lat="51.151129966601729" lon="8.636987032368779">
        <ele>495.22000000000003</ele>
        <time>2015-09-13T11:25:52Z</time>
      </trkpt>
      <trkpt lat="51.152020962908864" lon="8.639005981385708">
        <ele>493.76999999999998</ele>
        <time>2015-09-13T11:26:00Z</time>
      </trkpt>
      <trkpt lat="51.152901984751225" lon="8.640438029542565">
        <ele>493.29000000000002</ele>
        <time>2015-09-13T11:26:07Z</time>
      </trkpt>
      <trkpt lat="51.153065012767911" lon="8.640551017597318">
        <ele>493.76999999999998</ele>
        <time>2015-09-13T11:26:08Z</time>
      </trkpt>
      <trkpt lat="51.155161997303367" lon="8.641154011711478">
        <ele>494.25999999999999</ele>
        <time>2015-09-13T11:26:20Z</time>
      </trkpt>
      <trkpt lat="51.155311027541757" lon="8.641061978414655">
        <ele>494.25999999999999</ele>
        <time>2015-09-13T11:26:21Z</time>
      </trkpt>
      <trkpt lat="51.155456034466624" lon="8.640961982309818">
        <ele>494.74000000000001</ele>
        <time>2015-09-13T11:26:22Z</time>
      </trkpt>
      <trkpt lat="51.155949980020523" lon="8.640360999852419">
        <ele>495.22000000000003</ele>
        <time>2015-09-13T11:26:27Z</time>
      </trkpt>
      <trkpt lat="51.156335966661572" lon="8.64057800732553">
        <ele>495.22000000000003</ele>
        <time>2015-09-13T11:26:31Z</time>
      </trkpt>
      <trkpt lat="51.156567977741361" lon="8.641465986147523">
        <ele>496.66000000000003</ele>
        <time>2015-09-13T11:26:35Z</time>
      </trkpt>
      <trkpt lat="51.157285971567035" lon="8.64384401589632">
        <ele>499.06</ele>
        <time>2015-09-13T11:26:45Z</time>
      </trkpt>
      <trkpt lat="51.158014023676515" lon="8.64509099163115">
        <ele>500.5</ele>
        <time>2015-09-13T11:26:53Z</time>
      </trkpt>
      <trkpt lat="51.158493971452117" lon="8.644860992208123">
        <ele>499.54000000000002</ele>
        <time>2015-09-13T11:26:58Z</time>
      </trkpt>
      <trkpt lat="51.158577958121896" lon="8.64468103274703">
        <ele>499.06</ele>
        <time>2015-09-13T11:26:59Z</time>
      </trkpt>
      <trkpt lat="51.1592080257833" lon="8.643256025388837">
        <ele>494.25999999999999</ele>
        <time>2015-09-13T11:27:06Z</time>
      </trkpt>
      <trkpt lat="51.159308021888137" lon="8.642789991572499">
        <ele>492.32999999999998</ele>
        <time>2015-09-13T11:27:08Z</time>
      </trkpt>
      <trkpt lat="51.159245995804667" lon="8.638776987791061">
        <ele>479.83999999999997</ele>
        <time>2015-09-13T11:27:21Z</time>
      </trkpt>
      <trkpt lat="51.159344986081123" lon="8.637534035369754">
        <ele>475.02999999999997</ele>
        <time>2015-09-13T11:27:26Z</time>
      </trkpt>
      <trkpt lat="51.159529974684119" lon="8.636937998235226">
        <ele>472.63</ele>
        <time>2015-09-13T11:27:29Z</time>
      </trkpt>
      <trkpt lat="51.159882014617324" lon="8.636372974142432">
        <ele>469.74000000000001</ele>
        <time>2015-09-13T11:27:33Z</time>
      </trkpt>
      <trkpt lat="51.159975975751877" lon="8.636298039928079">
        <ele>469.74000000000001</ele>
        <time>2015-09-13T11:27:34Z</time>
      </trkpt>
      <trkpt lat="51.16004797630012" lon="8.636240959167481">
        <ele>469.25999999999999</ele>
        <time>2015-09-13T11:27:35Z</time>
      </trkpt>
      <trkpt lat="51.16019700653851" lon="8.636369034647942">
        <ele>469.25999999999999</ele>
        <time>2015-09-13T11:27:37Z</time>
      </trkpt>
      <trkpt lat="51.160180997103453" lon="8.636838002130389">
        <ele>468.30000000000001</ele>
        <time>2015-09-13T11:27:40Z</time>
      </trkpt>
      <trkpt lat="51.16004697047174" lon="8.637578040361404">
        <ele>465.89999999999998</ele>
        <time>2015-09-13T11:27:43Z</time>
      </trkpt>
      <trkpt lat="51.159989973530173" lon="8.638169970363379">
        <ele>463.97000000000003</ele>
        <time>2015-09-13T11:27:45Z</time>
      </trkpt>
      <trkpt lat="51.160056022927165" lon="8.639108994975686">
        <ele>460.13</ele>
        <time>2015-09-13T11:27:48Z</time>
      </trkpt>
      <trkpt lat="51.160114025697112" lon="8.639430021867156">
        <ele>459.17000000000002</ele>
        <time>2015-09-13T11:27:49Z</time>
      </trkpt>
      <trkpt lat="51.160179991275072" lon="8.639735961332917">
        <ele>457.72000000000003</ele>
        <time>2015-09-13T11:27:50Z</time>
      </trkpt>
      <trkpt lat="51.160680977627635" lon="8.641317039728165">
        <ele>450.51999999999998</ele>
        <time>2015-09-13T11:27:56Z</time>
      </trkpt>
      <trkpt lat="51.161234015598893" lon="8.64210301078856">
        <ele>446.19</ele>
        <time>2015-09-13T11:28:00Z</time>
      </trkpt>
      <trkpt lat="51.161382040008903" lon="8.642312977463007">
        <ele>445.23000000000002</ele>
        <time>2015-09-13T11:28:01Z</time>
      </trkpt>
      <trkpt lat="51.161654032766819" lon="8.643110012635589">
        <ele>441.38</ele>
        <time>2015-09-13T11:28:04Z</time>
      </trkpt>
      <trkpt lat="51.161966007202864" lon="8.643879974260926">
        <ele>438.01999999999998</ele>
        <time>2015-09-13T11:28:07Z</time>
      </trkpt>
      <trkpt lat="51.162080001085997" lon="8.64412103779614">
        <ele>436.57999999999998</ele>
        <time>2015-09-13T11:28:08Z</time>
      </trkpt>
      <trkpt lat="51.162348976358771" lon="8.645318979397416">
        <ele>432.25</ele>
        <time>2015-09-13T11:28:12Z</time>
      </trkpt>
      <trkpt lat="51.162778967991471" lon="8.647799016907811">
        <ele>422.16000000000003</ele>
        <time>2015-09-13T11:28:20Z</time>
      </trkpt>
      <trkpt lat="51.163055989891291" lon="8.648608960211277">
        <ele>418.31</ele>
        <time>2015-09-13T11:28:23Z</time>
      </trkpt>
      <trkpt lat="51.163466032594442" lon="8.649254031479359">
        <ele>414.47000000000003</ele>
        <time>2015-09-13T11:28:26Z</time>
      </trkpt>
      <trkpt lat="51.16503001190722" lon="8.650469994172454">
        <ele>405.32999999999998</ele>
        <time>2015-09-13T11:28:34Z</time>
      </trkpt>
      <trkpt lat="51.165637029334903" lon="8.650881964713335">
        <ele>402.44999999999999</ele>
        <time>2015-09-13T11:28:37Z</time>
      </trkpt>
      <trkpt lat="51.16610599681735" lon="8.651614962145686">
        <ele>399.07999999999998</ele>
        <time>2015-09-13T11:28:41Z</time>
      </trkpt>
      <trkpt lat="51.166205992922187" lon="8.652487015351653">
        <ele>396.68000000000001</ele>
        <time>2015-09-13T11:28:45Z</time>
      </trkpt>
      <trkpt lat="51.166205992922187" lon="8.652737969532609">
        <ele>396.19999999999999</ele>
        <time>2015-09-13T11:28:46Z</time>
      </trkpt>
      <trkpt lat="51.166446972638369" lon="8.653783025220037">
        <ele>393.31999999999999</ele>
        <time>2015-09-13T11:28:50Z</time>
      </trkpt>
      <trkpt lat="51.166831031441689" lon="8.656227020546794">
        <ele>389.94999999999999</ele>
        <time>2015-09-13T11:28:58Z</time>
      </trkpt>
      <trkpt lat="51.166871013119817" lon="8.656543018296361">
        <ele>389.47000000000003</ele>
        <time>2015-09-13T11:28:59Z</time>
      </trkpt>
      <trkpt lat="51.166884005069733" lon="8.657837016507983">
        <ele>388.50999999999999</ele>
        <time>2015-09-13T11:29:03Z</time>
      </trkpt>
      <trkpt lat="51.166991963982582" lon="8.658467000350356">
        <ele>388.02999999999997</ele>
        <time>2015-09-13T11:29:05Z</time>
      </trkpt>
      <trkpt lat="51.167453974485397" lon="8.659989992156625">
        <ele>387.55000000000001</ele>
        <time>2015-09-13T11:29:10Z</time>
      </trkpt>
      <trkpt lat="51.1680599860847" lon="8.665396990254521">
        <ele>384.18000000000001</ele>
        <time>2015-09-13T11:29:30Z</time>
      </trkpt>
      <trkpt lat="51.168217984959483" lon="8.666140967980027">
        <ele>382.25999999999999</ele>
        <time>2015-09-13T11:29:34Z</time>
      </trkpt>
      <trkpt lat="51.168352011591196" lon="8.666474986821413">
        <ele>381.77999999999997</ele>
        <time>2015-09-13T11:29:36Z</time>
      </trkpt>
      <trkpt lat="51.168558960780501" lon="8.666700040921569">
        <ele>380.33999999999997</ele>
        <time>2015-09-13T11:29:38Z</time>
      </trkpt>
      <trkpt lat="51.169320959597826" lon="8.667084015905857">
        <ele>376.00999999999999</ele>
        <time>2015-09-13T11:29:45Z</time>
      </trkpt>
      <trkpt lat="51.169433025643229" lon="8.667088961228728">
        <ele>375.05000000000001</ele>
        <time>2015-09-13T11:29:46Z</time>
      </trkpt>
      <trkpt lat="51.169812977313995" lon="8.667077980935574">
        <ele>373.61000000000001</ele>
        <time>2015-09-13T11:29:50Z</time>
      </trkpt>
      <trkpt lat="51.16997298784554" lon="8.667377969250083">
        <ele>372.17000000000002</ele>
        <time>2015-09-13T11:29:54Z</time>
      </trkpt>
      <trkpt lat="51.169957984238863" lon="8.667663959786296">
        <ele>372.64999999999998</ele>
        <time>2015-09-13T11:29:56Z</time>
      </trkpt>
      <trkpt lat="51.169921020045877" lon="8.667787006124854">
        <ele>372.64999999999998</ele>
        <time>2015-09-13T11:29:57Z</time>
      </trkpt>
      <trkpt lat="51.169771989807487" lon="8.668279023841023">
        <ele>372.64999999999998</ele>
        <time>2015-09-13T11:30:05Z</time>
      </trkpt>
      <trkpt lat="51.169962007552385" lon="8.667639987543225">
        <ele>373.61000000000001</ele>
        <time>2015-09-13T11:30:13Z</time>
      </trkpt>
      <trkpt lat="51.169981034472585" lon="8.667188035324216">
        <ele>374.08999999999997</ele>
        <time>2015-09-13T11:30:17Z</time>
      </trkpt>
      <trkpt lat="51.17018798366189" lon="8.667280990630388">
        <ele>374.56999999999999</ele>
        <time>2015-09-13T11:30:20Z</time>
      </trkpt>
      <trkpt lat="51.170345982536674" lon="8.667438989505172">
        <ele>375.52999999999997</ele>
        <time>2015-09-13T11:30:22Z</time>
      </trkpt>
      <trkpt lat="51.170603977516294" lon="8.668081965297461">
        <ele>378.89999999999998</ele>
        <time>2015-09-13T11:30:26Z</time>
      </trkpt>
      <trkpt lat="51.170983007177711" lon="8.668600972741842">
        <ele>383.22000000000003</ele>
        <time>2015-09-13T11:30:30Z</time>
      </trkpt>
      <trkpt lat="51.171089960262179" lon="8.668699963018298">
        <ele>384.18000000000001</ele>
        <time>2015-09-13T11:30:31Z</time>
      </trkpt>
      <trkpt lat="51.171445017680526" lon="8.668681019917131">
        <ele>388.50999999999999</ele>
        <time>2015-09-13T11:30:34Z</time>
      </trkpt>
      <trkpt lat="51.171568986028433" lon="8.668625028803945">
        <ele>389.94999999999999</ele>
        <time>2015-09-13T11:30:35Z</time>
      </trkpt>
      <trkpt lat="51.17192898876965" lon="8.668385976925492">
        <ele>394.75999999999999</ele>
        <time>2015-09-13T11:30:38Z</time>
      </trkpt>
      <trkpt lat="51.172039965167642" lon="8.668295033276081">
        <ele>396.19999999999999</ele>
        <time>2015-09-13T11:30:39Z</time>
      </trkpt>
      <trkpt lat="51.172371972352266" lon="8.668008036911488">
        <ele>400.52999999999997</ele>
        <time>2015-09-13T11:30:42Z</time>
      </trkpt>
      <trkpt lat="51.172675983980298" lon="8.667871998623014">
        <ele>403.41000000000003</ele>
        <time>2015-09-13T11:30:44Z</time>
      </trkpt>
      <trkpt lat="51.17422403767705" lon="8.667330024763942">
        <ele>412.54000000000002</ele>
        <time>2015-09-13T11:30:52Z</time>
      </trkpt>
      <trkpt lat="51.176001001149416" lon="8.667200021445751">
        <ele>417.35000000000002</ele>
        <time>2015-09-13T11:31:01Z</time>
      </trkpt>
      <trkpt lat="51.176596032455564" lon="8.666952000930905">
        <ele>413.98000000000002</ele>
        <time>2015-09-13T11:31:05Z</time>
      </trkpt>
      <trkpt lat="51.176844974979758" lon="8.666514968499541">
        <ele>411.57999999999998</ele>
        <time>2015-09-13T11:31:08Z</time>
      </trkpt>
      <trkpt lat="51.176982019096613" lon="8.666212968528271">
        <ele>410.13999999999999</ele>
        <time>2015-09-13T11:31:10Z</time>
      </trkpt>
      <trkpt lat="51.177377980202436" lon="8.666024962440133">
        <ele>407.74000000000001</ele>
        <time>2015-09-13T11:31:14Z</time>
      </trkpt>
      <trkpt lat="51.177663970738649" lon="8.666473980993033">
        <ele>407.25999999999999</ele>
        <time>2015-09-13T11:31:17Z</time>
      </trkpt>
      <trkpt lat="51.177673023194075" lon="8.666732981801033">
        <ele>407.74000000000001</ele>
        <time>2015-09-13T11:31:18Z</time>
      </trkpt>
      <trkpt lat="51.177759021520615" lon="8.668175004422665">
        <ele>412.54000000000002</ele>
        <time>2015-09-13T11:31:23Z</time>
      </trkpt>
      <trkpt lat="51.177859017625451" lon="8.668785039335489">
        <ele>416.38999999999999</ele>
        <time>2015-09-13T11:31:25Z</time>
      </trkpt>
      <trkpt lat="51.178067978471518" lon="8.669308992102742">
        <ele>419.75</ele>
        <time>2015-09-13T11:31:27Z</time>
      </trkpt>
      <trkpt lat="51.178333014249802" lon="8.669705959036946">
        <ele>423.12</ele>
        <time>2015-09-13T11:31:29Z</time>
      </trkpt>
      <trkpt lat="51.178481038659811" lon="8.669878039509058">
        <ele>425.04000000000002</ele>
        <time>2015-09-13T11:31:30Z</time>
      </trkpt>
      <trkpt lat="51.178921004757285" lon="8.670262014493346">
        <ele>428.39999999999998</ele>
        <time>2015-09-13T11:31:33Z</time>
      </trkpt>
      <trkpt lat="51.179261980578303" lon="8.670336026698351">
        <ele>428.88999999999999</ele>
        <time>2015-09-13T11:31:35Z</time>
      </trkpt>
      <trkpt lat="51.181964976713061" lon="8.670583963394165">
        <ele>423.60000000000002</ele>
        <time>2015-09-13T11:31:50Z</time>
      </trkpt>
      <trkpt lat="51.183682009577751" lon="8.670510035008192">
        <ele>411.10000000000002</ele>
        <time>2015-09-13T11:31:58Z</time>
      </trkpt>
      <trkpt lat="51.18557196110487" lon="8.670903984457254">
        <ele>402.93000000000001</ele>
        <time>2015-09-13T11:32:06Z</time>
      </trkpt>
      <trkpt lat="51.188203040510416" lon="8.671601023525">
        <ele>394.75999999999999</ele>
        <time>2015-09-13T11:32:17Z</time>
      </trkpt>
      <trkpt lat="51.188391968607903" lon="8.67164502851665">
        <ele>394.75999999999999</ele>
        <time>2015-09-13T11:32:18Z</time>
      </trkpt>
      <trkpt lat="51.190764969214797" lon="8.671014960855246">
        <ele>389.94999999999999</ele>
        <time>2015-09-13T11:32:30Z</time>
      </trkpt>
      <trkpt lat="51.193443993106484" lon="8.670065039768815">
        <ele>391.38999999999999</ele>
        <time>2015-09-13T11:32:42Z</time>
      </trkpt>
      <trkpt lat="51.194641012698412" lon="8.668783027678728">
        <ele>401.49000000000001</ele>
        <time>2015-09-13T11:32:49Z</time>
      </trkpt>
      <trkpt lat="51.194732962176204" lon="8.668528972193599">
        <ele>403.41000000000003</ele>
        <time>2015-09-13T11:32:50Z</time>
      </trkpt>
      <trkpt lat="51.19556000456214" lon="8.666373984888196">
        <ele>416.38999999999999</ele>
        <time>2015-09-13T11:32:59Z</time>
      </trkpt>
      <trkpt lat="51.196083035320044" lon="8.66586696356535">
        <ele>419.26999999999998</ele>
        <time>2015-09-13T11:33:03Z</time>
      </trkpt>
      <trkpt lat="51.196703966706991" lon="8.665719022974372">
        <ele>421.19</ele>
        <time>2015-09-13T11:33:07Z</time>
      </trkpt>
      <trkpt lat="51.198420999571681" lon="8.664496019482613">
        <ele>423.12</ele>
        <time>2015-09-13T11:33:20Z</time>
      </trkpt>
      <trkpt lat="51.198607999831438" lon="8.664030991494656">
        <ele>424.07999999999998</ele>
        <time>2015-09-13T11:33:24Z</time>
      </trkpt>
      <trkpt lat="51.19876298122108" lon="8.662817040458322">
        <ele>425.04000000000002</ele>
        <time>2015-09-13T11:33:31Z</time>
      </trkpt>
      <trkpt lat="51.198858032003045" lon="8.662463994696736">
        <ele>425.51999999999998</ele>
        <time>2015-09-13T11:33:33Z</time>
      </trkpt>
      <trkpt lat="51.199251981452107" lon="8.662121007218957">
        <ele>426.48000000000002</ele>
        <time>2015-09-13T11:33:37Z</time>
      </trkpt>
      <trkpt lat="51.20071898214519" lon="8.661309974268079">
        <ele>426</ele>
        <time>2015-09-13T11:33:50Z</time>
      </trkpt>
      <trkpt lat="51.20123497210443" lon="8.661163961514831">
        <ele>425.51999999999998</ele>
        <time>2015-09-13T11:33:56Z</time>
      </trkpt>
      <trkpt lat="51.201295992359519" lon="8.661269992589951">
        <ele>425.51999999999998</ele>
        <time>2015-09-13T11:33:57Z</time>
      </trkpt>
      <trkpt lat="51.20136003009975" lon="8.661388009786606">
        <ele>425.51999999999998</ele>
        <time>2015-09-13T11:33:58Z</time>
      </trkpt>
      <trkpt lat="51.201795972883701" lon="8.662801031023264">
        <ele>425.51999999999998</ele>
        <time>2015-09-13T11:34:05Z</time>
      </trkpt>
      <trkpt lat="51.201830003410578" lon="8.663079980760813">
        <ele>426</ele>
        <time>2015-09-13T11:34:06Z</time>
      </trkpt>
      <trkpt lat="51.202109958976507" lon="8.665677029639483">
        <ele>428.39999999999998</ele>
        <time>2015-09-13T11:34:14Z</time>
      </trkpt>
      <trkpt lat="51.202604994177818" lon="8.669078992679715">
        <ele>433.20999999999998</ele>
        <time>2015-09-13T11:34:25Z</time>
      </trkpt>
      <trkpt lat="51.202696021646261" lon="8.66934503428638">
        <ele>433.20999999999998</ele>
        <time>2015-09-13T11:34:26Z</time>
      </trkpt>
      <trkpt lat="51.202874975278974" lon="8.669863035902381">
        <ele>432.73000000000002</ele>
        <time>2015-09-13T11:34:28Z</time>
      </trkpt>
      <trkpt lat="51.202930966392159" lon="8.670448008924723">
        <ele>431.76999999999998</ele>
        <time>2015-09-13T11:34:30Z</time>
      </trkpt>
      <trkpt lat="51.203012019395828" lon="8.67293399758637">
        <ele>434.64999999999998</ele>
        <time>2015-09-13T11:34:38Z</time>
      </trkpt>
      <trkpt lat="51.203059041872621" lon="8.673225017264485">
        <ele>434.64999999999998</ele>
        <time>2015-09-13T11:34:39Z</time>
      </trkpt>
      <trkpt lat="51.203410997986794" lon="8.673871010541916">
        <ele>436.57999999999998</ele>
        <time>2015-09-13T11:34:42Z</time>
      </trkpt>
      <trkpt lat="51.204406013712287" lon="8.675008015707135">
        <ele>441.86000000000001</ele>
        <time>2015-09-13T11:34:48Z</time>
      </trkpt>
      <trkpt lat="51.204931978136301" lon="8.675042968243361">
        <ele>443.79000000000002</ele>
        <time>2015-09-13T11:34:51Z</time>
      </trkpt>
      <trkpt lat="51.205257028341293" lon="8.674805006012321">
        <ele>444.75</ele>
        <time>2015-09-13T11:34:53Z</time>
      </trkpt>
      <trkpt lat="51.205430030822754" lon="8.674662010744214">
        <ele>445.23000000000002</ele>
        <time>2015-09-13T11:34:54Z</time>
      </trkpt>
      <trkpt lat="51.207109009847045" lon="8.674130011349917">
        <ele>448.58999999999997</ele>
        <time>2015-09-13T11:35:03Z</time>
      </trkpt>
      <trkpt lat="51.2073789909482" lon="8.674279963597655">
        <ele>450.02999999999997</ele>
        <time>2015-09-13T11:35:05Z</time>
      </trkpt>
      <trkpt lat="51.207497008144855" lon="8.674381971359253">
        <ele>450.51999999999998</ele>
        <time>2015-09-13T11:35:06Z</time>
      </trkpt>
      <trkpt lat="51.20785097591579" lon="8.674966022372246">
        <ele>451.95999999999998</ele>
        <time>2015-09-13T11:35:13Z</time>
      </trkpt>
      <trkpt lat="51.207983996719122" lon="8.674737028777599">
        <ele>453.39999999999998</ele>
        <time>2015-09-13T11:35:17Z</time>
      </trkpt>
      <trkpt lat="51.208184994757175" lon="8.674387000501156">
        <ele>454.36000000000001</ele>
        <time>2015-09-13T11:35:20Z</time>
      </trkpt>
      <trkpt lat="51.208383981138468" lon="8.674077037721872">
        <ele>454.36000000000001</ele>
        <time>2015-09-13T11:35:22Z</time>
      </trkpt>
      <trkpt lat="51.210249960422516" lon="8.672592015936971">
        <ele>457.24000000000001</ele>
        <time>2015-09-13T11:35:33Z</time>
      </trkpt>
      <trkpt lat="51.211413033306599" lon="8.671595994383097">
        <ele>463.49000000000001</ele>
        <time>2015-09-13T11:35:40Z</time>
      </trkpt>
      <trkpt lat="51.211677985265851" lon="8.671185029670596">
        <ele>465.89999999999998</ele>
        <time>2015-09-13T11:35:42Z</time>
      </trkpt>
      <trkpt lat="51.212035976350307" lon="8.670070990920067">
        <ele>469.25999999999999</ele>
        <time>2015-09-13T11:35:46Z</time>
      </trkpt>
      <trkpt lat="51.212262958288193" lon="8.669147975742817">
        <ele>471.66000000000003</ele>
        <time>2015-09-13T11:35:49Z</time>
      </trkpt>
      <trkpt lat="51.21270895935595" lon="8.668374996632338">
        <ele>475.02999999999997</ele>
        <time>2015-09-13T11:35:52Z</time>
      </trkpt>
      <trkpt lat="51.212866958230734" lon="8.668092023581266">
        <ele>475.99000000000001</ele>
        <time>2015-09-13T11:35:53Z</time>
      </trkpt>
      <trkpt lat="51.213177004829049" lon="8.666628040373325">
        <ele>480.31999999999999</ele>
        <time>2015-09-13T11:35:57Z</time>
      </trkpt>
      <trkpt lat="51.213226038962603" lon="8.666236018761993">
        <ele>481.75999999999999</ele>
        <time>2015-09-13T11:35:58Z</time>
      </trkpt>
      <trkpt lat="51.213405998423696" lon="8.661683974787593">
        <ele>496.18000000000001</ele>
        <time>2015-09-13T11:36:09Z</time>
      </trkpt>
      <trkpt lat="51.213125959038734" lon="8.657914968207479">
        <ele>506.75</ele>
        <time>2015-09-13T11:36:18Z</time>
      </trkpt>
      <trkpt lat="51.212983969599009" lon="8.653628965839744">
        <ele>518.76999999999998</ele>
        <time>2015-09-13T11:36:28Z</time>
      </trkpt>
      <trkpt lat="51.212935019284487" lon="8.65159903652966">
        <ele>524.05999999999995</ele>
        <time>2015-09-13T11:36:33Z</time>
      </trkpt>
      <trkpt lat="51.212796969339252" lon="8.650908032432199">
        <ele>525.98000000000002</ele>
        <time>2015-09-13T11:36:35Z</time>
      </trkpt>
      <trkpt lat="51.212541991844773" lon="8.649027971550822">
        <ele>531.75</ele>
        <time>2015-09-13T11:36:41Z</time>
      </trkpt>
      <trkpt lat="51.212721029296517" lon="8.647992974147201">
        <ele>533.66999999999996</ele>
        <time>2015-09-13T11:36:45Z</time>
      </trkpt>
      <trkpt lat="51.213304996490479" lon="8.646676009520888">
        <ele>536.54999999999995</ele>
        <time>2015-09-13T11:36:52Z</time>
      </trkpt>
      <trkpt lat="51.213297033682466" lon="8.646437963470817">
        <ele>536.54999999999995</ele>
        <time>2015-09-13T11:36:53Z</time>
      </trkpt>
      <trkpt lat="51.213124031201005" lon="8.643854996189475">
        <ele>544.24000000000001</ele>
        <time>2015-09-13T11:37:05Z</time>
      </trkpt>
      <trkpt lat="51.212830999866128" lon="8.641164992004633">
        <ele>550.97000000000003</ele>
        <time>2015-09-13T11:37:18Z</time>
      </trkpt>
      <trkpt lat="51.212811972945929" lon="8.637736039236188">
        <ele>555.29999999999995</ele>
        <time>2015-09-13T11:37:34Z</time>
      </trkpt>
      <trkpt lat="51.213068962097168" lon="8.635899983346462">
        <ele>551.92999999999995</ele>
        <time>2015-09-13T11:37:42Z</time>
      </trkpt>
      <trkpt lat="51.213546982035041" lon="8.633773997426033">
        <ele>549.04999999999995</ele>
        <time>2015-09-13T11:37:48Z</time>
      </trkpt>
      <trkpt lat="51.214443007484078" lon="8.629902983084321">
        <ele>566.35000000000002</ele>
        <time>2015-09-13T11:37:57Z</time>
      </trkpt>
      <trkpt lat="51.214947011321783" lon="8.626297004520893">
        <ele>589.42999999999995</ele>
        <time>2015-09-13T11:38:05Z</time>
      </trkpt>
      <trkpt lat="51.215403992682695" lon="8.62132896669209">
        <ele>623.07000000000005</ele>
        <time>2015-09-13T11:38:16Z</time>
      </trkpt>
      <trkpt lat="51.215711021795869" lon="8.61879101023078">
        <ele>641.34000000000003</ele>
        <time>2015-09-13T11:38:23Z</time>
      </trkpt>
      <trkpt lat="51.215902967378497" lon="8.618241995573044">
        <ele>645.65999999999997</ele>
        <time>2015-09-13T11:38:25Z</time>
      </trkpt>
      <trkpt lat="51.21601402759552" lon="8.61797695979476">
        <ele>647.59000000000003</ele>
        <time>2015-09-13T11:38:26Z</time>
      </trkpt>
      <trkpt lat="51.216279985383153" lon="8.617472033947706">
        <ele>651.42999999999995</ele>
        <time>2015-09-13T11:38:28Z</time>
      </trkpt>
      <trkpt lat="51.216620039194822" lon="8.617021003738046">
        <ele>655.27999999999997</ele>
        <time>2015-09-13T11:38:30Z</time>
      </trkpt>
      <trkpt lat="51.218812996521592" lon="8.614713968709111">
        <ele>676.90999999999997</ele>
        <time>2015-09-13T11:38:40Z</time>
      </trkpt>
      <trkpt lat="51.220461968332529" lon="8.613138003274798">
        <ele>694.21000000000004</ele>
        <time>2015-09-13T11:38:48Z</time>
      </trkpt>
      <trkpt lat="51.221477016806602" lon="8.612875984981656">
        <ele>703.34000000000003</ele>
        <time>2015-09-13T11:38:53Z</time>
      </trkpt>
      <trkpt lat="51.222817031666636" lon="8.613154012709856">
        <ele>707.19000000000005</ele>
        <time>2015-09-13T11:39:00Z</time>
      </trkpt>
      <trkpt lat="51.222991039976478" lon="8.613172033801675">
        <ele>707.19000000000005</ele>
        <time>2015-09-13T11:39:01Z</time>
      </trkpt>
      <trkpt lat="51.223302008584142" lon="8.613006994128227">
        <ele>705.75</ele>
        <time>2015-09-13T11:39:03Z</time>
      </trkpt>
      <trkpt lat="51.223759995773435" lon="8.612370975315571">
        <ele>701.89999999999998</ele>
        <time>2015-09-13T11:39:07Z</time>
      </trkpt>
      <trkpt lat="51.223910031840205" lon="8.611778039485216">
        <ele>697.57000000000005</ele>
        <time>2015-09-13T11:39:10Z</time>
      </trkpt>
      <trkpt lat="51.223919000476599" lon="8.611383000388742">
        <ele>694.21000000000004</ele>
        <time>2015-09-13T11:39:12Z</time>
      </trkpt>
      <trkpt lat="51.223700987175107" lon="8.609756994992495">
        <ele>685.08000000000004</ele>
        <time>2015-09-13T11:39:22Z</time>
      </trkpt>
      <trkpt lat="51.223266972228885" lon="8.608183041214943">
        <ele>679.30999999999995</ele>
        <time>2015-09-13T11:39:30Z</time>
      </trkpt>
      <trkpt lat="51.222807979211211" lon="8.607163969427347">
        <ele>674.5</ele>
        <time>2015-09-13T11:39:39Z</time>
      </trkpt>
      <trkpt lat="51.222758023068309" lon="8.60693103633821">
        <ele>673.05999999999995</ele>
        <time>2015-09-13T11:39:41Z</time>
      </trkpt>
      <trkpt lat="51.222735978662968" lon="8.60680103302002">
        <ele>672.10000000000002</ele>
        <time>2015-09-13T11:39:42Z</time>
      </trkpt>
      <trkpt lat="51.222798004746437" lon="8.606096031144261">
        <ele>669.70000000000005</ele>
        <time>2015-09-13T11:39:47Z</time>
      </trkpt>
      <trkpt lat="51.222876040264964" lon="8.60542799346149">
        <ele>667.76999999999998</ele>
        <time>2015-09-13T11:39:53Z</time>
      </trkpt>
      <trkpt lat="51.223114002496004" lon="8.605232024565339">
        <ele>666.33000000000004</ele>
        <time>2015-09-13T11:39:56Z</time>
      </trkpt>
      <trkpt lat="51.223194971680641" lon="8.605151977390051">
        <ele>665.85000000000002</ele>
        <time>2015-09-13T11:39:57Z</time>
      </trkpt>
      <trkpt lat="51.223379038274288" lon="8.604987021535635">
        <ele>664.88999999999999</ele>
        <time>2015-09-13T11:39:59Z</time>
      </trkpt>
      <trkpt lat="51.223608031868935" lon="8.604918038472533">
        <ele>664.40999999999997</ele>
        <time>2015-09-13T11:40:01Z</time>
      </trkpt>
      <trkpt lat="51.223853034898639" lon="8.604953996837139">
        <ele>664.40999999999997</ele>
        <time>2015-09-13T11:40:03Z</time>
      </trkpt>
      <trkpt lat="51.224184958264232" lon="8.605391029268503">
        <ele>661.51999999999998</ele>
        <time>2015-09-13T11:40:07Z</time>
      </trkpt>
      <trkpt lat="51.224904963746667" lon="8.606413034722209">
        <ele>654.30999999999995</ele>
        <time>2015-09-13T11:40:15Z</time>
      </trkpt>
      <trkpt lat="51.226261993870139" lon="8.607817003503442">
        <ele>643.74000000000001</ele>
        <time>2015-09-13T11:40:25Z</time>
      </trkpt>
      <trkpt lat="51.226883009076118" lon="8.608375992625952">
        <ele>639.40999999999997</ele>
        <time>2015-09-13T11:40:30Z</time>
      </trkpt>
      <trkpt lat="51.227145027369261" lon="8.608410023152828">
        <ele>637.97000000000003</ele>
        <time>2015-09-13T11:40:32Z</time>
      </trkpt>
      <trkpt lat="51.227276958525181" lon="8.608408011496067">
        <ele>637.49000000000001</ele>
        <time>2015-09-13T11:40:33Z</time>
      </trkpt>
      <trkpt lat="51.227491032332182" lon="8.608211958780885">
        <ele>635.57000000000005</ele>
        <time>2015-09-13T11:40:35Z</time>
      </trkpt>
      <trkpt lat="51.227799989283085" lon="8.60757602378726">
        <ele>631.72000000000003</ele>
        <time>2015-09-13T11:40:40Z</time>
      </trkpt>
      <trkpt lat="51.228015990927815" lon="8.607675014063716">
        <ele>630.75999999999999</ele>
        <time>2015-09-13T11:40:44Z</time>
      </trkpt>
      <trkpt lat="51.228082962334156" lon="8.607955975458026">
        <ele>630.75999999999999</ele>
        <time>2015-09-13T11:40:46Z</time>
      </trkpt>
      <trkpt lat="51.228766003623605" lon="8.611705033108592">
        <ele>625.47000000000003</ele>
        <time>2015-09-13T11:41:00Z</time>
      </trkpt>
      <trkpt lat="51.229320969432592" lon="8.614512970671058">
        <ele>619.23000000000002</ele>
        <time>2015-09-13T11:41:09Z</time>
      </trkpt>
      <trkpt lat="51.22963503934443" lon="8.615920040756464">
        <ele>616.34000000000003</ele>
        <time>2015-09-13T11:41:14Z</time>
      </trkpt>
      <trkpt lat="51.229621041566133" lon="8.617085963487625">
        <ele>613.46000000000004</ele>
        <time>2015-09-13T11:41:18Z</time>
      </trkpt>
      <trkpt lat="51.22950604185462" lon="8.618230009451509">
        <ele>611.05999999999995</ele>
        <time>2015-09-13T11:41:22Z</time>
      </trkpt>
      <trkpt lat="51.229779040440917" lon="8.620620025321841">
        <ele>605.28999999999996</ele>
        <time>2015-09-13T11:41:30Z</time>
      </trkpt>
      <trkpt lat="51.230213977396488" lon="8.621959034353495">
        <ele>602.39999999999998</ele>
        <time>2015-09-13T11:41:36Z</time>
      </trkpt>
      <trkpt lat="51.230219006538391" lon="8.622369999065995">
        <ele>601.44000000000005</ele>
        <time>2015-09-13T11:41:38Z</time>
      </trkpt>
      <trkpt lat="51.230104006826878" lon="8.623013980686665">
        <ele>599.51999999999998</ele>
        <time>2015-09-13T11:41:41Z</time>
      </trkpt>
      <trkpt lat="51.230055978521705" lon="8.623492000624538">
        <ele>597.60000000000002</ele>
        <time>2015-09-13T11:41:43Z</time>
      </trkpt>
      <trkpt lat="51.230149017646909" lon="8.624623976647854">
        <ele>593.75</ele>
        <time>2015-09-13T11:41:47Z</time>
      </trkpt>
      <trkpt lat="51.230191010981798" lon="8.624920025467873">
        <ele>592.78999999999996</ele>
        <time>2015-09-13T11:41:48Z</time>
      </trkpt>
      <trkpt lat="51.230630977079272" lon="8.626519041135907">
        <ele>587.98000000000002</ele>
        <time>2015-09-13T11:41:54Z</time>
      </trkpt>
      <trkpt lat="51.231073960661888" lon="8.62751598469913">
        <ele>584.62</ele>
        <time>2015-09-13T11:41:59Z</time>
      </trkpt>
      <trkpt lat="51.231136992573738" lon="8.627658979967237">
        <ele>584.13999999999999</ele>
        <time>2015-09-13T11:42:00Z</time>
      </trkpt>
      <trkpt lat="51.230984022840858" lon="8.629694022238255">
        <ele>576.92999999999995</ele>
        <time>2015-09-13T11:42:11Z</time>
      </trkpt>
      <trkpt lat="51.231001960113645" lon="8.631525970995426">
        <ele>570.67999999999995</ele>
        <time>2015-09-13T11:42:18Z</time>
      </trkpt>
      <trkpt lat="51.231434969231486" lon="8.635766040533781">
        <ele>549.52999999999997</ele>
        <time>2015-09-13T11:42:33Z</time>
      </trkpt>
      <trkpt lat="51.231921035796404" lon="8.638529973104596">
        <ele>537.99000000000001</ele>
        <time>2015-09-13T11:42:44Z</time>
      </trkpt>
      <trkpt lat="51.232037041336298" lon="8.638872038573027">
        <ele>537.02999999999997</ele>
        <time>2015-09-13T11:42:46Z</time>
      </trkpt>
      <trkpt lat="51.232093032449484" lon="8.639025008305907">
        <ele>537.02999999999997</ele>
        <time>2015-09-13T11:42:47Z</time>
      </trkpt>
      <trkpt lat="51.232290007174015" lon="8.639375036582351">
        <ele>536.54999999999995</ele>
        <time>2015-09-13T11:42:50Z</time>
      </trkpt>
      <trkpt lat="51.232753023505211" lon="8.639798993244767">
        <ele>534.63</ele>
        <time>2015-09-13T11:42:55Z</time>
      </trkpt>
      <trkpt lat="51.232916973531246" lon="8.640143992379308">
        <ele>532.71000000000004</ele>
        <time>2015-09-13T11:42:58Z</time>
      </trkpt>
      <trkpt lat="51.232854025438428" lon="8.640683032572269">
        <ele>531.75</ele>
        <time>2015-09-13T11:43:01Z</time>
      </trkpt>
      <trkpt lat="51.232765009626746" lon="8.641096008941531">
        <ele>529.82000000000005</ele>
        <time>2015-09-13T11:43:04Z</time>
      </trkpt>
      <trkpt lat="51.232725027948618" lon="8.641740996390581">
        <ele>525.98000000000002</ele>
        <time>2015-09-13T11:43:08Z</time>
      </trkpt>
      <trkpt lat="51.23286098241806" lon="8.642151039093733">
        <ele>523.58000000000004</ele>
        <time>2015-09-13T11:43:11Z</time>
      </trkpt>
      <trkpt lat="51.233015041798353" lon="8.642445998266339">
        <ele>522.13</ele>
        <time>2015-09-13T11:43:13Z</time>
      </trkpt>
      <trkpt lat="51.233152002096176" lon="8.643219983205199">
        <ele>518.76999999999998</ele>
        <time>2015-09-13T11:43:17Z</time>
      </trkpt>
      <trkpt lat="51.233025016263127" lon="8.644557986408472">
        <ele>514.44000000000005</ele>
        <time>2015-09-13T11:43:23Z</time>
      </trkpt>
      <trkpt lat="51.233751978725195" lon="8.647344969213009">
        <ele>508.19</ele>
        <time>2015-09-13T11:43:34Z</time>
      </trkpt>
      <trkpt lat="51.234117010608315" lon="8.649011962115765">
        <ele>505.79000000000002</ele>
        <time>2015-09-13T11:43:40Z</time>
      </trkpt>
      <trkpt lat="51.234592013061047" lon="8.651248002424836">
        <ele>501.45999999999998</ele>
        <time>2015-09-13T11:43:48Z</time>
      </trkpt>
      <trkpt lat="51.234860988333821" lon="8.653194028884172">
        <ele>497.62</ele>
        <time>2015-09-13T11:43:56Z</time>
      </trkpt>
      <trkpt lat="51.235579987987876" lon="8.654763959348202">
        <ele>494.25999999999999</ele>
        <time>2015-09-13T11:44:05Z</time>
      </trkpt>
      <trkpt lat="51.23567302711308" lon="8.654892034828663">
        <ele>494.25999999999999</ele>
        <time>2015-09-13T11:44:06Z</time>
      </trkpt>
      <trkpt lat="51.235778974369168" lon="8.654991025105119">
        <ele>493.76999999999998</ele>
        <time>2015-09-13T11:44:07Z</time>
      </trkpt>
      <trkpt lat="51.236233022063971" lon="8.655395032837987">
        <ele>491.85000000000002</ele>
        <time>2015-09-13T11:44:11Z</time>
      </trkpt>
      <trkpt lat="51.2363610137254" lon="8.655451023951173">
        <ele>490.88999999999999</ele>
        <time>2015-09-13T11:44:12Z</time>
      </trkpt>
      <trkpt lat="51.239387970417738" lon="8.656805958598852">
        <ele>489.44999999999999</ele>
        <time>2015-09-13T11:44:40Z</time>
      </trkpt>
      <trkpt lat="51.239703968167305" lon="8.657017014920712">
        <ele>486.56</ele>
        <time>2015-09-13T11:44:44Z</time>
      </trkpt>
      <trkpt lat="51.239921981468797" lon="8.657218012958765">
        <ele>484.16000000000003</ele>
        <time>2015-09-13T11:44:47Z</time>
      </trkpt>
      <trkpt lat="51.240192968398333" lon="8.657161016017199">
        <ele>482.24000000000001</ele>
        <time>2015-09-13T11:44:51Z</time>
      </trkpt>
      <trkpt lat="51.240298999473453" lon="8.657054984942079">
        <ele>482.72000000000003</ele>
        <time>2015-09-13T11:44:53Z</time>
      </trkpt>
      <trkpt lat="51.240620026364923" lon="8.656968986615539">
        <ele>482.72000000000003</ele>
        <time>2015-09-13T11:44:58Z</time>
      </trkpt>
      <trkpt lat="51.240756986662745" lon="8.657075017690659">
        <ele>483.19999999999999</ele>
        <time>2015-09-13T11:45:00Z</time>
      </trkpt>
      <trkpt lat="51.241257973015308" lon="8.658579988405109">
        <ele>488.49000000000001</ele>
        <time>2015-09-13T11:45:10Z</time>
      </trkpt>
      <trkpt lat="51.241430975496769" lon="8.659349028021097">
        <ele>488.00999999999999</ele>
        <time>2015-09-13T11:45:14Z</time>
      </trkpt>
      <trkpt lat="51.242091972380877" lon="8.661244008690119">
        <ele>482.72000000000003</ele>
        <time>2015-09-13T11:45:23Z</time>
      </trkpt>
      <trkpt lat="51.242381986230612" lon="8.662516968324781">
        <ele>479.83999999999997</ele>
        <time>2015-09-13T11:45:28Z</time>
      </trkpt>
      <trkpt lat="51.242878027260303" lon="8.663405030965805">
        <ele>477.91000000000003</ele>
        <time>2015-09-13T11:45:32Z</time>
      </trkpt>
      <trkpt lat="51.244087032973766" lon="8.664495013654232">
        <ele>474.55000000000001</ele>
        <time>2015-09-13T11:45:39Z</time>
      </trkpt>
      <trkpt lat="51.244629006832838" lon="8.665449041873217">
        <ele>472.63</ele>
        <time>2015-09-13T11:45:43Z</time>
      </trkpt>
      <trkpt lat="51.24474098905921" lon="8.66573503240943">
        <ele>472.13999999999999</ele>
        <time>2015-09-13T11:45:44Z</time>
      </trkpt>
      <trkpt lat="51.245598960667849" lon="8.667363971471787">
        <ele>468.30000000000001</ele>
        <time>2015-09-13T11:45:50Z</time>
      </trkpt>
      <trkpt lat="51.246649967506528" lon="8.669421980157495">
        <ele>462.05000000000001</ele>
        <time>2015-09-13T11:45:57Z</time>
      </trkpt>
      <trkpt lat="51.247047018259764" lon="8.67175399325788">
        <ele>456.75999999999999</ele>
        <time>2015-09-13T11:46:03Z</time>
      </trkpt>
      <trkpt lat="51.247433004900813" lon="8.674268983304501">
        <ele>451</ele>
        <time>2015-09-13T11:46:10Z</time>
      </trkpt>
      <trkpt lat="51.247927034273744" lon="8.676332021132112">
        <ele>446.19</ele>
        <time>2015-09-13T11:46:18Z</time>
      </trkpt>
      <trkpt lat="51.247929967939854" lon="8.67785501293838">
        <ele>442.33999999999997</ele>
        <time>2015-09-13T11:46:25Z</time>
      </trkpt>
      <trkpt lat="51.247717989608645" lon="8.679993990808725">
        <ele>440.42000000000002</ele>
        <time>2015-09-13T11:46:36Z</time>
      </trkpt>
      <trkpt lat="51.247677002102137" lon="8.680558009073138">
        <ele>439.94</ele>
        <time>2015-09-13T11:46:39Z</time>
      </trkpt>
      <trkpt lat="51.246822969987988" lon="8.684830013662577">
        <ele>438.5</ele>
        <time>2015-09-13T11:46:56Z</time>
      </trkpt>
      <trkpt lat="51.24589903280139" lon="8.68737299926579">
        <ele>435.13</ele>
        <time>2015-09-13T11:47:04Z</time>
      </trkpt>
      <trkpt lat="51.245853016152978" lon="8.688915017992258">
        <ele>434.64999999999998</ele>
        <time>2015-09-13T11:47:08Z</time>
      </trkpt>
      <trkpt lat="51.246484005823731" lon="8.693757997825742">
        <ele>434.17000000000002</ele>
        <time>2015-09-13T11:47:20Z</time>
      </trkpt>
      <trkpt lat="51.246906034648418" lon="8.694758964702487">
        <ele>432.25</ele>
        <time>2015-09-13T11:47:23Z</time>
      </trkpt>
      <trkpt lat="51.249035960063338" lon="8.698313981294632">
        <ele>427.44</ele>
        <time>2015-09-13T11:47:34Z</time>
      </trkpt>
      <trkpt lat="51.25069297850132" lon="8.701990032568574">
        <ele>424.07999999999998</ele>
        <time>2015-09-13T11:47:46Z</time>
      </trkpt>
      <trkpt lat="51.250776965171099" lon="8.702220031991601">
        <ele>424.07999999999998</ele>
        <time>2015-09-13T11:47:47Z</time>
      </trkpt>
      <trkpt lat="51.250818036496639" lon="8.702475009486079">
        <ele>423.60000000000002</ele>
        <time>2015-09-13T11:47:48Z</time>
      </trkpt>
      <trkpt lat="51.251035965979099" lon="8.703758027404547">
        <ele>424.07999999999998</ele>
        <time>2015-09-13T11:47:54Z</time>
      </trkpt>
      <trkpt lat="51.251119030639529" lon="8.704077964648604">
        <ele>425.04000000000002</ele>
        <time>2015-09-13T11:47:56Z</time>
      </trkpt>
      <trkpt lat="51.251279041171074" lon="8.704398991540074">
        <ele>425.04000000000002</ele>
        <time>2015-09-13T11:47:59Z</time>
      </trkpt>
      <trkpt lat="51.251167980954051" lon="8.704928979277611">
        <ele>423.60000000000002</ele>
        <time>2015-09-13T11:48:02Z</time>
      </trkpt>
      <trkpt lat="51.250902023166418" lon="8.706401009112597">
        <ele>418.79000000000002</ele>
        <time>2015-09-13T11:48:08Z</time>
      </trkpt>
      <trkpt lat="51.250056037679315" lon="8.708306970074773">
        <ele>413.98000000000002</ele>
        <time>2015-09-13T11:48:17Z</time>
      </trkpt>
      <trkpt lat="51.249983031302691" lon="8.708486007526517">
        <ele>413.98000000000002</ele>
        <time>2015-09-13T11:48:18Z</time>
      </trkpt>
      <trkpt lat="51.249206028878689" lon="8.710399009287357">
        <ele>417.35000000000002</ele>
        <time>2015-09-13T11:48:30Z</time>
      </trkpt>
      <trkpt lat="51.248462973162532" lon="8.712333971634507">
        <ele>420.70999999999998</ele>
        <time>2015-09-13T11:48:43Z</time>
      </trkpt>
      <trkpt lat="51.247999034821987" lon="8.713788986206055">
        <ele>415.43000000000001</ele>
        <time>2015-09-13T11:48:52Z</time>
      </trkpt>
      <trkpt lat="51.247859979048371" lon="8.714233981445432">
        <ele>412.54000000000002</ele>
        <time>2015-09-13T11:48:55Z</time>
      </trkpt>
      <trkpt lat="51.247529983520508" lon="8.714907970279455">
        <ele>408.22000000000003</ele>
        <time>2015-09-13T11:49:00Z</time>
      </trkpt>
      <trkpt lat="51.247486984357238" lon="8.715063035488129">
        <ele>408.22000000000003</ele>
        <time>2015-09-13T11:49:01Z</time>
      </trkpt>
      <trkpt lat="51.247451025992632" lon="8.715391019359231">
        <ele>407.25999999999999</ele>
        <time>2015-09-13T11:49:03Z</time>
      </trkpt>
      <trkpt lat="51.247429987415671" lon="8.715722020715475">
        <ele>406.29000000000002</ele>
        <time>2015-09-13T11:49:05Z</time>
      </trkpt>
      <trkpt lat="51.247229995205998" lon="8.716148994863033">
        <ele>404.37</ele>
        <time>2015-09-13T11:49:08Z</time>
      </trkpt>
      <trkpt lat="51.246745018288493" lon="8.716670013964176">
        <ele>401.97000000000003</ele>
        <time>2015-09-13T11:49:13Z</time>
      </trkpt>
      <trkpt lat="51.246381998062134" lon="8.717157002538443">
        <ele>402.93000000000001</ele>
        <time>2015-09-13T11:49:17Z</time>
      </trkpt>
      <trkpt lat="51.24611503444612" lon="8.717504013329744">
        <ele>405.32999999999998</ele>
        <time>2015-09-13T11:49:20Z</time>
      </trkpt>
      <trkpt lat="51.245775986462831" lon="8.718027966096997">
        <ele>407.74000000000001</ele>
        <time>2015-09-13T11:49:24Z</time>
      </trkpt>
      <trkpt lat="51.245475998148322" lon="8.71833298355341">
        <ele>409.66000000000003</ele>
        <time>2015-09-13T11:49:27Z</time>
      </trkpt>
      <trkpt lat="51.24512798152864" lon="8.718498023226857">
        <ele>411.10000000000002</ele>
        <time>2015-09-13T11:49:30Z</time>
      </trkpt>
      <trkpt lat="51.24394797720015" lon="8.718807986006141">
        <ele>416.38999999999999</ele>
        <time>2015-09-13T11:49:40Z</time>
      </trkpt>
      <trkpt lat="51.242775013670325" lon="8.718641018494964">
        <ele>420.70999999999998</ele>
        <time>2015-09-13T11:49:49Z</time>
      </trkpt>
      <trkpt lat="51.242644004523754" lon="8.718584021553397">
        <ele>421.19</ele>
        <time>2015-09-13T11:49:50Z</time>
      </trkpt>
      <trkpt lat="51.242246031761169" lon="8.718394003808498">
        <ele>422.16000000000003</ele>
        <time>2015-09-13T11:49:53Z</time>
      </trkpt>
      <trkpt lat="51.241894997656345" lon="8.718002988025546">
        <ele>424.07999999999998</ele>
        <time>2015-09-13T11:49:56Z</time>
      </trkpt>
      <trkpt lat="51.24168997630477" lon="8.717671986669302">
        <ele>425.51999999999998</ele>
        <time>2015-09-13T11:49:58Z</time>
      </trkpt>
      <trkpt lat="51.241330979391932" lon="8.716609999537468">
        <ele>429.37</ele>
        <time>2015-09-13T11:50:03Z</time>
      </trkpt>
      <trkpt lat="51.240760004147887" lon="8.716027960181236">
        <ele>432.25</ele>
        <time>2015-09-13T11:50:07Z</time>
      </trkpt>
      <trkpt lat="51.23923902399838" lon="8.715241989120841">
        <ele>441.86000000000001</ele>
        <time>2015-09-13T11:50:15Z</time>
      </trkpt>
      <trkpt lat="51.237979978322983" lon="8.714002976194024">
        <ele>446.67000000000002</ele>
        <time>2015-09-13T11:50:22Z</time>
      </trkpt>
      <trkpt lat="51.236768960952759" lon="8.712648041546345">
        <ele>447.14999999999998</ele>
        <time>2015-09-13T11:50:28Z</time>
      </trkpt>
      <trkpt lat="51.23653301037848" lon="8.712483001872897">
        <ele>447.14999999999998</ele>
        <time>2015-09-13T11:50:29Z</time>
      </trkpt>
      <trkpt lat="51.235542017966509" lon="8.712287032976747">
        <ele>450.51999999999998</ele>
        <time>2015-09-13T11:50:33Z</time>
      </trkpt>
      <trkpt lat="51.235296009108424" lon="8.712313016876578">
        <ele>451.95999999999998</ele>
        <time>2015-09-13T11:50:34Z</time>
      </trkpt>
      <trkpt lat="51.234582038596272" lon="8.712657010182738">
        <ele>455.31999999999999</ele>
        <time>2015-09-13T11:50:37Z</time>
      </trkpt>
      <trkpt lat="51.234136037528515" lon="8.713045008480549">
        <ele>457.72000000000003</ele>
        <time>2015-09-13T11:50:39Z</time>
      </trkpt>
      <trkpt lat="51.233560033142567" lon="8.713823016732931">
        <ele>461.56999999999999</ele>
        <time>2015-09-13T11:50:42Z</time>
      </trkpt>
      <trkpt lat="51.23337403871119" lon="8.714073970913887">
        <ele>462.52999999999997</ele>
        <time>2015-09-13T11:50:43Z</time>
      </trkpt>
      <trkpt lat="51.232462003827095" lon="8.714489964768291">
        <ele>466.38</ele>
        <time>2015-09-13T11:50:47Z</time>
      </trkpt>
      <trkpt lat="51.231544017791748" lon="8.714186036959291">
        <ele>468.77999999999997</ele>
        <time>2015-09-13T11:50:51Z</time>
      </trkpt>
      <trkpt lat="51.231099022552371" lon="8.713837014511228">
        <ele>467.81999999999999</ele>
        <time>2015-09-13T11:50:53Z</time>
      </trkpt>
      <trkpt lat="51.230868017300963" lon="8.713677003979683">
        <ele>467.33999999999997</ele>
        <time>2015-09-13T11:50:54Z</time>
      </trkpt>
      <trkpt lat="51.229885993525386" lon="8.713615983724594">
        <ele>468.30000000000001</ele>
        <time>2015-09-13T11:50:58Z</time>
      </trkpt>
      <trkpt lat="51.229428006336093" lon="8.713862998411059">
        <ele>470.69999999999999</ele>
        <time>2015-09-13T11:51:00Z</time>
      </trkpt>
      <trkpt lat="51.22688602656126" lon="8.715469976887107">
        <ele>481.27999999999997</ele>
        <time>2015-09-13T11:51:11Z</time>
      </trkpt>
      <trkpt lat="51.225120965391397" lon="8.715662006288767">
        <ele>479.83999999999997</ele>
        <time>2015-09-13T11:51:18Z</time>
      </trkpt>
      <trkpt lat="51.223452966660261" lon="8.715064963325858">
        <ele>470.22000000000003</ele>
        <time>2015-09-13T11:51:24Z</time>
      </trkpt>
      <trkpt lat="51.221064040437341" lon="8.714123005047441">
        <ele>465.89999999999998</ele>
        <time>2015-09-13T11:51:33Z</time>
      </trkpt>
      <trkpt lat="51.220412012189627" lon="8.714302964508534">
        <ele>463.97000000000003</ele>
        <time>2015-09-13T11:51:36Z</time>
      </trkpt>
      <trkpt lat="51.219819998368621" lon="8.714823983609676">
        <ele>460.61000000000001</ele>
        <time>2015-09-13T11:51:39Z</time>
      </trkpt>
      <trkpt lat="51.219271989539266" lon="8.715450027957559">
        <ele>456.75999999999999</ele>
        <time>2015-09-13T11:51:42Z</time>
      </trkpt>
      <trkpt lat="51.217547999694943" lon="8.716708989813924">
        <ele>444.75</ele>
        <time>2015-09-13T11:51:51Z</time>
      </trkpt>
      <trkpt lat="51.215876983478665" lon="8.717393958941102">
        <ele>435.13</ele>
        <time>2015-09-13T11:51:59Z</time>
      </trkpt>
      <trkpt lat="51.214100020006299" lon="8.718381011858583">
        <ele>428.39999999999998</ele>
        <time>2015-09-13T11:52:06Z</time>
      </trkpt>
      <trkpt lat="51.21214997023344" lon="8.719474012032151">
        <ele>425.51999999999998</ele>
        <time>2015-09-13T11:52:14Z</time>
      </trkpt>
      <trkpt lat="51.211915025487542" lon="8.719489015638828">
        <ele>426</ele>
        <time>2015-09-13T11:52:15Z</time>
      </trkpt>
      <trkpt lat="51.211026040837169" lon="8.719251975417137">
        <ele>426</ele>
        <time>2015-09-13T11:52:19Z</time>
      </trkpt>
      <trkpt lat="51.210183994844556" lon="8.719409974291921">
        <ele>423.12</ele>
        <time>2015-09-13T11:52:23Z</time>
      </trkpt>
      <trkpt lat="51.209152014926076" lon="8.71983896009624">
        <ele>418.31</ele>
        <time>2015-09-13T11:52:30Z</time>
      </trkpt>
      <trkpt lat="51.209079008549452" lon="8.719904003664851">
        <ele>418.31</ele>
        <time>2015-09-13T11:52:31Z</time>
      </trkpt>
      <trkpt lat="51.208759993314743" lon="8.719654977321625">
        <ele>416.87</ele>
        <time>2015-09-13T11:52:34Z</time>
      </trkpt>
      <trkpt lat="51.207726001739502" lon="8.718904964625835">
        <ele>417.35000000000002</ele>
        <time>2015-09-13T11:52:40Z</time>
      </trkpt>
      <trkpt lat="51.205403041094542" lon="8.717680033296347">
        <ele>418.79000000000002</ele>
        <time>2015-09-13T11:52:52Z</time>
      </trkpt>
      <trkpt lat="51.204343987628818" lon="8.717162031680346">
        <ele>414.94999999999999</ele>
        <time>2015-09-13T11:52:58Z</time>
      </trkpt>
      <trkpt lat="51.203946014866233" lon="8.716666996479034">
        <ele>412.06</ele>
        <time>2015-09-13T11:53:01Z</time>
      </trkpt>
      <trkpt lat="51.203822968527675" lon="8.716470021754503">
        <ele>411.10000000000002</ele>
        <time>2015-09-13T11:53:02Z</time>
      </trkpt>
      <trkpt lat="51.20245898142457" lon="8.714045975357294">
        <ele>398.60000000000002</ele>
        <time>2015-09-13T11:53:13Z</time>
      </trkpt>
      <trkpt lat="51.201032968237996" lon="8.711413973942399">
        <ele>392.83999999999997</ele>
        <time>2015-09-13T11:53:25Z</time>
      </trkpt>
      <trkpt lat="51.200228976085782" lon="8.710396997630596">
        <ele>395.72000000000003</ele>
        <time>2015-09-13T11:53:33Z</time>
      </trkpt>
      <trkpt lat="51.199216023087502" lon="8.70999600738287">
        <ele>399.07999999999998</ele>
        <time>2015-09-13T11:53:41Z</time>
      </trkpt>
      <trkpt lat="51.199089037254453" lon="8.709920989349484">
        <ele>399.07999999999998</ele>
        <time>2015-09-13T11:53:42Z</time>
      </trkpt>
      <trkpt lat="51.198271969333291" lon="8.709370968863368">
        <ele>401.49000000000001</ele>
        <time>2015-09-13T11:53:49Z</time>
      </trkpt>
      <trkpt lat="51.198198962956667" lon="8.709262004122138">
        <ele>401.49000000000001</ele>
        <time>2015-09-13T11:53:50Z</time>
      </trkpt>
      <trkpt lat="51.19811899960041" lon="8.708646018058062">
        <ele>402.93000000000001</ele>
        <time>2015-09-13T11:53:54Z</time>
      </trkpt>
      <trkpt lat="51.198188988491893" lon="8.704844992607832">
        <ele>404.37</ele>
        <time>2015-09-13T11:54:18Z</time>
      </trkpt>
      <trkpt lat="51.198124028742313" lon="8.704313999041915">
        <ele>403.41000000000003</ele>
        <time>2015-09-13T11:54:24Z</time>
      </trkpt>
      <trkpt lat="51.19796996936202" lon="8.704269994050264">
        <ele>402.93000000000001</ele>
        <time>2015-09-13T11:54:26Z</time>
      </trkpt>
      <trkpt lat="51.197032034397125" lon="8.704326990991831">
        <ele>397.16000000000003</ele>
        <time>2015-09-13T11:54:35Z</time>
      </trkpt>
      <trkpt lat="51.196821983903646" lon="8.704417012631893">
        <ele>395.24000000000001</ele>
        <time>2015-09-13T11:54:37Z</time>
      </trkpt>
      <trkpt lat="51.196523001417518" lon="8.704953035339713">
        <ele>392.36000000000001</ele>
        <time>2015-09-13T11:54:42Z</time>
      </trkpt>
      <trkpt lat="51.196483019739389" lon="8.70503299869597">
        <ele>391.87</ele>
        <time>2015-09-13T11:54:43Z</time>
      </trkpt>
      <trkpt lat="51.196217983961105" lon="8.704963009804487">
        <ele>391.38999999999999</ele>
        <time>2015-09-13T11:54:47Z</time>
      </trkpt>
      <trkpt lat="51.19611999951303" lon="8.704916993156076">
        <ele>390.91000000000003</ele>
        <time>2015-09-13T11:54:49Z</time>
      </trkpt>
      <trkpt lat="51.196037018671632" lon="8.705230979248881">
        <ele>390.91000000000003</ele>
        <time>2015-09-13T11:54:53Z</time>
      </trkpt>
      <trkpt lat="51.195745998993516" lon="8.706824965775013">
        <ele>392.36000000000001</ele>
        <time>2015-09-13T11:55:06Z</time>
      </trkpt>
      <trkpt lat="51.195677015930414" lon="8.706875005736947">
        <ele>392.36000000000001</ele>
        <time>2015-09-13T11:55:07Z</time>
      </trkpt>
      <trkpt lat="51.194888027384877" lon="8.706578034907579">
        <ele>395.24000000000001</ele>
        <time>2015-09-13T11:55:16Z</time>
      </trkpt>
      <trkpt lat="51.194327026605606" lon="8.706759000197053">
        <ele>398.60000000000002</ele>
        <time>2015-09-13T11:55:21Z</time>
      </trkpt>
      <trkpt lat="51.193134030327201" lon="8.707501972094178">
        <ele>403.41000000000003</ele>
        <time>2015-09-13T11:55:31Z</time>
      </trkpt>
      <trkpt lat="51.191739030182362" lon="8.707768013700843">
        <ele>408.22000000000003</ele>
        <time>2015-09-13T11:55:39Z</time>
      </trkpt>
      <trkpt lat="51.191056994721293" lon="8.707758961245418">
        <ele>410.13999999999999</ele>
        <time>2015-09-13T11:55:45Z</time>
      </trkpt>
      <trkpt lat="51.190901007503271" lon="8.707758961245418">
        <ele>410.62</ele>
        <time>2015-09-13T11:55:51Z</time>
      </trkpt>
      <trkpt lat="51.190717024728656" lon="8.70778301730752">
        <ele>411.10000000000002</ele>
        <time>2015-09-13T11:56:14Z</time>
      </trkpt>
      <trkpt lat="51.190130962058902" lon="8.708025002852082">
        <ele>409.66000000000003</ele>
        <time>2015-09-13T11:56:26Z</time>
      </trkpt>
      <trkpt lat="51.188995968550444" lon="8.708330020308495">
        <ele>405.32999999999998</ele>
        <time>2015-09-13T11:56:38Z</time>
      </trkpt>
      <trkpt lat="51.187928030267358" lon="8.708087028935552">
        <ele>400.52999999999997</ele>
        <time>2015-09-13T11:56:46Z</time>
      </trkpt>
      <trkpt lat="51.186727993190289" lon="8.707781005650759">
        <ele>396.19999999999999</ele>
        <time>2015-09-13T11:56:52Z</time>
      </trkpt>
      <trkpt lat="51.184956980869174" lon="8.707111040130258">
        <ele>392.83999999999997</ele>
        <time>2015-09-13T11:56:59Z</time>
      </trkpt>
      <trkpt lat="51.182378036901355" lon="8.705882001668215">
        <ele>391.87</ele>
        <time>2015-09-13T11:57:11Z</time>
      </trkpt>
      <trkpt lat="51.181656019762158" lon="8.70589298196137">
        <ele>390.91000000000003</ele>
        <time>2015-09-13T11:57:15Z</time>
      </trkpt>
      <trkpt lat="51.180823026224971" lon="8.706190036609769">
        <ele>386.58999999999997</ele>
        <time>2015-09-13T11:57:20Z</time>
      </trkpt>
      <trkpt lat="51.180299995467067" lon="8.706818008795381">
        <ele>382.74000000000001</ele>
        <time>2015-09-13T11:57:24Z</time>
      </trkpt>
      <trkpt lat="51.179482005536556" lon="8.707842025905848">
        <ele>376.97000000000003</ele>
        <time>2015-09-13T11:57:31Z</time>
      </trkpt>
      <trkpt lat="51.179205989465117" lon="8.707850994542241">
        <ele>374.56999999999999</ele>
        <time>2015-09-13T11:57:34Z</time>
      </trkpt>
      <trkpt lat="51.178929973393679" lon="8.707329975441098">
        <ele>372.17000000000002</ele>
        <time>2015-09-13T11:57:38Z</time>
      </trkpt>
      <trkpt lat="51.178600983694196" lon="8.706179978325963">
        <ele>368.31999999999999</ele>
        <time>2015-09-13T11:57:45Z</time>
      </trkpt>
      <trkpt lat="51.178483972325921" lon="8.706262959167361">
        <ele>366.88</ele>
        <time>2015-09-13T11:57:48Z</time>
      </trkpt>
      <trkpt lat="51.178442984819412" lon="8.706384999677539">
        <ele>366.39999999999998</ele>
        <time>2015-09-13T11:57:49Z</time>
      </trkpt>
      <trkpt lat="51.17839403450489" lon="8.706525983288884">
        <ele>365.92000000000002</ele>
        <time>2015-09-13T11:57:50Z</time>
      </trkpt>
      <trkpt lat="51.177856000140309" lon="8.707718979567289">
        <ele>359.67000000000002</ele>
        <time>2015-09-13T11:57:56Z</time>
      </trkpt>
      <trkpt lat="51.177196009084582" lon="8.70980397798121">
        <ele>351.98000000000002</ele>
        <time>2015-09-13T11:58:04Z</time>
      </trkpt>
      <trkpt lat="51.176947988569736" lon="8.71229499578476">
        <ele>349.57999999999998</ele>
        <time>2015-09-13T11:58:12Z</time>
      </trkpt>
      <trkpt lat="51.176496958360076" lon="8.715104022994638">
        <ele>349.57999999999998</ele>
        <time>2015-09-13T11:58:21Z</time>
      </trkpt>
      <trkpt lat="51.175410998985171" lon="8.719503013417125">
        <ele>346.20999999999998</ele>
        <time>2015-09-13T11:58:36Z</time>
      </trkpt>
      <trkpt lat="51.174326967447996" lon="8.724473984912038">
        <ele>343.81</ele>
        <time>2015-09-13T11:58:51Z</time>
      </trkpt>
      <trkpt lat="51.173520041629672" lon="8.726392015814781">
        <ele>341.88999999999999</ele>
        <time>2015-09-13T11:59:01Z</time>
      </trkpt>
      <trkpt lat="51.173390038311481" lon="8.726994004100561">
        <ele>341.88999999999999</ele>
        <time>2015-09-13T11:59:05Z</time>
      </trkpt>
      <trkpt lat="51.1731749586761" lon="8.727244958281517">
        <ele>341.41000000000003</ele>
        <time>2015-09-13T11:59:07Z</time>
      </trkpt>
      <trkpt lat="51.172858960926533" lon="8.727874020114541">
        <ele>340.44</ele>
        <time>2015-09-13T11:59:10Z</time>
      </trkpt>
      <trkpt lat="51.171012008562684" lon="8.731466000899673">
        <ele>339</ele>
        <time>2015-09-13T11:59:23Z</time>
      </trkpt>
      <trkpt lat="51.169084003195167" lon="8.734020972624421">
        <ele>335.63999999999999</ele>
        <time>2015-09-13T11:59:34Z</time>
      </trkpt>
      <trkpt lat="51.168899014592171" lon="8.734166985377669">
        <ele>335.63999999999999</ele>
        <time>2015-09-13T11:59:35Z</time>
      </trkpt>
      <trkpt lat="51.167477024719119" lon="8.735088994726539">
        <ele>336.12</ele>
        <time>2015-09-13T11:59:42Z</time>
      </trkpt>
      <trkpt lat="51.16713403724134" lon="8.735480010509491">
        <ele>336.60000000000002</ele>
        <time>2015-09-13T11:59:44Z</time>
      </trkpt>
      <trkpt lat="51.165294963866472" lon="8.737501977011561">
        <ele>336.60000000000002</ele>
        <time>2015-09-13T11:59:54Z</time>
      </trkpt>
      <trkpt lat="51.164638996124268" lon="8.737815041095018">
        <ele>336.12</ele>
        <time>2015-09-13T11:59:57Z</time>
      </trkpt>
      <trkpt lat="51.161953015252948" lon="8.738073036074638">
        <ele>333.23000000000002</ele>
        <time>2015-09-13T12:00:10Z</time>
      </trkpt>
      <trkpt lat="51.161408023908734" lon="8.738115029409528">
        <ele>334.19999999999999</ele>
        <time>2015-09-13T12:00:17Z</time>
      </trkpt>
      <trkpt lat="51.160693969577551" lon="8.738339999690652">
        <ele>335.16000000000003</ele>
        <time>2015-09-13T12:00:23Z</time>
      </trkpt>
      <trkpt lat="51.16053999401629" lon="8.738408982753754">
        <ele>335.16000000000003</ele>
        <time>2015-09-13T12:00:24Z</time>
      </trkpt>
      <trkpt lat="51.159770032390952" lon="8.739213980734348">
        <ele>333.70999999999998</ele>
        <time>2015-09-13T12:00:29Z</time>
      </trkpt>
      <trkpt lat="51.158822039142251" lon="8.740365989506245">
        <ele>333.23000000000002</ele>
        <time>2015-09-13T12:00:35Z</time>
      </trkpt>
      <trkpt lat="51.158481985330582" lon="8.740932019427419">
        <ele>332.75</ele>
        <time>2015-09-13T12:00:38Z</time>
      </trkpt>
      <trkpt lat="51.157934982329607" lon="8.741353964433074">
        <ele>332.26999999999998</ele>
        <time>2015-09-13T12:00:42Z</time>
      </trkpt>
      <trkpt lat="51.157622002065182" lon="8.7416029907763">
        <ele>331.31</ele>
        <time>2015-09-13T12:00:44Z</time>
      </trkpt>
      <trkpt lat="51.157384039834142" lon="8.741971040144563">
        <ele>330.35000000000002</ele>
        <time>2015-09-13T12:00:46Z</time>
      </trkpt>
      <trkpt lat="51.157155968248844" lon="8.742832029238343">
        <ele>329.87</ele>
        <time>2015-09-13T12:00:50Z</time>
      </trkpt>
      <trkpt lat="51.157025964930654" lon="8.743825033307076">
        <ele>329.38999999999999</ele>
        <time>2015-09-13T12:00:55Z</time>
      </trkpt>
      <trkpt lat="51.156582981348038" lon="8.744209008291364">
        <ele>330.35000000000002</ele>
        <time>2015-09-13T12:00:59Z</time>
      </trkpt>
      <trkpt lat="51.156452978029847" lon="8.744262987747788">
        <ele>330.82999999999998</ele>
        <time>2015-09-13T12:01:00Z</time>
      </trkpt>
      <trkpt lat="51.154144015163183" lon="8.746055960655212">
        <ele>332.26999999999998</ele>
        <time>2015-09-13T12:01:19Z</time>
      </trkpt>
      <trkpt lat="51.153941005468369" lon="8.746276991441846">
        <ele>331.31</ele>
        <time>2015-09-13T12:01:21Z</time>
      </trkpt>
      <trkpt lat="51.153618972748518" lon="8.746818965300918">
        <ele>327.94999999999999</ele>
        <time>2015-09-13T12:01:25Z</time>
      </trkpt>
      <trkpt lat="51.153173977509141" lon="8.746875040233135">
        <ele>324.57999999999998</ele>
        <time>2015-09-13T12:01:29Z</time>
      </trkpt>
      <trkpt lat="51.152836019173265" lon="8.746985010802746">
        <ele>323.62</ele>
        <time>2015-09-13T12:01:32Z</time>
      </trkpt>
      <trkpt lat="51.152733005583286" lon="8.747019041329622">
        <ele>323.13999999999999</ele>
        <time>2015-09-13T12:01:33Z</time>
      </trkpt>
      <trkpt lat="51.152580035850406" lon="8.747412990778685">
        <ele>323.13999999999999</ele>
        <time>2015-09-13T12:01:36Z</time>
      </trkpt>
      <trkpt lat="51.152541982010007" lon="8.747569983825088">
        <ele>323.13999999999999</ele>
        <time>2015-09-13T12:01:37Z</time>
      </trkpt>
      <trkpt lat="51.15209799259901" lon="8.749290034174919">
        <ele>321.22000000000003</ele>
        <time>2015-09-13T12:01:47Z</time>
      </trkpt>
      <trkpt lat="51.152069997042418" lon="8.74948700889945">
        <ele>321.22000000000003</ele>
        <time>2015-09-13T12:01:48Z</time>
      </trkpt>
      <trkpt lat="51.152210980653763" lon="8.749997969716787">
        <ele>320.74000000000001</ele>
        <time>2015-09-13T12:01:51Z</time>
      </trkpt>
      <trkpt lat="51.152301002293825" lon="8.750159991905093">
        <ele>320.74000000000001</ele>
        <time>2015-09-13T12:01:52Z</time>
      </trkpt>
      <trkpt lat="51.1531070061028" lon="8.750876979902387">
        <ele>323.13999999999999</ele>
        <time>2015-09-13T12:01:59Z</time>
      </trkpt>
      <trkpt lat="51.153253018856049" lon="8.751540994271636">
        <ele>323.62</ele>
        <time>2015-09-13T12:02:03Z</time>
      </trkpt>
      <trkpt lat="51.153220999985933" lon="8.751751966774464">
        <ele>323.62</ele>
        <time>2015-09-13T12:02:04Z</time>
      </trkpt>
      <trkpt lat="51.152807017788291" lon="8.754242984578013">
        <ele>324.57999999999998</ele>
        <time>2015-09-13T12:02:16Z</time>
      </trkpt>
      <trkpt lat="51.152465958148241" lon="8.755139010027051">
        <ele>325.06</ele>
        <time>2015-09-13T12:02:21Z</time>
      </trkpt>
      <trkpt lat="51.152460006996989" lon="8.755851974710822">
        <ele>325.54000000000002</ele>
        <time>2015-09-13T12:02:24Z</time>
      </trkpt>
      <trkpt lat="51.152860997244716" lon="8.760424973443151">
        <ele>321.22000000000003</ele>
        <time>2015-09-13T12:02:36Z</time>
      </trkpt>
      <trkpt lat="51.153694996610284" lon="8.765774974599481">
        <ele>319.30000000000001</ele>
        <time>2015-09-13T12:02:48Z</time>
      </trkpt>
      <trkpt lat="51.154422964900732" lon="8.770145969465375">
        <ele>314.49000000000001</ele>
        <time>2015-09-13T12:02:58Z</time>
      </trkpt>
      <trkpt lat="51.1549530364573" lon="8.772309003397822">
        <ele>315.93000000000001</ele>
        <time>2015-09-13T12:03:04Z</time>
      </trkpt>
      <trkpt lat="51.155042974278331" lon="8.773101009428501">
        <ele>315.44999999999999</ele>
        <time>2015-09-13T12:03:06Z</time>
      </trkpt>
      <trkpt lat="51.154883969575167" lon="8.774745035916567">
        <ele>314.00999999999999</ele>
        <time>2015-09-13T12:03:10Z</time>
      </trkpt>
      <trkpt lat="51.154821021482348" lon="8.77516102977097">
        <ele>314.00999999999999</ele>
        <time>2015-09-13T12:03:11Z</time>
      </trkpt>
      <trkpt lat="51.153780994936824" lon="8.779101027175784">
        <ele>311.60000000000002</ele>
        <time>2015-09-13T12:03:21Z</time>
      </trkpt>
      <trkpt lat="51.153604974970222" lon="8.779419036582112">
        <ele>311.60000000000002</ele>
        <time>2015-09-13T12:03:22Z</time>
      </trkpt>
      <trkpt lat="51.152126993983984" lon="8.782221022993326">
        <ele>310.16000000000003</ele>
        <time>2015-09-13T12:03:31Z</time>
      </trkpt>
      <trkpt lat="51.15177595987916" lon="8.782674986869097">
        <ele>309.68000000000001</ele>
        <time>2015-09-13T12:03:33Z</time>
      </trkpt>
      <trkpt lat="51.151418974623084" lon="8.783000037074089">
        <ele>309.68000000000001</ele>
        <time>2015-09-13T12:03:35Z</time>
      </trkpt>
      <trkpt lat="51.150881024077535" lon="8.784059006720781">
        <ele>310.16000000000003</ele>
        <time>2015-09-13T12:03:40Z</time>
      </trkpt>
      <trkpt lat="51.150821009650826" lon="8.784637022763491">
        <ele>310.63999999999999</ele>
        <time>2015-09-13T12:03:42Z</time>
      </trkpt>
      <trkpt lat="51.150927040725946" lon="8.786437958478928">
        <ele>311.60000000000002</ele>
        <time>2015-09-13T12:03:48Z</time>
      </trkpt>
      <trkpt lat="51.150534013286233" lon="8.789090998470783">
        <ele>312.08999999999997</ele>
        <time>2015-09-13T12:03:58Z</time>
      </trkpt>
      <trkpt lat="51.150351036339998" lon="8.789889039471746">
        <ele>310.63999999999999</ele>
        <time>2015-09-13T12:04:02Z</time>
      </trkpt>
      <trkpt lat="51.150325974449515" lon="8.790088025853038">
        <ele>310.16000000000003</ele>
        <time>2015-09-13T12:04:03Z</time>
      </trkpt>
      <trkpt lat="51.150260008871555" lon="8.791251014918089">
        <ele>310.16000000000003</ele>
        <time>2015-09-13T12:04:09Z</time>
      </trkpt>
      <trkpt lat="51.150196976959705" lon="8.791580004617572">
        <ele>310.16000000000003</ele>
        <time>2015-09-13T12:04:11Z</time>
      </trkpt>
      <trkpt lat="51.149791041389108" lon="8.79243403673172">
        <ele>308.24000000000001</ele>
        <time>2015-09-13T12:04:18Z</time>
      </trkpt>
      <trkpt lat="51.149756005033851" lon="8.792504025623202">
        <ele>307.75999999999999</ele>
        <time>2015-09-13T12:04:19Z</time>
      </trkpt>
      <trkpt lat="51.149478983134031" lon="8.792360024526715">
        <ele>306.31999999999999</ele>
        <time>2015-09-13T12:04:22Z</time>
      </trkpt>
      <trkpt lat="51.14870198071003" lon="8.791645970195532">
        <ele>306.31999999999999</ele>
        <time>2015-09-13T12:04:29Z</time>
      </trkpt>
      <trkpt lat="51.1473030410707" lon="8.790808031335473">
        <ele>312.08999999999997</ele>
        <time>2015-09-13T12:04:40Z</time>
      </trkpt>
      <trkpt lat="51.145842997357249" lon="8.790281983092427">
        <ele>318.81</ele>
        <time>2015-09-13T12:04:51Z</time>
      </trkpt>
      <trkpt lat="51.144198970869184" lon="8.789682006463409">
        <ele>325.54000000000002</ele>
        <time>2015-09-13T12:04:59Z</time>
      </trkpt>
      <trkpt lat="51.143981963396072" lon="8.789572035893798">
        <ele>326.5</ele>
        <time>2015-09-13T12:05:00Z</time>
      </trkpt>
      <trkpt lat="51.143250977620482" lon="8.78863200545311">
        <ele>330.35000000000002</ele>
        <time>2015-09-13T12:05:04Z</time>
      </trkpt>
      <trkpt lat="51.142349001020193" lon="8.787357034161687">
        <ele>336.12</ele>
        <time>2015-09-13T12:05:09Z</time>
      </trkpt>
      <trkpt lat="51.14165497943759" lon="8.786969035863876">
        <ele>339.95999999999998</ele>
        <time>2015-09-13T12:05:12Z</time>
      </trkpt>
      <trkpt lat="51.140181021764874" lon="8.786515993997455">
        <ele>348.13</ele>
        <time>2015-09-13T12:05:18Z</time>
      </trkpt>
      <trkpt lat="51.13967701792717" lon="8.786620013415813">
        <ele>351.01999999999998</ele>
        <time>2015-09-13T12:05:20Z</time>
      </trkpt>
      <trkpt lat="51.137147024273872" lon="8.787294002249837">
        <ele>367.36000000000001</ele>
        <time>2015-09-13T12:05:30Z</time>
      </trkpt>
      <trkpt lat="51.136518968269229" lon="8.787551997229457">
        <ele>372.17000000000002</ele>
        <time>2015-09-13T12:05:33Z</time>
      </trkpt>
      <trkpt lat="51.136172041296959" lon="8.787917029112577">
        <ele>375.05000000000001</ele>
        <time>2015-09-13T12:05:35Z</time>
      </trkpt>
      <trkpt lat="51.135902982205153" lon="8.788809031248093">
        <ele>378.89999999999998</ele>
        <time>2015-09-13T12:05:38Z</time>
      </trkpt>
      <trkpt lat="51.135666025802493" lon="8.789778985083103">
        <ele>382.74000000000001</ele>
        <time>2015-09-13T12:05:41Z</time>
      </trkpt>
      <trkpt lat="51.135202003642917" lon="8.790454985573888">
        <ele>387.06999999999999</ele>
        <time>2015-09-13T12:05:44Z</time>
      </trkpt>
      <trkpt lat="51.134782992303371" lon="8.790634023025632">
        <ele>390.43000000000001</ele>
        <time>2015-09-13T12:05:46Z</time>
      </trkpt>
      <trkpt lat="51.132691036909819" lon="8.791357968002558">
        <ele>396.68000000000001</ele>
        <time>2015-09-13T12:05:57Z</time>
      </trkpt>
      <trkpt lat="51.131722005084157" lon="8.791459975764155">
        <ele>390.91000000000003</ele>
        <time>2015-09-13T12:06:02Z</time>
      </trkpt>
      <trkpt lat="51.131112975999713" lon="8.79123198799789">
        <ele>387.55000000000001</ele>
        <time>2015-09-13T12:06:05Z</time>
      </trkpt>
      <trkpt lat="51.12938697449863" lon="8.789901025593281">
        <ele>383.22000000000003</ele>
        <time>2015-09-13T12:06:16Z</time>
      </trkpt>
      <trkpt lat="51.128321969881654" lon="8.78940599039197">
        <ele>377.44999999999999</ele>
        <time>2015-09-13T12:06:25Z</time>
      </trkpt>
      <trkpt lat="51.126791015267372" lon="8.7893629912287">
        <ele>370.24000000000001</ele>
        <time>2015-09-13T12:06:38Z</time>
      </trkpt>
      <trkpt lat="51.126175029203296" lon="8.789403978735209">
        <ele>366.39999999999998</ele>
        <time>2015-09-13T12:06:44Z</time>
      </trkpt>
      <trkpt lat="51.12599398009479" lon="8.789502969011664">
        <ele>364.48000000000002</ele>
        <time>2015-09-13T12:06:46Z</time>
      </trkpt>
      <trkpt lat="51.125742020085454" lon="8.789725005626679">
        <ele>361.11000000000001</ele>
        <time>2015-09-13T12:06:49Z</time>
      </trkpt>
      <trkpt lat="51.125469021499157" lon="8.789865989238024">
        <ele>357.75</ele>
        <time>2015-09-13T12:06:52Z</time>
      </trkpt>
      <trkpt lat="51.125160986557603" lon="8.789978977292776">
        <ele>354.38</ele>
        <time>2015-09-13T12:06:55Z</time>
      </trkpt>
      <trkpt lat="51.124817999079823" lon="8.789902031421661">
        <ele>351.5</ele>
        <time>2015-09-13T12:06:58Z</time>
      </trkpt>
      <trkpt lat="51.124512981623411" lon="8.789433985948563">
        <ele>349.57999999999998</ele>
        <time>2015-09-13T12:07:02Z</time>
      </trkpt>
      <trkpt lat="51.124158008024096" lon="8.788490016013384">
        <ele>346.20999999999998</ele>
        <time>2015-09-13T12:07:08Z</time>
      </trkpt>
      <trkpt lat="51.123777972534299" lon="8.788198996335268">
        <ele>344.29000000000002</ele>
        <time>2015-09-13T12:07:12Z</time>
      </trkpt>
      <trkpt lat="51.123484019190073" lon="8.788772989064455">
        <ele>343.81</ele>
        <time>2015-09-13T12:07:16Z</time>
      </trkpt>
      <trkpt lat="51.123484019190073" lon="8.78919099457562">
        <ele>342.85000000000002</ele>
        <time>2015-09-13T12:07:18Z</time>
      </trkpt>
      <trkpt lat="51.123296013101935" lon="8.78998601809144">
        <ele>339</ele>
        <time>2015-09-13T12:07:22Z</time>
      </trkpt>
      <trkpt lat="51.123208003118634" lon="8.790139993652701">
        <ele>338.04000000000002</ele>
        <time>2015-09-13T12:07:23Z</time>
      </trkpt>
      <trkpt lat="51.122836014255881" lon="8.790427995845676">
        <ele>334.68000000000001</ele>
        <time>2015-09-13T12:07:26Z</time>
      </trkpt>
      <trkpt lat="51.121003981679678" lon="8.791177002713084">
        <ele>327.94999999999999</ele>
        <time>2015-09-13T12:07:37Z</time>
      </trkpt>
      <trkpt lat="51.11950202845037" lon="8.791837999597192">
        <ele>331.31</ele>
        <time>2015-09-13T12:07:44Z</time>
      </trkpt>
      <trkpt lat="51.118475999683142" lon="8.792257010936737">
        <ele>331.31</ele>
        <time>2015-09-13T12:07:48Z</time>
      </trkpt>
      <trkpt lat="51.117947017773986" lon="8.792243013158441">
        <ele>329.87</ele>
        <time>2015-09-13T12:07:50Z</time>
      </trkpt>
      <trkpt lat="51.117194993421435" lon="8.791987029835582">
        <ele>328.43000000000001</ele>
        <time>2015-09-13T12:07:53Z</time>
      </trkpt>
      <trkpt lat="51.115577034652233" lon="8.791276998817921">
        <ele>333.70999999999998</ele>
        <time>2015-09-13T12:08:00Z</time>
      </trkpt>
      <trkpt lat="51.115144025534391" lon="8.79099695943296">
        <ele>336.12</ele>
        <time>2015-09-13T12:08:02Z</time>
      </trkpt>
      <trkpt lat="51.113919010385871" lon="8.789825001731515">
        <ele>335.16000000000003</ele>
        <time>2015-09-13T12:08:07Z</time>
      </trkpt>
      <trkpt lat="51.11164097674191" lon="8.787784008309245">
        <ele>328.91000000000003</ele>
        <time>2015-09-13T12:08:16Z</time>
      </trkpt>
      <trkpt lat="51.1099439766258" lon="8.787071965634823">
        <ele>320.25999999999999</ele>
        <time>2015-09-13T12:08:22Z</time>
      </trkpt>
      <trkpt lat="51.105722011998296" lon="8.785998998209834">
        <ele>298.63</ele>
        <time>2015-09-13T12:08:36Z</time>
      </trkpt>
      <trkpt lat="51.103927027434111" lon="8.785468004643917">
        <ele>290.45999999999998</ele>
        <time>2015-09-13T12:08:43Z</time>
      </trkpt>
      <trkpt lat="51.102332035079598" lon="8.784297974780202">
        <ele>286.61000000000001</ele>
        <time>2015-09-13T12:08:50Z</time>
      </trkpt>
      <trkpt lat="51.101412959396839" lon="8.783558020368218">
        <ele>284.69</ele>
        <time>2015-09-13T12:08:55Z</time>
      </trkpt>
      <trkpt lat="51.101238029077649" lon="8.783500017598271">
        <ele>284.69</ele>
        <time>2015-09-13T12:08:56Z</time>
      </trkpt>
      <trkpt lat="51.100823041051626" lon="8.78373596817255">
        <ele>284.20999999999998</ele>
        <time>2015-09-13T12:08:59Z</time>
      </trkpt>
      <trkpt lat="51.100549036636949" lon="8.784164031967521">
        <ele>284.20999999999998</ele>
        <time>2015-09-13T12:09:01Z</time>
      </trkpt>
      <trkpt lat="51.100264973938465" lon="8.784704999998212">
        <ele>283.73000000000002</ele>
        <time>2015-09-13T12:09:03Z</time>
      </trkpt>
      <trkpt lat="51.099397027865052" lon="8.786501996219158">
        <ele>282.76999999999998</ele>
        <time>2015-09-13T12:09:09Z</time>
      </trkpt>
      <trkpt lat="51.099012969061732" lon="8.786944979801774">
        <ele>282.76999999999998</ele>
        <time>2015-09-13T12:09:11Z</time>
      </trkpt>
      <trkpt lat="51.098454985767603" lon="8.788079973310232">
        <ele>281.31999999999999</ele>
        <time>2015-09-13T12:09:15Z</time>
      </trkpt>
      <trkpt lat="51.097700027748942" lon="8.788754967972636">
        <ele>279.88</ele>
        <time>2015-09-13T12:09:19Z</time>
      </trkpt>
      <trkpt lat="51.096782963722944" lon="8.788703000172973">
        <ele>279.88</ele>
        <time>2015-09-13T12:09:23Z</time>
      </trkpt>
      <trkpt lat="51.09483702108264" lon="8.788668969646096">
        <ele>278.92000000000002</ele>
        <time>2015-09-13T12:09:31Z</time>
      </trkpt>
      <trkpt lat="51.094179041683674" lon="8.789080018177629">
        <ele>278.92000000000002</ele>
        <time>2015-09-13T12:09:34Z</time>
      </trkpt>
      <trkpt lat="51.09159498475492" lon="8.792265979573131">
        <ele>278.92000000000002</ele>
        <time>2015-09-13T12:09:47Z</time>
      </trkpt>
      <trkpt lat="51.090574990957975" lon="8.794544013217092">
        <ele>277.95999999999998</ele>
        <time>2015-09-13T12:09:54Z</time>
      </trkpt>
      <trkpt lat="51.090206019580364" lon="8.795079030096531">
        <ele>277.95999999999998</ele>
        <time>2015-09-13T12:09:56Z</time>
      </trkpt>
      <trkpt lat="51.088851001113653" lon="8.796358024701476">
        <ele>277.95999999999998</ele>
        <time>2015-09-13T12:10:04Z</time>
      </trkpt>
      <trkpt lat="51.087830001488328" lon="8.79729000851512">
        <ele>277.95999999999998</ele>
        <time>2015-09-13T12:10:13Z</time>
      </trkpt>
      <trkpt lat="51.08630801551044" lon="8.798748962581158">
        <ele>274.58999999999997</ele>
        <time>2015-09-13T12:10:26Z</time>
      </trkpt>
      <trkpt lat="51.085188025608659" lon="8.799153976142407">
        <ele>275.06999999999999</ele>
        <time>2015-09-13T12:10:35Z</time>
      </trkpt>
      <trkpt lat="51.081398986279964" lon="8.800594992935658">
        <ele>278.44</ele>
        <time>2015-09-13T12:11:05Z</time>
      </trkpt>
      <trkpt lat="51.080302968621254" lon="8.801840962842107">
        <ele>278.44</ele>
        <time>2015-09-13T12:11:15Z</time>
      </trkpt>
      <trkpt lat="51.079440973699093" lon="8.803780032321811">
        <ele>278.44</ele>
        <time>2015-09-13T12:11:26Z</time>
      </trkpt>
      <trkpt lat="51.078758016228676" lon="8.805724969133735">
        <ele>276.04000000000002</ele>
        <time>2015-09-13T12:11:36Z</time>
      </trkpt>
      <trkpt lat="51.077787978574634" lon="8.808523016050458">
        <ele>273.63</ele>
        <time>2015-09-13T12:11:49Z</time>
      </trkpt>
      <trkpt lat="51.07719998806715" lon="8.809126010164619">
        <ele>273.14999999999998</ele>
        <time>2015-09-13T12:11:54Z</time>
      </trkpt>
      <trkpt lat="51.077076019719243" lon="8.809040011838079">
        <ele>273.63</ele>
        <time>2015-09-13T12:11:55Z</time>
      </trkpt>
      <trkpt lat="51.076945010572672" lon="8.808948984369636">
        <ele>274.58999999999997</ele>
        <time>2015-09-13T12:11:56Z</time>
      </trkpt>
      <trkpt lat="51.07681198976934" lon="8.808799032121897">
        <ele>275.06999999999999</ele>
        <time>2015-09-13T12:11:57Z</time>
      </trkpt>
      <trkpt lat="51.07563198544085" lon="8.807445019483566">
        <ele>278.44</ele>
        <time>2015-09-13T12:12:04Z</time>
      </trkpt>
      <trkpt lat="51.07391201891005" lon="8.805891014635563">
        <ele>277.95999999999998</ele>
        <time>2015-09-13T12:12:12Z</time>
      </trkpt>
      <trkpt lat="51.072137989103794" lon="8.804072979837656">
        <ele>277.95999999999998</ele>
        <time>2015-09-13T12:12:21Z</time>
      </trkpt>
      <trkpt lat="51.071773041039705" lon="8.803664026781917">
        <ele>278.44</ele>
        <time>2015-09-13T12:12:23Z</time>
      </trkpt>
      <trkpt lat="51.070907022804022" lon="8.803347023203969">
        <ele>279.39999999999998</ele>
        <time>2015-09-13T12:12:27Z</time>
      </trkpt>
      <trkpt lat="51.069017993286252" lon="8.802871014922857">
        <ele>276.51999999999998</ele>
        <time>2015-09-13T12:12:36Z</time>
      </trkpt>
      <trkpt lat="51.066880021244287" lon="8.801688998937607">
        <ele>274.11000000000001</ele>
        <time>2015-09-13T12:12:50Z</time>
      </trkpt>
      <trkpt lat="51.066777007654309" lon="8.801508033648133">
        <ele>274.11000000000001</ele>
        <time>2015-09-13T12:12:51Z</time>
      </trkpt>
      <trkpt lat="51.066041998565197" lon="8.800113033503294">
        <ele>274.58999999999997</ele>
        <time>2015-09-13T12:13:00Z</time>
      </trkpt>
      <trkpt lat="51.06596396304667" lon="8.800029968842864">
        <ele>274.58999999999997</ele>
        <time>2015-09-13T12:13:01Z</time>
      </trkpt>
      <trkpt lat="51.064815977588296" lon="8.798805037513375">
        <ele>272.19</ele>
        <time>2015-09-13T12:13:18Z</time>
      </trkpt>
      <trkpt lat="51.064798040315509" lon="8.798786010593176">
        <ele>272.19</ele>
        <time>2015-09-13T12:13:24Z</time>
      </trkpt>
      <trkpt lat="51.064615985378623" lon="8.799051968380809">
        <ele>271.70999999999998</ele>
        <time>2015-09-13T12:13:28Z</time>
      </trkpt>
      <trkpt lat="51.064274003729224" lon="8.799596959725022">
        <ele>271.70999999999998</ele>
        <time>2015-09-13T12:13:33Z</time>
      </trkpt>
      <trkpt lat="51.063807969912887" lon="8.799700979143381">
        <ele>270.26999999999998</ele>
        <time>2015-09-13T12:13:37Z</time>
      </trkpt>
      <trkpt lat="51.062344992533326" lon="8.799766022711992">
        <ele>269.31</ele>
        <time>2015-09-13T12:13:50Z</time>
      </trkpt>
      <trkpt lat="51.062022959813476" lon="8.800198026001453">
        <ele>271.23000000000002</ele>
        <time>2015-09-13T12:13:54Z</time>
      </trkpt>
      <trkpt lat="51.061734035611153" lon="8.800803031772375">
        <ele>273.14999999999998</ele>
        <time>2015-09-13T12:14:16Z</time>
      </trkpt>
      <trkpt lat="51.06170997954905" lon="8.800852987915278">
        <ele>273.63</ele>
        <time>2015-09-13T12:14:24Z</time>
      </trkpt>
      <trkpt lat="51.061563966795802" lon="8.800835972651839">
        <ele>274.58999999999997</ele>
        <time>2015-09-13T12:14:26Z</time>
      </trkpt>
      <trkpt lat="51.061424994841218" lon="8.80055702291429">
        <ele>275.06999999999999</ele>
        <time>2015-09-13T12:14:29Z</time>
      </trkpt>
      <trkpt lat="51.060278015211225" lon="8.796865968033671">
        <ele>275.56</ele>
        <time>2015-09-13T12:14:51Z</time>
      </trkpt>
      <trkpt lat="51.060136025771499" lon="8.796546030789614">
        <ele>275.06999999999999</ele>
        <time>2015-09-13T12:14:53Z</time>
      </trkpt>
      <trkpt lat="51.059937039390206" lon="8.796076979488134">
        <ele>274.11000000000001</ele>
        <time>2015-09-13T12:14:56Z</time>
      </trkpt>
      <trkpt lat="51.059068003669381" lon="8.794127013534308">
        <ele>271.23000000000002</ele>
        <time>2015-09-13T12:15:08Z</time>
      </trkpt>
      <trkpt lat="51.058534998446703" lon="8.793631978332996">
        <ele>272.67000000000002</ele>
        <time>2015-09-13T12:15:16Z</time>
      </trkpt>
      <trkpt lat="51.058386974036694" lon="8.793534999713302">
        <ele>273.14999999999998</ele>
        <time>2015-09-13T12:15:25Z</time>
      </trkpt>
      <trkpt lat="51.057081995531917" lon="8.793435003608465">
        <ele>274.11000000000001</ele>
        <time>2015-09-13T12:16:02Z</time>
      </trkpt>
      <trkpt lat="51.056523006409407" lon="8.793734991922975">
        <ele>273.63</ele>
        <time>2015-09-13T12:16:16Z</time>
      </trkpt>
      <trkpt lat="51.0562729742378" lon="8.794250981882215">
        <ele>272.67000000000002</ele>
        <time>2015-09-13T12:16:20Z</time>
      </trkpt>
      <trkpt lat="51.056220000609756" lon="8.794407974928618">
        <ele>272.19</ele>
        <time>2015-09-13T12:16:21Z</time>
      </trkpt>
      <trkpt lat="51.055923029780388" lon="8.796911984682083">
        <ele>272.67000000000002</ele>
        <time>2015-09-13T12:16:33Z</time>
      </trkpt>
      <trkpt lat="51.055603008717299" lon="8.797730980440974">
        <ele>274.11000000000001</ele>
        <time>2015-09-13T12:16:39Z</time>
      </trkpt>
      <trkpt lat="51.055549029260874" lon="8.797839023172855">
        <ele>275.06999999999999</ele>
        <time>2015-09-13T12:16:41Z</time>
      </trkpt>
      <trkpt lat="51.055720020085573" lon="8.798124007880688">
        <ele>276.51999999999998</ele>
        <time>2015-09-13T12:16:44Z</time>
      </trkpt>
      <trkpt lat="51.056002993136644" lon="8.798264991492033">
        <ele>277.95999999999998</ele>
        <time>2015-09-13T12:16:47Z</time>
      </trkpt>
      <trkpt lat="51.056249001994729" lon="8.798371022567153">
        <ele>278.44</ele>
        <time>2015-09-13T12:16:49Z</time>
      </trkpt>
      <trkpt lat="51.056605987250805" lon="8.79894501529634">
        <ele>278.44</ele>
        <time>2015-09-13T12:16:53Z</time>
      </trkpt>
      <trkpt lat="51.0566580388695" lon="8.799133021384478">
        <ele>278.44</ele>
        <time>2015-09-13T12:16:54Z</time>
      </trkpt>
      <trkpt lat="51.056709000840783" lon="8.799319015815854">
        <ele>278.44</ele>
        <time>2015-09-13T12:16:55Z</time>
      </trkpt>
      <trkpt lat="51.056901030242443" lon="8.800672022625804">
        <ele>278.44</ele>
        <time>2015-09-13T12:17:02Z</time>
      </trkpt>
      <trkpt lat="51.056955009698868" lon="8.802215969190002">
        <ele>281.80000000000001</ele>
        <time>2015-09-13T12:17:10Z</time>
      </trkpt>
      <trkpt lat="51.057092975825071" lon="8.803153987973929">
        <ele>285.17000000000002</ele>
        <time>2015-09-13T12:17:15Z</time>
      </trkpt>
      <trkpt lat="51.057115020230412" lon="8.804260985925794">
        <ele>290.45999999999998</ele>
        <time>2015-09-13T12:17:21Z</time>
      </trkpt>
      <trkpt lat="51.057257009670138" lon="8.804829027503729">
        <ele>294.77999999999997</ele>
        <time>2015-09-13T12:17:25Z</time>
      </trkpt>
      <trkpt lat="51.057063974440098" lon="8.805382987484336">
        <ele>295.74000000000001</ele>
        <time>2015-09-13T12:17:29Z</time>
      </trkpt>
      <trkpt lat="51.056804973632097" lon="8.80584298633039">
        <ele>295.25999999999999</ele>
        <time>2015-09-13T12:17:32Z</time>
      </trkpt>
      <trkpt lat="51.05521802790463" lon="8.807987999171019">
        <ele>293.33999999999997</ele>
        <time>2015-09-13T12:17:47Z</time>
      </trkpt>
      <trkpt lat="51.054493999108672" lon="8.809139002114534">
        <ele>295.74000000000001</ele>
        <time>2015-09-13T12:17:54Z</time>
      </trkpt>
      <trkpt lat="51.054215971380472" lon="8.809485007077456">
        <ele>294.77999999999997</ele>
        <time>2015-09-13T12:17:56Z</time>
      </trkpt>
      <trkpt lat="51.052786018699408" lon="8.811096008867025">
        <ele>288.52999999999997</ele>
        <time>2015-09-13T12:18:05Z</time>
      </trkpt>
      <trkpt lat="51.051324969157577" lon="8.813543021678925">
        <ele>294.77999999999997</ele>
        <time>2015-09-13T12:18:14Z</time>
      </trkpt>
      <trkpt lat="51.050142031162977" lon="8.814982026815414">
        <ele>304.88</ele>
        <time>2015-09-13T12:18:20Z</time>
      </trkpt>
      <trkpt lat="51.048232968896627" lon="8.816365040838718">
        <ele>309.68000000000001</ele>
        <time>2015-09-13T12:18:28Z</time>
      </trkpt>
      <trkpt lat="51.046214019879699" lon="8.817850984632969">
        <ele>308.72000000000003</ele>
        <time>2015-09-13T12:18:36Z</time>
      </trkpt>
      <trkpt lat="51.044161962345243" lon="8.818734018132091">
        <ele>315.93000000000001</ele>
        <time>2015-09-13T12:18:44Z</time>
      </trkpt>
      <trkpt lat="51.042472003027797" lon="8.819533986970782">
        <ele>315.93000000000001</ele>
        <time>2015-09-13T12:18:51Z</time>
      </trkpt>
      <trkpt lat="51.040972983464599" lon="8.819539016112685">
        <ele>313.05000000000001</ele>
        <time>2015-09-13T12:18:56Z</time>
      </trkpt>
      <trkpt lat="51.038592020049691" lon="8.819360984489322">
        <ele>311.60000000000002</ele>
        <time>2015-09-13T12:19:04Z</time>
      </trkpt>
      <trkpt lat="51.036569969728589" lon="8.819642029702663">
        <ele>311.60000000000002</ele>
        <time>2015-09-13T12:19:11Z</time>
      </trkpt>
      <trkpt lat="51.03420602157712" lon="8.821026971563697">
        <ele>317.85000000000002</ele>
        <time>2015-09-13T12:19:20Z</time>
      </trkpt>
      <trkpt lat="51.032870030030608" lon="8.821523012593389">
        <ele>319.77999999999997</ele>
        <time>2015-09-13T12:19:25Z</time>
      </trkpt>
      <trkpt lat="51.032590996474028" lon="8.821489987894893">
        <ele>319.77999999999997</ele>
        <time>2015-09-13T12:19:26Z</time>
      </trkpt>
      <trkpt lat="51.032063020393252" lon="8.821395020931959">
        <ele>320.25999999999999</ele>
        <time>2015-09-13T12:19:28Z</time>
      </trkpt>
      <trkpt lat="51.030857032164931" lon="8.821564000099897">
        <ele>321.22000000000003</ele>
        <time>2015-09-13T12:19:34Z</time>
      </trkpt>
      <trkpt lat="51.030412958934903" lon="8.821897013112903">
        <ele>321.69999999999999</ele>
        <time>2015-09-13T12:19:36Z</time>
      </trkpt>
      <trkpt lat="51.029310990124941" lon="8.823109958320856">
        <ele>322.66000000000003</ele>
        <time>2015-09-13T12:19:41Z</time>
      </trkpt>
      <trkpt lat="51.028822995722294" lon="8.823325959965587">
        <ele>323.62</ele>
        <time>2015-09-13T12:19:43Z</time>
      </trkpt>
      <trkpt lat="51.026396015658975" lon="8.823962984606624">
        <ele>328.43000000000001</ele>
        <time>2015-09-13T12:19:51Z</time>
      </trkpt>
      <trkpt lat="51.024448983371258" lon="8.824458019807935">
        <ele>333.70999999999998</ele>
        <time>2015-09-13T12:19:58Z</time>
      </trkpt>
      <trkpt lat="51.023708023130894" lon="8.824614007025957">
        <ele>337.07999999999998</ele>
        <time>2015-09-13T12:20:01Z</time>
      </trkpt>
      <trkpt lat="51.02299002930522" lon="8.824380990117788">
        <ele>341.41000000000003</ele>
        <time>2015-09-13T12:20:04Z</time>
      </trkpt>
      <trkpt lat="51.02277503348887" lon="8.824193989858031">
        <ele>343.32999999999998</ele>
        <time>2015-09-13T12:20:05Z</time>
      </trkpt>
      <trkpt lat="51.02256297133863" lon="8.824010007083416">
        <ele>345.25</ele>
        <time>2015-09-13T12:20:06Z</time>
      </trkpt>
      <trkpt lat="51.022236999124289" lon="8.823520001024008">
        <ele>349.57999999999998</ele>
        <time>2015-09-13T12:20:08Z</time>
      </trkpt>
      <trkpt lat="51.022000964730978" lon="8.822894962504506">
        <ele>353.42000000000002</ele>
        <time>2015-09-13T12:20:10Z</time>
      </trkpt>
      <trkpt lat="51.020676037296653" lon="8.819114975631237">
        <ele>372.17000000000002</ele>
        <time>2015-09-13T12:20:21Z</time>
      </trkpt>
      <trkpt lat="51.020072959363461" lon="8.818384995684028">
        <ele>374.56999999999999</ele>
        <time>2015-09-13T12:20:24Z</time>
      </trkpt>
      <trkpt lat="51.019597034901381" lon="8.818033961579204">
        <ele>376.97000000000003</ele>
        <time>2015-09-13T12:20:26Z</time>
      </trkpt>
      <trkpt lat="51.017324030399323" lon="8.816727977246046">
        <ele>388.02999999999997</ele>
        <time>2015-09-13T12:20:35Z</time>
      </trkpt>
      <trkpt lat="51.0159229952842" lon="8.816312989220023">
        <ele>390.43000000000001</ele>
        <time>2015-09-13T12:20:41Z</time>
      </trkpt>
      <trkpt lat="51.015499038621783" lon="8.816452967002988">
        <ele>390.43000000000001</ele>
        <time>2015-09-13T12:20:43Z</time>
      </trkpt>
      <trkpt lat="51.015272978693247" lon="8.816594034433365">
        <ele>390.43000000000001</ele>
        <time>2015-09-13T12:20:44Z</time>
      </trkpt>
      <trkpt lat="51.012467974796891" lon="8.818358005955815">
        <ele>388.50999999999999</ele>
        <time>2015-09-13T12:20:56Z</time>
      </trkpt>
      <trkpt lat="51.009959019720554" lon="8.821623008698225">
        <ele>376.97000000000003</ele>
        <time>2015-09-13T12:21:08Z</time>
      </trkpt>
      <trkpt lat="51.007314026355743" lon="8.825238961726427">
        <ele>360.14999999999998</ele>
        <time>2015-09-13T12:21:20Z</time>
      </trkpt>
      <trkpt lat="51.006218008697033" lon="8.826606972143054">
        <ele>354.38</ele>
        <time>2015-09-13T12:21:25Z</time>
      </trkpt>
      <trkpt lat="51.005974011495709" lon="8.826788021251559">
        <ele>354.38</ele>
        <time>2015-09-13T12:21:26Z</time>
      </trkpt>
      <trkpt lat="51.003365982323885" lon="8.828863967210054">
        <ele>356.79000000000002</ele>
        <time>2015-09-13T12:21:37Z</time>
      </trkpt>
      <trkpt lat="51.000664997845888" lon="8.831669976934791">
        <ele>366.39999999999998</ele>
        <time>2015-09-13T12:21:49Z</time>
      </trkpt>
      <trkpt lat="50.998647976666689" lon="8.834456037729979">
        <ele>375.05000000000001</ele>
        <time>2015-09-13T12:21:59Z</time>
      </trkpt>
      <trkpt lat="50.995949003845453" lon="8.837160961702466">
        <ele>388.99000000000001</ele>
        <time>2015-09-13T12:22:11Z</time>
      </trkpt>
      <trkpt lat="50.991555964574218" lon="8.839433966204524">
        <ele>392.36000000000001</ele>
        <time>2015-09-13T12:22:28Z</time>
      </trkpt>
      <trkpt lat="50.990826990455389" lon="8.839311003684998">
        <ele>394.75999999999999</ele>
        <time>2015-09-13T12:22:31Z</time>
      </trkpt>
      <trkpt lat="50.990159036591649" lon="8.839101959019899">
        <ele>396.19999999999999</ele>
        <time>2015-09-13T12:22:34Z</time>
      </trkpt>
      <trkpt lat="50.989944040775299" lon="8.839105982333422">
        <ele>396.19999999999999</ele>
        <time>2015-09-13T12:22:35Z</time>
      </trkpt>
      <trkpt lat="50.989227974787354" lon="8.839738983660936">
        <ele>395.72000000000003</ele>
        <time>2015-09-13T12:22:39Z</time>
      </trkpt>
      <trkpt lat="50.987975969910622" lon="8.841204978525639">
        <ele>393.31999999999999</ele>
        <time>2015-09-13T12:22:45Z</time>
      </trkpt>
      <trkpt lat="50.986940972507" lon="8.841651985421777">
        <ele>390.91000000000003</ele>
        <time>2015-09-13T12:22:49Z</time>
      </trkpt>
      <trkpt lat="50.986664034426212" lon="8.841698002070189">
        <ele>389.47000000000003</ele>
        <time>2015-09-13T12:22:50Z</time>
      </trkpt>
      <trkpt lat="50.984996035695076" lon="8.841715017333627">
        <ele>381.77999999999997</ele>
        <time>2015-09-13T12:22:57Z</time>
      </trkpt>
      <trkpt lat="50.984395975247025" lon="8.841693978756666">
        <ele>376.97000000000003</ele>
        <time>2015-09-13T12:23:00Z</time>
      </trkpt>
      <trkpt lat="50.983462985605001" lon="8.841475965455174">
        <ele>367.83999999999997</ele>
        <time>2015-09-13T12:23:05Z</time>
      </trkpt>
      <trkpt lat="50.983197027817369" lon="8.841662965714932">
        <ele>364.48000000000002</ele>
        <time>2015-09-13T12:23:07Z</time>
      </trkpt>
      <trkpt lat="50.982974991202354" lon="8.841998996213079">
        <ele>361.58999999999997</ele>
        <time>2015-09-13T12:23:09Z</time>
      </trkpt>
      <trkpt lat="50.982856974005699" lon="8.842208962887526">
        <ele>360.14999999999998</ele>
        <time>2015-09-13T12:23:10Z</time>
      </trkpt>
      <trkpt lat="50.98260099068284" lon="8.842952018603683">
        <ele>356.31</ele>
        <time>2015-09-13T12:23:13Z</time>
      </trkpt>
      <trkpt lat="50.982272000983357" lon="8.843991039320827">
        <ele>351.01999999999998</ele>
        <time>2015-09-13T12:23:17Z</time>
      </trkpt>
      <trkpt lat="50.980658987537026" lon="8.84685899131">
        <ele>328.91000000000003</ele>
        <time>2015-09-13T12:23:29Z</time>
      </trkpt>
      <trkpt lat="50.978939021006227" lon="8.849869016557932">
        <ele>306.31999999999999</ele>
        <time>2015-09-13T12:23:40Z</time>
      </trkpt>
      <trkpt lat="50.978137040510774" lon="8.851445987820625">
        <ele>298.63</ele>
        <time>2015-09-13T12:23:46Z</time>
      </trkpt>
      <trkpt lat="50.977165997028351" lon="8.854734040796757">
        <ele>292.38</ele>
        <time>2015-09-13T12:23:56Z</time>
      </trkpt>
      <trkpt lat="50.976724019274116" lon="8.85542999021709">
        <ele>292.86000000000001</ele>
        <time>2015-09-13T12:23:59Z</time>
      </trkpt>
      <trkpt lat="50.976395029574633" lon="8.855780018493533">
        <ele>293.33999999999997</ele>
        <time>2015-09-13T12:24:01Z</time>
      </trkpt>
      <trkpt lat="50.975437983870506" lon="8.856811998412013">
        <ele>293.33999999999997</ele>
        <time>2015-09-13T12:24:08Z</time>
      </trkpt>
      <trkpt lat="50.974958958104253" lon="8.857639040797949">
        <ele>289.49000000000001</ele>
        <time>2015-09-13T12:24:13Z</time>
      </trkpt>
      <trkpt lat="50.974657963961363" lon="8.858304983004928">
        <ele>285.64999999999998</ele>
        <time>2015-09-13T12:24:17Z</time>
      </trkpt>
      <trkpt lat="50.974590992555022" lon="8.858473040163517">
        <ele>284.20999999999998</ele>
        <time>2015-09-13T12:24:18Z</time>
      </trkpt>
      <trkpt lat="50.974339032545686" lon="8.860916029661894">
        <ele>273.63</ele>
        <time>2015-09-13T12:24:30Z</time>
      </trkpt>
      <trkpt lat="50.974174998700619" lon="8.861957984045148">
        <ele>270.75</ele>
        <time>2015-09-13T12:24:36Z</time>
      </trkpt>
      <trkpt lat="50.974062010645866" lon="8.862203992903233">
        <ele>269.79000000000002</ele>
        <time>2015-09-13T12:24:40Z</time>
      </trkpt>
      <trkpt lat="50.974049018695951" lon="8.862209022045136">
        <ele>269.79000000000002</ele>
        <time>2015-09-13T12:24:41Z</time>
      </trkpt>
      <trkpt lat="50.973987998440862" lon="8.862426029518247">
        <ele>269.79000000000002</ele>
        <time>2015-09-13T12:24:44Z</time>
      </trkpt>
      <trkpt lat="50.973981963470578" lon="8.862495012581348">
        <ele>269.79000000000002</ele>
        <time>2015-09-13T12:24:45Z</time>
      </trkpt>
      <trkpt lat="50.973890013992786" lon="8.863449040800333">
        <ele>269.79000000000002</ele>
        <time>2015-09-13T12:24:52Z</time>
      </trkpt>
      <trkpt lat="50.973906023427844" lon="8.863760009407997">
        <ele>269.31</ele>
        <time>2015-09-13T12:24:54Z</time>
      </trkpt>
      <trkpt lat="50.973994033411145" lon="8.864397034049034">
        <ele>269.79000000000002</ele>
        <time>2015-09-13T12:24:58Z</time>
      </trkpt>
      <trkpt lat="50.973923960700631" lon="8.866959968581796">
        <ele>267.86000000000001</ele>
        <time>2015-09-13T12:25:13Z</time>
      </trkpt>
      <trkpt lat="50.973987998440862" lon="8.867940986528993">
        <ele>264.5</ele>
        <time>2015-09-13T12:25:22Z</time>
      </trkpt>
      <trkpt lat="50.973870987072587" lon="8.868136033415794">
        <ele>264.01999999999998</ele>
        <time>2015-09-13T12:25:25Z</time>
      </trkpt>
      <trkpt lat="50.973798986524343" lon="8.868138967081904">
        <ele>263.54000000000002</ele>
        <time>2015-09-13T12:25:26Z</time>
      </trkpt>
      <trkpt lat="50.972037026658654" lon="8.868366032838821">
        <ele>266.42000000000002</ele>
        <time>2015-09-13T12:25:42Z</time>
      </trkpt>
      <trkpt lat="50.970463994890451" lon="8.86890197172761">
        <ele>270.75</ele>
        <time>2015-09-13T12:25:52Z</time>
      </trkpt>
      <trkpt lat="50.969276027753949" lon="8.869963036850095">
        <ele>275.56</ele>
        <time>2015-09-13T12:25:58Z</time>
      </trkpt>
      <trkpt lat="50.96805302426219" lon="8.871167013421655">
        <ele>281.31999999999999</ele>
        <time>2015-09-13T12:26:05Z</time>
      </trkpt>
      <trkpt lat="50.967891002073884" lon="8.871319983154535">
        <ele>281.31999999999999</ele>
        <time>2015-09-13T12:26:06Z</time>
      </trkpt>
      <trkpt lat="50.967724034562707" lon="8.871455015614629">
        <ele>282.27999999999997</ele>
        <time>2015-09-13T12:26:07Z</time>
      </trkpt>
      <trkpt lat="50.966589041054249" lon="8.871834967285395">
        <ele>283.25</ele>
        <time>2015-09-13T12:26:13Z</time>
      </trkpt>
      <trkpt lat="50.965775996446609" lon="8.871544031426311">
        <ele>281.31999999999999</ele>
        <time>2015-09-13T12:26:17Z</time>
      </trkpt>
      <trkpt lat="50.965151963755488" lon="8.871274972334504">
        <ele>280.36000000000001</ele>
        <time>2015-09-13T12:26:20Z</time>
      </trkpt>
      <trkpt lat="50.963997021317482" lon="8.871335992589593">
        <ele>284.69</ele>
        <time>2015-09-13T12:26:26Z</time>
      </trkpt>
      <trkpt lat="50.963730979710817" lon="8.871353007853031">
        <ele>286.61000000000001</ele>
        <time>2015-09-13T12:26:28Z</time>
      </trkpt>
      <trkpt lat="50.963350022211671" lon="8.870897032320499">
        <ele>290.45999999999998</ele>
        <time>2015-09-13T12:26:32Z</time>
      </trkpt>
      <trkpt lat="50.962982978671789" lon="8.870368972420692">
        <ele>292.86000000000001</ele>
        <time>2015-09-13T12:26:35Z</time>
      </trkpt>
      <trkpt lat="50.961935995146632" lon="8.86939499527216">
        <ele>298.63</ele>
        <time>2015-09-13T12:26:42Z</time>
      </trkpt>
      <trkpt lat="50.961494017392397" lon="8.86911503970623">
        <ele>301.50999999999999</ele>
        <time>2015-09-13T12:26:46Z</time>
      </trkpt>
      <trkpt lat="50.961418999359012" lon="8.868616987019777">
        <ele>303.91000000000003</ele>
        <time>2015-09-13T12:26:50Z</time>
      </trkpt>
      <trkpt lat="50.961457975208759" lon="8.868438033387065">
        <ele>304.38999999999999</ele>
        <time>2015-09-13T12:26:51Z</time>
      </trkpt>
      <trkpt lat="50.961498040705919" lon="8.867819029837847">
        <ele>306.31999999999999</ele>
        <time>2015-09-13T12:26:54Z</time>
      </trkpt>
      <trkpt lat="50.961783025413752" lon="8.867348972707987">
        <ele>309.19999999999999</ele>
        <time>2015-09-13T12:26:58Z</time>
      </trkpt>
      <trkpt lat="50.961844967678189" lon="8.867262974381447">
        <ele>310.16000000000003</ele>
        <time>2015-09-13T12:26:59Z</time>
      </trkpt>
      <trkpt lat="50.961747989058495" lon="8.866750001907349">
        <ele>312.56999999999999</ele>
        <time>2015-09-13T12:27:03Z</time>
      </trkpt>
      <trkpt lat="50.961256977170706" lon="8.866682024672627">
        <ele>314.49000000000001</ele>
        <time>2015-09-13T12:27:07Z</time>
      </trkpt>
      <trkpt lat="50.960965035483241" lon="8.86720597743988">
        <ele>317.85000000000002</ele>
        <time>2015-09-13T12:27:10Z</time>
      </trkpt>
      <trkpt lat="50.960677033290267" lon="8.867821963503957">
        <ele>320.25999999999999</ele>
        <time>2015-09-13T12:27:13Z</time>
      </trkpt>
      <trkpt lat="50.96025500446558" lon="8.868197975680232">
        <ele>323.62</ele>
        <time>2015-09-13T12:27:17Z</time>
      </trkpt>
      <trkpt lat="50.959897013381124" lon="8.868079036474228">
        <ele>325.54000000000002</ele>
        <time>2015-09-13T12:27:20Z</time>
      </trkpt>
      <trkpt lat="50.959056979045272" lon="8.867498002946377">
        <ele>322.18000000000001</ele>
        <time>2015-09-13T12:27:26Z</time>
      </trkpt>
      <trkpt lat="50.95892203040421" lon="8.867313014343381">
        <ele>321.22000000000003</ele>
        <time>2015-09-13T12:27:27Z</time>
      </trkpt>
      <trkpt lat="50.958798984065652" lon="8.867088966071606">
        <ele>320.25999999999999</ele>
        <time>2015-09-13T12:27:28Z</time>
      </trkpt>
      <trkpt lat="50.957597019150853" lon="8.865069011226296">
        <ele>310.63999999999999</ele>
        <time>2015-09-13T12:27:36Z</time>
      </trkpt>
      <trkpt lat="50.956782968714833" lon="8.86316497810185">
        <ele>303.91000000000003</ele>
        <time>2015-09-13T12:27:43Z</time>
      </trkpt>
      <trkpt lat="50.95643000677228" lon="8.862366015091538">
        <ele>301.99000000000001</ele>
        <time>2015-09-13T12:27:46Z</time>
      </trkpt>
      <trkpt lat="50.955727016553283" lon="8.861638968810439">
        <ele>300.55000000000001</ele>
        <time>2015-09-13T12:27:50Z</time>
      </trkpt>
      <trkpt lat="50.954989995807409" lon="8.860507998615503">
        <ele>303.43000000000001</ele>
        <time>2015-09-13T12:27:55Z</time>
      </trkpt>
      <trkpt lat="50.954879019409418" lon="8.860228965058923">
        <ele>304.38999999999999</ele>
        <time>2015-09-13T12:27:56Z</time>
      </trkpt>
      <trkpt lat="50.954373003914952" lon="8.859187010675669">
        <ele>309.19999999999999</ele>
        <time>2015-09-13T12:28:00Z</time>
      </trkpt>
      <trkpt lat="50.953836981207132" lon="8.858659034594894">
        <ele>312.56999999999999</ele>
        <time>2015-09-13T12:28:03Z</time>
      </trkpt>
      <trkpt lat="50.952637027949095" lon="8.857623031362891">
        <ele>317.85000000000002</ele>
        <time>2015-09-13T12:28:09Z</time>
      </trkpt>
      <trkpt lat="50.952032022178173" lon="8.856384018436074">
        <ele>321.69999999999999</ele>
        <time>2015-09-13T12:28:13Z</time>
      </trkpt>
      <trkpt lat="50.951351998373866" lon="8.854836970567703">
        <ele>326.99000000000001</ele>
        <time>2015-09-13T12:28:18Z</time>
      </trkpt>
      <trkpt lat="50.95086601562798" lon="8.854390969499946">
        <ele>329.38999999999999</ele>
        <time>2015-09-13T12:28:21Z</time>
      </trkpt>
      <trkpt lat="50.950491009280086" lon="8.854364985600114">
        <ele>331.31</ele>
        <time>2015-09-13T12:28:23Z</time>
      </trkpt>
      <trkpt lat="50.950299985706806" lon="8.854372026398778">
        <ele>331.31</ele>
        <time>2015-09-13T12:28:24Z</time>
      </trkpt>
      <trkpt lat="50.950108040124178" lon="8.85437898337841">
        <ele>331.79000000000002</ele>
        <time>2015-09-13T12:28:25Z</time>
      </trkpt>
      <trkpt lat="50.949499011039734" lon="8.85377699509263">
        <ele>331.79000000000002</ele>
        <time>2015-09-13T12:28:29Z</time>
      </trkpt>
      <trkpt lat="50.949395997449756" lon="8.853536015376449">
        <ele>331.31</ele>
        <time>2015-09-13T12:28:30Z</time>
      </trkpt>
      <trkpt lat="50.948871960863471" lon="8.851805990561843">
        <ele>327.94999999999999</ele>
        <time>2015-09-13T12:28:36Z</time>
      </trkpt>
      <trkpt lat="50.948401987552643" lon="8.851329982280731">
        <ele>324.10000000000002</ele>
        <time>2015-09-13T12:28:39Z</time>
      </trkpt>
      <trkpt lat="50.9478360414505" lon="8.851079028099775">
        <ele>319.77999999999997</ele>
        <time>2015-09-13T12:28:42Z</time>
      </trkpt>
      <trkpt lat="50.947640994563699" lon="8.850967967882752">
        <ele>318.32999999999998</ele>
        <time>2015-09-13T12:28:43Z</time>
      </trkpt>
      <trkpt lat="50.947328014299273" lon="8.850591033697128">
        <ele>314.97000000000003</ele>
        <time>2015-09-13T12:28:45Z</time>
      </trkpt>
      <trkpt lat="50.946828033775091" lon="8.849933976307511">
        <ele>310.16000000000003</ele>
        <time>2015-09-13T12:28:48Z</time>
      </trkpt>
      <trkpt lat="50.946394018828869" lon="8.84965100325644">
        <ele>306.80000000000001</ele>
        <time>2015-09-13T12:28:50Z</time>
      </trkpt>
      <trkpt lat="50.945763029158115" lon="8.849272979423404">
        <ele>302.47000000000003</ele>
        <time>2015-09-13T12:28:53Z</time>
      </trkpt>
      <trkpt lat="50.945231029763818" lon="8.848804011940956">
        <ele>298.14999999999998</ele>
        <time>2015-09-13T12:28:56Z</time>
      </trkpt>
      <trkpt lat="50.94506498426199" lon="8.848675014451146">
        <ele>297.18000000000001</ele>
        <time>2015-09-13T12:28:57Z</time>
      </trkpt>
      <trkpt lat="50.944557962939143" lon="8.84844702668488">
        <ele>294.77999999999997</ele>
        <time>2015-09-13T12:29:00Z</time>
      </trkpt>
      <trkpt lat="50.9438849799335" lon="8.847814025357366">
        <ele>291.42000000000002</ele>
        <time>2015-09-13T12:29:05Z</time>
      </trkpt>
      <trkpt lat="50.94345398247242" lon="8.847711011767387">
        <ele>288.05000000000001</ele>
        <time>2015-09-13T12:29:08Z</time>
      </trkpt>
      <trkpt lat="50.942999012768269" lon="8.847807990387082">
        <ele>284.69</ele>
        <time>2015-09-13T12:29:11Z</time>
      </trkpt>
      <trkpt lat="50.942840008065104" lon="8.8478450383991">
        <ele>283.73000000000002</ele>
        <time>2015-09-13T12:29:12Z</time>
      </trkpt>
      <trkpt lat="50.942343967035413" lon="8.847615960985422">
        <ele>280.36000000000001</ele>
        <time>2015-09-13T12:29:15Z</time>
      </trkpt>
      <trkpt lat="50.942168030887842" lon="8.847449999302626">
        <ele>279.88</ele>
        <time>2015-09-13T12:29:16Z</time>
      </trkpt>
      <trkpt lat="50.941984970122576" lon="8.847231986001134">
        <ele>279.39999999999998</ele>
        <time>2015-09-13T12:29:17Z</time>
      </trkpt>
      <trkpt lat="50.940927006304264" lon="8.845964977517724">
        <ele>274.11000000000001</ele>
        <time>2015-09-13T12:29:23Z</time>
      </trkpt>
      <trkpt lat="50.940298028290272" lon="8.845276990905404">
        <ele>270.75</ele>
        <time>2015-09-13T12:29:27Z</time>
      </trkpt>
      <trkpt lat="50.939565030857921" lon="8.845041040331125">
        <ele>269.79000000000002</ele>
        <time>2015-09-13T12:29:31Z</time>
      </trkpt>
      <trkpt lat="50.938890958204865" lon="8.844986977055669">
        <ele>273.63</ele>
        <time>2015-09-13T12:29:35Z</time>
      </trkpt>
      <trkpt lat="50.938454009592533" lon="8.844778016209602">
        <ele>277</ele>
        <time>2015-09-13T12:29:38Z</time>
      </trkpt>
      <trkpt lat="50.937943970784545" lon="8.844261020421982">
        <ele>280.36000000000001</ele>
        <time>2015-09-13T12:29:42Z</time>
      </trkpt>
      <trkpt lat="50.937787983566523" lon="8.844117019325495">
        <ele>280.83999999999997</ele>
        <time>2015-09-13T12:29:43Z</time>
      </trkpt>
      <trkpt lat="50.936753991991282" lon="8.843813007697463">
        <ele>282.76999999999998</ele>
        <time>2015-09-13T12:29:49Z</time>
      </trkpt>
      <trkpt lat="50.936589036136866" lon="8.843706976622343">
        <ele>282.76999999999998</ele>
        <time>2015-09-13T12:29:50Z</time>
      </trkpt>
      <trkpt lat="50.936131970956922" lon="8.843192998319864">
        <ele>282.27999999999997</ele>
        <time>2015-09-13T12:29:53Z</time>
      </trkpt>
      <trkpt lat="50.934401024132967" lon="8.840301996096969">
        <ele>275.06999999999999</ele>
        <time>2015-09-13T12:30:06Z</time>
      </trkpt>
      <trkpt lat="50.933760982006788" lon="8.83961602114141">
        <ele>270.75</ele>
        <time>2015-09-13T12:30:10Z</time>
      </trkpt>
      <trkpt lat="50.933387987315655" lon="8.839391972869635">
        <ele>268.35000000000002</ele>
        <time>2015-09-13T12:30:12Z</time>
      </trkpt>
      <trkpt lat="50.932972999289632" lon="8.839304968714714">
        <ele>265.94</ele>
        <time>2015-09-13T12:30:14Z</time>
      </trkpt>
      <trkpt lat="50.932349972426891" lon="8.839412005618215">
        <ele>261.62</ele>
        <time>2015-09-13T12:30:17Z</time>
      </trkpt>
      <trkpt lat="50.932150986045599" lon="8.839471014216542">
        <ele>260.64999999999998</ele>
        <time>2015-09-13T12:30:18Z</time>
      </trkpt>
      <trkpt lat="50.93178603798151" lon="8.839726997539401">
        <ele>258.73000000000002</ele>
        <time>2015-09-13T12:30:20Z</time>
      </trkpt>
      <trkpt lat="50.931149013340473" lon="8.840397968888283">
        <ele>256.32999999999998</ele>
        <time>2015-09-13T12:30:24Z</time>
      </trkpt>
      <trkpt lat="50.930636040866375" lon="8.840646995231509">
        <ele>255.37</ele>
        <time>2015-09-13T12:30:27Z</time>
      </trkpt>
      <trkpt lat="50.929865995422006" lon="8.840514980256558">
        <ele>255.37</ele>
        <time>2015-09-13T12:30:31Z</time>
      </trkpt>
      <trkpt lat="50.929685030132532" lon="8.840474998578429">
        <ele>254.88999999999999</ele>
        <time>2015-09-13T12:30:32Z</time>
      </trkpt>
      <trkpt lat="50.929164011031389" lon="8.84062897413969">
        <ele>254.88999999999999</ele>
        <time>2015-09-13T12:30:35Z</time>
      </trkpt>
      <trkpt lat="50.928140999749303" lon="8.84144302457571">
        <ele>254.41</ele>
        <time>2015-09-13T12:30:41Z</time>
      </trkpt>
      <trkpt lat="50.927916029468179" lon="8.841534974053502">
        <ele>253.93000000000001</ele>
        <time>2015-09-13T12:30:42Z</time>
      </trkpt>
      <trkpt lat="50.926600992679596" lon="8.842078959569335">
        <ele>250.56</ele>
        <time>2015-09-13T12:30:47Z</time>
      </trkpt>
      <trkpt lat="50.926152979955077" lon="8.84249797090888">
        <ele>249.59999999999999</ele>
        <time>2015-09-13T12:30:49Z</time>
      </trkpt>
      <trkpt lat="50.924295969307423" lon="8.84408500045538">
        <ele>249.59999999999999</ele>
        <time>2015-09-13T12:30:57Z</time>
      </trkpt>
      <trkpt lat="50.920987967401743" lon="8.84631902910769">
        <ele>248.16</ele>
        <time>2015-09-13T12:31:13Z</time>
      </trkpt>
      <trkpt lat="50.920110968872905" lon="8.847422003746033">
        <ele>246.22999999999999</ele>
        <time>2015-09-13T12:31:21Z</time>
      </trkpt>
      <trkpt lat="50.919638983905315" lon="8.84786800481379">
        <ele>245.27000000000001</ele>
        <time>2015-09-13T12:31:25Z</time>
      </trkpt>
      <trkpt lat="50.919234976172447" lon="8.847816959023476">
        <ele>244.78999999999999</ele>
        <time>2015-09-13T12:31:28Z</time>
      </trkpt>
      <trkpt lat="50.918882014229894" lon="8.847642028704286">
        <ele>245.27000000000001</ele>
        <time>2015-09-13T12:31:31Z</time>
      </trkpt>
      <trkpt lat="50.91846501454711" lon="8.847185969352722">
        <ele>245.75</ele>
        <time>2015-09-13T12:31:35Z</time>
      </trkpt>
      <trkpt lat="50.918341968208551" lon="8.847091002389789">
        <ele>246.22999999999999</ele>
        <time>2015-09-13T12:31:36Z</time>
      </trkpt>
      <trkpt lat="50.917851962149143" lon="8.846713984385133">
        <ele>247.19999999999999</ele>
        <time>2015-09-13T12:31:40Z</time>
      </trkpt>
      <trkpt lat="50.917744003236294" lon="8.846574006602168">
        <ele>247.19999999999999</ele>
        <time>2015-09-13T12:31:41Z</time>
      </trkpt>
      <trkpt lat="50.917319962754846" lon="8.845987021923065">
        <ele>247.19999999999999</ele>
        <time>2015-09-13T12:31:45Z</time>
      </trkpt>
      <trkpt lat="50.915304031223059" lon="8.844747003167868">
        <ele>239.99000000000001</ele>
        <time>2015-09-13T12:32:01Z</time>
      </trkpt>
      <trkpt lat="50.914283031597733" lon="8.843473959714174">
        <ele>238.53999999999999</ele>
        <time>2015-09-13T12:32:08Z</time>
      </trkpt>
      <trkpt lat="50.913603007793427" lon="8.842573994770646">
        <ele>237.58000000000001</ele>
        <time>2015-09-13T12:32:12Z</time>
      </trkpt>
      <trkpt lat="50.91017497703433" lon="8.839268004521728">
        <ele>233.25999999999999</ele>
        <time>2015-09-13T12:32:28Z</time>
      </trkpt>
      <trkpt lat="50.908311009407043" lon="8.837085021659732">
        <ele>229.88999999999999</ele>
        <time>2015-09-13T12:32:38Z</time>
      </trkpt>
      <trkpt lat="50.907364021986723" lon="8.836326040327549">
        <ele>231.81</ele>
        <time>2015-09-13T12:32:43Z</time>
      </trkpt>
      <trkpt lat="50.907153971493244" lon="8.836210034787655">
        <ele>232.78</ele>
        <time>2015-09-13T12:32:44Z</time>
      </trkpt>
      <trkpt lat="50.90514600276947" lon="8.835150981321931">
        <ele>234.69999999999999</ele>
        <time>2015-09-13T12:32:54Z</time>
      </trkpt>
      <trkpt lat="50.903515974059701" lon="8.834859961643815">
        <ele>230.84999999999999</ele>
        <time>2015-09-13T12:33:02Z</time>
      </trkpt>
      <trkpt lat="50.903150020167232" lon="8.834706991910934">
        <ele>230.84999999999999</ele>
        <time>2015-09-13T12:33:04Z</time>
      </trkpt>
      <trkpt lat="50.902960002422333" lon="8.834623005241156">
        <ele>230.84999999999999</ele>
        <time>2015-09-13T12:33:05Z</time>
      </trkpt>
      <trkpt lat="50.901782009750605" lon="8.83351500146091">
        <ele>231.33000000000001</ele>
        <time>2015-09-13T12:33:12Z</time>
      </trkpt>
      <trkpt lat="50.901659969240427" lon="8.833291037008166">
        <ele>231.33000000000001</ele>
        <time>2015-09-13T12:33:13Z</time>
      </trkpt>
      <trkpt lat="50.900990003719926" lon="8.832083037123084">
        <ele>231.81</ele>
        <time>2015-09-13T12:33:18Z</time>
      </trkpt>
      <trkpt lat="50.900262035429478" lon="8.831397984176874">
        <ele>231.81</ele>
        <time>2015-09-13T12:33:22Z</time>
      </trkpt>
      <trkpt lat="50.89988199993968" lon="8.831100007519126">
        <ele>230.84999999999999</ele>
        <time>2015-09-13T12:33:24Z</time>
      </trkpt>
      <trkpt lat="50.899371039122343" lon="8.830090994015336">
        <ele>230.37</ele>
        <time>2015-09-13T12:33:28Z</time>
      </trkpt>
      <trkpt lat="50.899247992783785" lon="8.829807015135884">
        <ele>229.88999999999999</ele>
        <time>2015-09-13T12:33:29Z</time>
      </trkpt>
      <trkpt lat="50.898017026484013" lon="8.827669965103269">
        <ele>228.44999999999999</ele>
        <time>2015-09-13T12:33:38Z</time>
      </trkpt>
      <trkpt lat="50.897488966584206" lon="8.827481037005782">
        <ele>226.53</ele>
        <time>2015-09-13T12:33:42Z</time>
      </trkpt>
      <trkpt lat="50.896558994427323" lon="8.827573992311955">
        <ele>222.19999999999999</ele>
        <time>2015-09-13T12:33:48Z</time>
      </trkpt>
      <trkpt lat="50.895780986174941" lon="8.827228993177414">
        <ele>220.75999999999999</ele>
        <time>2015-09-13T12:33:53Z</time>
      </trkpt>
      <trkpt lat="50.895473035052419" lon="8.827059008181095">
        <ele>220.28</ele>
        <time>2015-09-13T12:33:55Z</time>
      </trkpt>
      <trkpt lat="50.893819034099579" lon="8.827039981260896">
        <ele>219.31999999999999</ele>
        <time>2015-09-13T12:34:04Z</time>
      </trkpt>
      <trkpt lat="50.890187993645668" lon="8.827856965363026">
        <ele>214.99000000000001</ele>
        <time>2015-09-13T12:34:24Z</time>
      </trkpt>
      <trkpt lat="50.888053039088845" lon="8.827847996726632">
        <ele>216.91</ele>
        <time>2015-09-13T12:34:36Z</time>
      </trkpt>
      <trkpt lat="50.885863015428185" lon="8.825687980279326">
        <ele>215.47</ele>
        <time>2015-09-13T12:34:51Z</time>
      </trkpt>
      <trkpt lat="50.885750027373433" lon="8.825529981404543">
        <ele>214.99000000000001</ele>
        <time>2015-09-13T12:34:52Z</time>
      </trkpt>
      <trkpt lat="50.885382983833551" lon="8.825209960341454">
        <ele>212.59</ele>
        <time>2015-09-13T12:34:55Z</time>
      </trkpt>
      <trkpt lat="50.885000014677644" lon="8.825068976730108">
        <ele>210.66999999999999</ele>
        <time>2015-09-13T12:34:58Z</time>
      </trkpt>
      <trkpt lat="50.884579997509718" lon="8.825081968680024">
        <ele>209.69999999999999</ele>
        <time>2015-09-13T12:35:01Z</time>
      </trkpt>
      <trkpt lat="50.882418975234032" lon="8.825784036889672">
        <ele>208.74000000000001</ele>
        <time>2015-09-13T12:35:15Z</time>
      </trkpt>
      <trkpt lat="50.880840998142958" lon="8.826178992167115">
        <ele>208.25999999999999</ele>
        <time>2015-09-13T12:35:25Z</time>
      </trkpt>
      <trkpt lat="50.879007959738374" lon="8.827799968421459">
        <ele>209.22</ele>
        <time>2015-09-13T12:35:42Z</time>
      </trkpt>
      <trkpt lat="50.878802016377449" lon="8.828683001920581">
        <ele>209.69999999999999</ele>
        <time>2015-09-13T12:35:48Z</time>
      </trkpt>
      <trkpt lat="50.878771003335714" lon="8.828822979703546">
        <ele>210.66999999999999</ele>
        <time>2015-09-13T12:35:55Z</time>
      </trkpt>
      <trkpt lat="50.878748958930373" lon="8.828926999121904">
        <ele>210.66999999999999</ele>
        <time>2015-09-13T12:36:13Z</time>
      </trkpt>
      <trkpt lat="50.878420975059271" lon="8.828985001891851">
        <ele>211.15000000000001</ele>
        <time>2015-09-13T12:36:25Z</time>
      </trkpt>
      <trkpt lat="50.87592501193285" lon="8.82818603888154">
        <ele>209.69999999999999</ele>
        <time>2015-09-13T12:36:40Z</time>
      </trkpt>
      <trkpt lat="50.874908035621047" lon="8.827347010374069">
        <ele>208.25999999999999</ele>
        <time>2015-09-13T12:36:46Z</time>
      </trkpt>
      <trkpt lat="50.874639982357621" lon="8.826892040669918">
        <ele>207.78</ele>
        <time>2015-09-13T12:36:48Z</time>
      </trkpt>
      <trkpt lat="50.872962009161711" lon="8.824651977047324">
        <ele>205.38</ele>
        <time>2015-09-13T12:37:00Z</time>
      </trkpt>
      <trkpt lat="50.872609969228506" lon="8.824533959850669">
        <ele>205.38</ele>
        <time>2015-09-13T12:37:02Z</time>
      </trkpt>
      <trkpt lat="50.870993016287684" lon="8.823987962678075">
        <ele>204.41999999999999</ele>
        <time>2015-09-13T12:37:11Z</time>
      </trkpt>
      <trkpt lat="50.869501959532499" lon="8.82270896807313">
        <ele>202.49000000000001</ele>
        <time>2015-09-13T12:37:20Z</time>
      </trkpt>
      <trkpt lat="50.868287002667785" lon="8.821714958176017">
        <ele>202.00999999999999</ele>
        <time>2015-09-13T12:37:27Z</time>
      </trkpt>
      <trkpt lat="50.865693977102637" lon="8.82013002410531">
        <ele>199.13</ele>
        <time>2015-09-13T12:37:42Z</time>
      </trkpt>
      <trkpt lat="50.863921958953142" lon="8.819010034203529">
        <ele>198.65000000000001</ele>
        <time>2015-09-13T12:37:54Z</time>
      </trkpt>
      <trkpt lat="50.862963991239667" lon="8.817741014063358">
        <ele>198.16999999999999</ele>
        <time>2015-09-13T12:38:05Z</time>
      </trkpt>
    </trkseg>
  </trk>

</gpx>